Wetterdaten: Montag, 05.09.2016
Datum Zeit Temp. A. Feuchte A. Luftdruck Regen Wind Richtung Richtung Sonnenschein ET UV Solar Taupunkt Windchill Windben Empfang
05.09.2016 00:00 20,8 C 63 % 1012,4 hPa 0,0 l/m 21,9 km/h (4 Bft) W 274 0 min 0,000 mm 0,0 UV-I 0 W/m 13,5 C 16,9 C 33,8 km/h (5 Bft) 100,00 %
05.09.2016 00:02 20,8 C 63 % 1012,4 hPa 0,0 l/m 20,8 km/h (4 Bft) W-SW 248 0 min 0,000 mm 0,0 UV-I 0 W/m 13,5 C 17,1 C 33,8 km/h (5 Bft) 97,30 %
05.09.2016 00:04 20,7 C 63 % 1012,4 hPa 0,0 l/m 19,2 km/h (3 Bft) W-SW 253 0 min 0,000 mm 0,0 UV-I 0 W/m 13,4 C 17,3 C 29,0 km/h (5 Bft) 100,00 %
05.09.2016 00:06 20,7 C 63 % 1012,5 hPa 0,0 l/m 19,7 km/h (3 Bft) SW 221 0 min 0,000 mm 0,0 UV-I 0 W/m 13,4 C 17,2 C 27,4 km/h (4 Bft) 98,00 %
05.09.2016 00:08 20,7 C 63 % 1012,4 hPa 0,0 l/m 22,0 km/h (4 Bft) SW 229 0 min 0,000 mm 0,0 UV-I 0 W/m 13,4 C 16,8 C 32,2 km/h (5 Bft) 97,87 %
05.09.2016 00:10 20,7 C 64 % 1012,4 hPa 0,0 l/m 19,2 km/h (3 Bft) SW 232 0 min 0,000 mm 0,0 UV-I 0 W/m 13,6 C 17,3 C 33,8 km/h (5 Bft) 95,74 %
05.09.2016 00:12 20,6 C 64 % 1012,5 hPa 0,0 l/m 16,9 km/h (3 Bft) W-SW 240 0 min 0,000 mm 0,0 UV-I 0 W/m 13,5 C 17,6 C 24,1 km/h (4 Bft) 97,87 %
05.09.2016 00:14 20,6 C 64 % 1012,5 hPa 0,0 l/m 17,6 km/h (3 Bft) W-SW 250 0 min 0,000 mm 0,0 UV-I 0 W/m 13,5 C 17,4 C 24,1 km/h (4 Bft) 97,87 %
05.09.2016 00:16 20,6 C 65 % 1012,5 hPa 0,0 l/m 15,6 km/h (3 Bft) W 261 0 min 0,000 mm 0,0 UV-I 0 W/m 13,8 C 17,8 C 24,1 km/h (4 Bft) 95,74 %
05.09.2016 00:18 20,5 C 66 % 1012,6 hPa 0,0 l/m 15,8 km/h (3 Bft) SW 232 0 min 0,000 mm 0,0 UV-I 0 W/m 13,9 C 17,7 C 25,7 km/h (4 Bft) 94,00 %
05.09.2016 00:20 20,4 C 68 % 1012,8 hPa 0,0 l/m 15,5 km/h (3 Bft) W-SW 252 0 min 0,000 mm 0,0 UV-I 0 W/m 14,3 C 17,6 C 24,1 km/h (4 Bft) 97,56 %
05.09.2016 00:22 20,2 C 70 % 1013,1 hPa 0,2 l/m 16,0 km/h (3 Bft) W-SW 242 0 min 0,000 mm 0,0 UV-I 0 W/m 14,5 C 17,3 C 37,0 km/h (5 Bft) 95,74 %
05.09.2016 00:24 19,7 C 74 % 1013,0 hPa 0,2 l/m 18,5 km/h (3 Bft) W 275 0 min 0,000 mm 0,0 UV-I 0 W/m 14,9 C 16,1 C 32,2 km/h (5 Bft) 95,74 %
05.09.2016 00:26 19,1 C 78 % 1012,9 hPa 0,2 l/m 16,0 km/h (3 Bft) W-NW 288 0 min 0,000 mm 0,0 UV-I 0 W/m 15,2 C 15,9 C 25,7 km/h (4 Bft) 97,87 %
05.09.2016 00:28 18,4 C 79 % 1012,8 hPa 0,2 l/m 16,2 km/h (3 Bft) W-SW 246 0 min 0,000 mm 0,0 UV-I 0 W/m 14,7 C 15,0 C 22,5 km/h (4 Bft) 97,87 %
05.09.2016 00:30 18,1 C 80 % 1012,8 hPa 0,0 l/m 13,7 km/h (3 Bft) W-SW 256 0 min 0,000 mm 0,0 UV-I 0 W/m 14,6 C 15,3 C 20,9 km/h (4 Bft) 95,74 %
05.09.2016 00:32 17,8 C 82 % 1012,8 hPa 0,0 l/m 11,2 km/h (2 Bft) W-SW 250 0 min 0,000 mm 0,0 UV-I 0 W/m 14,7 C 15,8 C 19,3 km/h (3 Bft) 97,92 %
05.09.2016 00:34 17,5 C 84 % 1012,8 hPa 0,0 l/m 8,3 km/h (2 Bft) W 269 0 min 0,000 mm 0,0 UV-I 0 W/m 14,8 C 16,6 C 14,5 km/h (3 Bft) 95,74 %
05.09.2016 00:36 17,3 C 85 % 1012,8 hPa 0,0 l/m 11,7 km/h (2 Bft) W 261 0 min 0,000 mm 0,0 UV-I 0 W/m 14,8 C 15,0 C 19,3 km/h (3 Bft) 95,74 %
05.09.2016 00:38 17,2 C 86 % 1012,8 hPa 0,0 l/m 9,0 km/h (2 Bft) W-SW 242 0 min 0,000 mm 0,0 UV-I 0 W/m 14,8 C 16,0 C 12,9 km/h (3 Bft) 97,87 %
05.09.2016 00:40 17,2 C 86 % 1012,9 hPa 0,0 l/m 11,8 km/h (2 Bft) W-SW 238 0 min 0,000 mm 0,0 UV-I 0 W/m 14,8 C 14,9 C 17,7 km/h (3 Bft) 97,87 %
05.09.2016 00:42 17,2 C 87 % 1012,9 hPa 0,0 l/m 11,7 km/h (2 Bft) W-SW 245 0 min 0,000 mm 0,0 UV-I 0 W/m 15,0 C 14,9 C 17,7 km/h (3 Bft) 100,00 %
05.09.2016 00:44 17,2 C 87 % 1013,0 hPa 0,0 l/m 11,1 km/h (2 Bft) W-SW 240 0 min 0,000 mm 0,0 UV-I 0 W/m 15,0 C 15,1 C 22,5 km/h (4 Bft) 97,87 %
05.09.2016 00:46 17,2 C 87 % 1013,0 hPa 0,0 l/m 13,8 km/h (3 Bft) W-SW 241 0 min 0,000 mm 0,0 UV-I 0 W/m 15,0 C 14,2 C 17,7 km/h (3 Bft) 100,00 %
05.09.2016 00:48 17,3 C 87 % 1013,0 hPa 0,0 l/m 13,2 km/h (3 Bft) W 262 0 min 0,000 mm 0,0 UV-I 0 W/m 15,1 C 14,5 C 17,7 km/h (3 Bft) 100,00 %
05.09.2016 00:50 17,3 C 87 % 1013,0 hPa 0,0 l/m 12,6 km/h (3 Bft) W-SW 253 0 min 0,000 mm 0,0 UV-I 0 W/m 15,1 C 14,7 C 17,7 km/h (3 Bft) 97,87 %
05.09.2016 00:52 17,3 C 87 % 1013,1 hPa 0,0 l/m 13,4 km/h (3 Bft) SW 219 0 min 0,000 mm 0,0 UV-I 0 W/m 15,1 C 14,5 C 20,9 km/h (4 Bft) 100,00 %
05.09.2016 00:54 17,3 C 87 % 1013,1 hPa 0,0 l/m 12,9 km/h (3 Bft) W-SW 238 0 min 0,000 mm 0,0 UV-I 0 W/m 15,1 C 14,6 C 19,3 km/h (3 Bft) 100,00 %
05.09.2016 00:56 17,3 C 87 % 1013,1 hPa 0,0 l/m 14,3 km/h (3 Bft) W-SW 248 0 min 0,000 mm 0,0 UV-I 0 W/m 15,1 C 14,2 C 20,9 km/h (4 Bft) 100,00 %
05.09.2016 00:58 17,3 C 87 % 1013,2 hPa 0,0 l/m 10,4 km/h (2 Bft) W 264 0 min 0,000 mm 0,0 UV-I 0 W/m 15,1 C 15,5 C 16,1 km/h (3 Bft) 100,00 %
05.09.2016 01:00 17,3 C 87 % 1013,1 hPa 0,2 l/m 15,7 km/h (3 Bft) W-SW 244 0 min 0,051 mm 0,0 UV-I 0 W/m 15,1 C 13,8 C 22,5 km/h (4 Bft) 100,00 %
05.09.2016 01:02 17,3 C 88 % 1013,2 hPa 0,0 l/m 15,1 km/h (3 Bft) W-SW 255 0 min 0,000 mm 0,0 UV-I 0 W/m 15,3 C 13,9 C 20,9 km/h (4 Bft) 98,00 %
05.09.2016 01:04 17,3 C 88 % 1013,2 hPa 0,0 l/m 15,8 km/h (3 Bft) SW 217 0 min 0,000 mm 0,0 UV-I 0 W/m 15,3 C 13,8 C 24,1 km/h (4 Bft) 100,00 %
05.09.2016 01:06 17,3 C 88 % 1013,2 hPa 0,0 l/m 14,2 km/h (3 Bft) W-SW 246 0 min 0,000 mm 0,0 UV-I 0 W/m 15,3 C 14,2 C 22,5 km/h (4 Bft) 100,00 %
05.09.2016 01:08 17,2 C 88 % 1013,2 hPa 0,0 l/m 15,0 km/h (3 Bft) SW 230 0 min 0,000 mm 0,0 UV-I 0 W/m 15,2 C 13,9 C 25,7 km/h (4 Bft) 100,00 %
05.09.2016 01:10 17,2 C 88 % 1013,3 hPa 0,2 l/m 16,8 km/h (3 Bft) S-SW 204 0 min 0,000 mm 0,0 UV-I 0 W/m 15,2 C 13,4 C 24,1 km/h (4 Bft) 100,00 %
05.09.2016 01:12 17,2 C 88 % 1013,3 hPa 0,0 l/m 17,5 km/h (3 Bft) W-SW 258 0 min 0,000 mm 0,0 UV-I 0 W/m 15,2 C 13,2 C 25,7 km/h (4 Bft) 95,74 %
05.09.2016 01:14 17,1 C 88 % 1013,3 hPa 0,8 l/m 14,1 km/h (3 Bft) W-SW 255 0 min 0,000 mm 0,0 UV-I 0 W/m 15,1 C 14,0 C 20,9 km/h (4 Bft) 100,00 %
05.09.2016 01:16 17,1 C 89 % 1013,4 hPa 0,2 l/m 12,7 km/h (3 Bft) SW 229 0 min 0,000 mm 0,0 UV-I 0 W/m 15,3 C 14,5 C 16,1 km/h (3 Bft) 100,00 %
05.09.2016 01:18 17,0 C 89 % 1013,4 hPa 0,2 l/m 15,6 km/h (3 Bft) W 260 0 min 0,000 mm 0,0 UV-I 0 W/m 15,2 C 13,4 C 24,1 km/h (4 Bft) 100,00 %
05.09.2016 01:20 16,9 C 89 % 1013,4 hPa 0,0 l/m 14,0 km/h (3 Bft) SW 232 0 min 0,000 mm 0,0 UV-I 0 W/m 15,1 C 13,8 C 20,9 km/h (4 Bft) 100,00 %
05.09.2016 01:22 16,9 C 90 % 1013,4 hPa 0,2 l/m 12,5 km/h (3 Bft) SW 219 0 min 0,000 mm 0,0 UV-I 0 W/m 15,2 C 14,3 C 17,7 km/h (3 Bft) 100,00 %
05.09.2016 01:24 16,8 C 90 % 1013,4 hPa 0,0 l/m 13,5 km/h (3 Bft) SW 228 0 min 0,000 mm 0,0 UV-I 0 W/m 15,1 C 13,8 C 19,3 km/h (3 Bft) 100,00 %
05.09.2016 01:26 16,8 C 90 % 1013,4 hPa 0,0 l/m 17,5 km/h (3 Bft) SW 236 0 min 0,000 mm 0,0 UV-I 0 W/m 15,1 C 12,7 C 29,0 km/h (5 Bft) 100,00 %
05.09.2016 01:28 16,7 C 90 % 1013,3 hPa 0,0 l/m 15,2 km/h (3 Bft) SW 229 0 min 0,000 mm 0,0 UV-I 0 W/m 15,0 C 13,2 C 22,5 km/h (4 Bft) 100,00 %
05.09.2016 01:30 16,7 C 90 % 1013,3 hPa 0,2 l/m 15,9 km/h (3 Bft) W-SW 250 0 min 0,000 mm 0,0 UV-I 0 W/m 15,0 C 13,0 C 24,1 km/h (4 Bft) 100,00 %
05.09.2016 01:32 16,7 C 90 % 1013,3 hPa 0,0 l/m 14,3 km/h (3 Bft) S-SW 195 0 min 0,000 mm 0,0 UV-I 0 W/m 15,0 C 13,5 C 22,5 km/h (4 Bft) 100,00 %
05.09.2016 01:34 16,6 C 91 % 1013,3 hPa 0,0 l/m 14,7 km/h (3 Bft) SW 217 0 min 0,000 mm 0,0 UV-I 0 W/m 15,1 C 13,2 C 24,1 km/h (4 Bft) 100,00 %
05.09.2016 01:36 16,6 C 91 % 1013,2 hPa 0,0 l/m 14,9 km/h (3 Bft) W 269 0 min 0,000 mm 0,0 UV-I 0 W/m 15,1 C 13,2 C 29,0 km/h (5 Bft) 97,87 %
05.09.2016 01:38 16,6 C 91 % 1013,3 hPa 0,0 l/m 14,0 km/h (3 Bft) S-SW 202 0 min 0,000 mm 0,0 UV-I 0 W/m 15,1 C 13,4 C 24,1 km/h (4 Bft) 100,00 %
05.09.2016 01:40 16,5 C 91 % 1013,2 hPa 0,2 l/m 14,8 km/h (3 Bft) W-SW 255 0 min 0,000 mm 0,0 UV-I 0 W/m 15,0 C 13,1 C 32,2 km/h (5 Bft) 97,87 %
05.09.2016 01:42 16,4 C 91 % 1013,3 hPa 0,0 l/m 17,3 km/h (3 Bft) S 187 0 min 0,000 mm 0,0 UV-I 0 W/m 14,9 C 12,2 C 27,4 km/h (4 Bft) 97,87 %
05.09.2016 01:44 16,4 C 91 % 1013,2 hPa 0,0 l/m 14,4 km/h (3 Bft) SW 223 0 min 0,000 mm 0,0 UV-I 0 W/m 14,9 C 13,1 C 25,7 km/h (4 Bft) 100,00 %
05.09.2016 01:46 16,4 C 91 % 1013,2 hPa 0,0 l/m 16,1 km/h (3 Bft) S-SW 205 0 min 0,000 mm 0,0 UV-I 0 W/m 14,9 C 12,6 C 24,1 km/h (4 Bft) 100,00 %
05.09.2016 01:48 16,4 C 92 % 1013,2 hPa 0,0 l/m 15,9 km/h (3 Bft) S 181 0 min 0,000 mm 0,0 UV-I 0 W/m 15,1 C 12,6 C 27,4 km/h (4 Bft) 100,00 %
05.09.2016 01:50 16,4 C 92 % 1013,2 hPa 0,0 l/m 15,1 km/h (3 Bft) S-SO 167 0 min 0,000 mm 0,0 UV-I 0 W/m 15,1 C 12,9 C 20,9 km/h (4 Bft) 97,87 %
05.09.2016 01:52 16,3 C 92 % 1013,3 hPa 0,0 l/m 14,1 km/h (3 Bft) S-SW 192 0 min 0,000 mm 0,0 UV-I 0 W/m 15,0 C 13,0 C 29,0 km/h (5 Bft) 97,92 %
05.09.2016 01:54 16,3 C 92 % 1013,2 hPa 0,0 l/m 17,8 km/h (3 Bft) S-SW 192 0 min 0,000 mm 0,0 UV-I 0 W/m 15,0 C 12,0 C 27,4 km/h (4 Bft) 100,00 %
05.09.2016 01:56 16,3 C 92 % 1013,2 hPa 0,0 l/m 16,4 km/h (3 Bft) S-SW 197 0 min 0,000 mm 0,0 UV-I 0 W/m 15,0 C 12,4 C 29,0 km/h (5 Bft) 97,87 %
05.09.2016 01:58 16,3 C 92 % 1013,2 hPa 0,0 l/m 17,5 km/h (3 Bft) SW 214 0 min 0,000 mm 0,0 UV-I 0 W/m 15,0 C 12,1 C 24,1 km/h (4 Bft) 100,00 %
05.09.2016 02:00 16,3 C 92 % 1013,3 hPa 0,0 l/m 15,6 km/h (3 Bft) W-SW 258 0 min 0,025 mm 0,0 UV-I 0 W/m 15,0 C 12,6 C 25,7 km/h (4 Bft) 100,00 %
05.09.2016 02:02 16,3 C 92 % 1013,2 hPa 0,0 l/m 14,7 km/h (3 Bft) SW 231 0 min 0,000 mm 0,0 UV-I 0 W/m 15,0 C 12,9 C 32,2 km/h (5 Bft) 100,00 %
05.09.2016 02:04 16,3 C 92 % 1013,3 hPa 0,2 l/m 14,7 km/h (3 Bft) SW 221 0 min 0,000 mm 0,0 UV-I 0 W/m 15,0 C 12,9 C 24,1 km/h (4 Bft) 97,87 %
05.09.2016 02:06 16,3 C 92 % 1013,2 hPa 0,0 l/m 13,9 km/h (3 Bft) S-SW 200 0 min 0,000 mm 0,0 UV-I 0 W/m 15,0 C 13,1 C 22,5 km/h (4 Bft) 97,87 %
05.09.2016 02:08 16,3 C 93 % 1013,2 hPa 0,0 l/m 13,8 km/h (3 Bft) S-SW 196 0 min 0,000 mm 0,0 UV-I 0 W/m 15,2 C 13,1 C 24,1 km/h (4 Bft) 97,87 %
05.09.2016 02:10 16,3 C 93 % 1013,2 hPa 0,0 l/m 14,6 km/h (3 Bft) SW 221 0 min 0,000 mm 0,0 UV-I 0 W/m 15,2 C 12,9 C 24,1 km/h (4 Bft) 95,83 %
05.09.2016 02:12 16,3 C 93 % 1013,1 hPa 0,0 l/m 17,7 km/h (3 Bft) S 172 0 min 0,000 mm 0,0 UV-I 0 W/m 15,2 C 12,0 C 29,0 km/h (5 Bft) 97,87 %
05.09.2016 02:14 16,3 C 93 % 1013,2 hPa 0,2 l/m 15,5 km/h (3 Bft) SW 219 0 min 0,000 mm 0,0 UV-I 0 W/m 15,2 C 12,6 C 25,7 km/h (4 Bft) 93,62 %
05.09.2016 02:16 16,3 C 93 % 1013,2 hPa 0,0 l/m 14,0 km/h (3 Bft) SW 228 0 min 0,000 mm 0,0 UV-I 0 W/m 15,2 C 13,1 C 20,9 km/h (4 Bft) 95,74 %
05.09.2016 02:18 16,2 C 93 % 1013,2 hPa 0,0 l/m 16,4 km/h (3 Bft) SW 236 0 min 0,000 mm 0,0 UV-I 0 W/m 15,1 C 12,2 C 25,7 km/h (4 Bft) 97,37 %
05.09.2016 02:20 16,2 C 93 % 1013,1 hPa 0,0 l/m 12,8 km/h (3 Bft) SW 216 0 min 0,000 mm 0,0 UV-I 0 W/m 15,1 C 13,4 C 20,9 km/h (4 Bft) 97,87 %
05.09.2016 02:22 16,2 C 93 % 1013,1 hPa 0,0 l/m 16,4 km/h (3 Bft) SW 235 0 min 0,000 mm 0,0 UV-I 0 W/m 15,1 C 12,2 C 24,1 km/h (4 Bft) 98,00 %
05.09.2016 02:24 16,2 C 93 % 1013,2 hPa 0,0 l/m 14,7 km/h (3 Bft) W-SW 255 0 min 0,000 mm 0,0 UV-I 0 W/m 15,1 C 12,7 C 24,1 km/h (4 Bft) 97,87 %
05.09.2016 02:26 16,2 C 93 % 1013,2 hPa 0,0 l/m 16,1 km/h (3 Bft) SW 222 0 min 0,000 mm 0,0 UV-I 0 W/m 15,1 C 12,3 C 30,6 km/h (5 Bft) 97,87 %
05.09.2016 02:28 16,2 C 93 % 1013,1 hPa 0,0 l/m 13,2 km/h (3 Bft) W-SW 240 0 min 0,000 mm 0,0 UV-I 0 W/m 15,1 C 13,2 C 22,5 km/h (4 Bft) 98,00 %
05.09.2016 02:30 16,2 C 93 % 1013,1 hPa 0,0 l/m 11,8 km/h (2 Bft) W-SW 245 0 min 0,000 mm 0,0 UV-I 0 W/m 15,1 C 13,7 C 22,5 km/h (4 Bft) 97,87 %
05.09.2016 02:32 16,2 C 93 % 1013,1 hPa 0,0 l/m 14,0 km/h (3 Bft) S-SW 213 0 min 0,000 mm 0,0 UV-I 0 W/m 15,1 C 13,0 C 20,9 km/h (4 Bft) 95,74 %
05.09.2016 02:34 16,2 C 93 % 1013,1 hPa 0,0 l/m 13,7 km/h (3 Bft) W-SW 246 0 min 0,000 mm 0,0 UV-I 0 W/m 15,1 C 13,1 C 19,3 km/h (3 Bft) 95,83 %
05.09.2016 02:36 16,2 C 93 % 1013,1 hPa 0,0 l/m 12,4 km/h (3 Bft) S-SW 213 0 min 0,000 mm 0,0 UV-I 0 W/m 15,1 C 13,5 C 19,3 km/h (3 Bft) 97,87 %
05.09.2016 02:38 16,2 C 93 % 1013,1 hPa 0,2 l/m 13,8 km/h (3 Bft) W-SW 244 0 min 0,000 mm 0,0 UV-I 0 W/m 15,1 C 13,0 C 20,9 km/h (4 Bft) 97,87 %
05.09.2016 02:40 16,2 C 93 % 1013,0 hPa 0,0 l/m 11,3 km/h (2 Bft) W-SW 246 0 min 0,000 mm 0,0 UV-I 0 W/m 15,1 C 13,9 C 19,3 km/h (3 Bft) 97,87 %
05.09.2016 02:42 16,2 C 93 % 1013,1 hPa 0,0 l/m 10,2 km/h (2 Bft) SW 232 0 min 0,000 mm 0,0 UV-I 0 W/m 15,1 C 14,4 C 22,5 km/h (4 Bft) 100,00 %
05.09.2016 02:44 16,1 C 93 % 1013,0 hPa 0,2 l/m 13,1 km/h (3 Bft) S 178 0 min 0,000 mm 0,0 UV-I 0 W/m 15,0 C 13,1 C 20,9 km/h (4 Bft) 100,00 %
05.09.2016 02:46 16,2 C 93 % 1013,0 hPa 0,0 l/m 11,3 km/h (2 Bft) S-SW 212 0 min 0,000 mm 0,0 UV-I 0 W/m 15,1 C 13,9 C 25,7 km/h (4 Bft) 100,00 %
05.09.2016 02:48 16,1 C 93 % 1013,0 hPa 0,0 l/m 12,9 km/h (3 Bft) SW 232 0 min 0,000 mm 0,0 UV-I 0 W/m 15,0 C 13,2 C 24,1 km/h (4 Bft) 100,00 %
05.09.2016 02:50 16,1 C 93 % 1012,9 hPa 0,0 l/m 10,1 km/h (2 Bft) S-SW 207 0 min 0,000 mm 0,0 UV-I 0 W/m 15,0 C 14,3 C 17,7 km/h (3 Bft) 97,87 %
05.09.2016 02:52 16,2 C 93 % 1012,9 hPa 0,0 l/m 12,9 km/h (3 Bft) S-SW 206 0 min 0,000 mm 0,0 UV-I 0 W/m 15,1 C 13,3 C 20,9 km/h (4 Bft) 95,74 %
05.09.2016 02:54 16,1 C 93 % 1012,9 hPa 0,0 l/m 13,4 km/h (3 Bft) S-SW 203 0 min 0,000 mm 0,0 UV-I 0 W/m 15,0 C 13,0 C 20,9 km/h (4 Bft) 100,00 %
05.09.2016 02:56 16,2 C 93 % 1012,8 hPa 0,0 l/m 15,4 km/h (3 Bft) S-SW 205 0 min 0,000 mm 0,0 UV-I 0 W/m 15,1 C 12,5 C 22,5 km/h (4 Bft) 97,14 %
05.09.2016 02:58 16,2 C 93 % 1012,8 hPa 0,0 l/m 16,0 km/h (3 Bft) W-SW 246 0 min 0,000 mm 0,0 UV-I 0 W/m 15,1 C 12,3 C 24,1 km/h (4 Bft) 100,00 %
05.09.2016 03:00 16,2 C 93 % 1012,8 hPa 0,0 l/m 16,8 km/h (3 Bft) SW 219 0 min 0,026 mm 0,0 UV-I 0 W/m 15,1 C 12,1 C 29,0 km/h (5 Bft) 97,87 %
05.09.2016 03:02 16,2 C 93 % 1012,7 hPa 0,0 l/m 17,5 km/h (3 Bft) SW 215 0 min 0,000 mm 0,0 UV-I 0 W/m 15,1 C 11,9 C 27,4 km/h (4 Bft) 100,00 %
05.09.2016 03:04 16,2 C 93 % 1012,7 hPa 0,2 l/m 16,9 km/h (3 Bft) S-SW 192 0 min 0,000 mm 0,0 UV-I 0 W/m 15,1 C 12,1 C 25,7 km/h (4 Bft) 95,74 %
05.09.2016 03:06 16,2 C 93 % 1012,7 hPa 0,2 l/m 15,4 km/h (3 Bft) S-SW 202 0 min 0,000 mm 0,0 UV-I 0 W/m 15,1 C 12,5 C 25,7 km/h (4 Bft) 100,00 %
05.09.2016 03:08 16,2 C 93 % 1012,7 hPa 0,0 l/m 17,6 km/h (3 Bft) S-SW 210 0 min 0,000 mm 0,0 UV-I 0 W/m 15,1 C 11,9 C 27,4 km/h (4 Bft) 100,00 %
05.09.2016 03:10 16,2 C 93 % 1012,7 hPa 0,0 l/m 15,8 km/h (3 Bft) SW 227 0 min 0,000 mm 0,0 UV-I 0 W/m 15,1 C 12,4 C 30,6 km/h (5 Bft) 97,92 %
05.09.2016 03:12 16,2 C 93 % 1012,9 hPa 0,0 l/m 18,7 km/h (3 Bft) S 175 0 min 0,000 mm 0,0 UV-I 0 W/m 15,1 C 11,6 C 27,4 km/h (4 Bft) 97,87 %
05.09.2016 03:14 16,2 C 93 % 1012,8 hPa 0,0 l/m 16,3 km/h (3 Bft) SW 221 0 min 0,000 mm 0,0 UV-I 0 W/m 15,1 C 12,3 C 25,7 km/h (4 Bft) 100,00 %
05.09.2016 03:16 16,2 C 92 % 1012,9 hPa 0,0 l/m 20,2 km/h (4 Bft) W-SW 240 0 min 0,000 mm 0,0 UV-I 0 W/m 14,9 C 11,2 C 33,8 km/h (5 Bft) 100,00 %
05.09.2016 03:18 16,3 C 92 % 1012,9 hPa 0,0 l/m 20,8 km/h (4 Bft) W-SW 244 0 min 0,000 mm 0,0 UV-I 0 W/m 15,0 C 11,2 C 32,2 km/h (5 Bft) 100,00 %
05.09.2016 03:20 16,3 C 92 % 1012,8 hPa 0,0 l/m 20,6 km/h (4 Bft) SW 231 0 min 0,000 mm 0,0 UV-I 0 W/m 15,0 C 11,3 C 29,0 km/h (5 Bft) 97,87 %
05.09.2016 03:22 16,3 C 92 % 1012,8 hPa 0,0 l/m 19,3 km/h (3 Bft) SW 215 0 min 0,000 mm 0,0 UV-I 0 W/m 15,0 C 11,6 C 29,0 km/h (5 Bft) 100,00 %
05.09.2016 03:24 16,3 C 92 % 1012,7 hPa 0,0 l/m 18,3 km/h (3 Bft) W-SW 247 0 min 0,000 mm 0,0 UV-I 0 W/m 15,0 C 11,8 C 27,4 km/h (4 Bft) 100,00 %
05.09.2016 03:26 16,3 C 92 % 1012,8 hPa 0,0 l/m 16,0 km/h (3 Bft) W-SW 242 0 min 0,000 mm 0,0 UV-I 0 W/m 15,0 C 12,5 C 27,4 km/h (4 Bft) 97,87 %
05.09.2016 03:28 16,3 C 91 % 1012,8 hPa 0,0 l/m 16,3 km/h (3 Bft) SW 223 0 min 0,000 mm 0,0 UV-I 0 W/m 14,8 C 12,4 C 24,1 km/h (4 Bft) 96,00 %
05.09.2016 03:30 16,3 C 91 % 1012,8 hPa 0,0 l/m 17,7 km/h (3 Bft) SW 224 0 min 0,000 mm 0,0 UV-I 0 W/m 14,8 C 12,0 C 29,0 km/h (5 Bft) 98,00 %
05.09.2016 03:32 16,3 C 91 % 1012,7 hPa 0,0 l/m 17,3 km/h (3 Bft) SW 220 0 min 0,000 mm 0,0 UV-I 0 W/m 14,8 C 12,1 C 24,1 km/h (4 Bft) 97,87 %
05.09.2016 03:34 16,3 C 92 % 1012,7 hPa 0,0 l/m 13,1 km/h (3 Bft) W-SW 252 0 min 0,000 mm 0,0 UV-I 0 W/m 15,0 C 13,4 C 20,9 km/h (4 Bft) 97,87 %
05.09.2016 03:36 16,3 C 92 % 1012,6 hPa 0,0 l/m 14,8 km/h (3 Bft) S-SW 211 0 min 0,000 mm 0,0 UV-I 0 W/m 15,0 C 12,8 C 22,5 km/h (4 Bft) 100,00 %
05.09.2016 03:38 16,2 C 92 % 1012,7 hPa 0,0 l/m 14,8 km/h (3 Bft) W-SW 243 0 min 0,000 mm 0,0 UV-I 0 W/m 14,9 C 12,7 C 20,9 km/h (4 Bft) 100,00 %
05.09.2016 03:40 16,2 C 92 % 1012,6 hPa 0,0 l/m 16,1 km/h (3 Bft) S-SW 211 0 min 0,000 mm 0,0 UV-I 0 W/m 14,9 C 12,3 C 27,4 km/h (4 Bft) 100,00 %
05.09.2016 03:42 16,2 C 92 % 1012,6 hPa 0,0 l/m 17,0 km/h (3 Bft) W-SW 240 0 min 0,000 mm 0,0 UV-I 0 W/m 14,9 C 12,1 C 25,7 km/h (4 Bft) 100,00 %
05.09.2016 03:44 16,2 C 92 % 1012,6 hPa 0,0 l/m 16,5 km/h (3 Bft) W-SW 252 0 min 0,000 mm 0,0 UV-I 0 W/m 14,9 C 12,2 C 27,4 km/h (4 Bft) 100,00 %
05.09.2016 03:46 16,2 C 91 % 1012,6 hPa 0,0 l/m 19,7 km/h (3 Bft) SW 225 0 min 0,000 mm 0,0 UV-I 0 W/m 14,7 C 11,4 C 27,4 km/h (4 Bft) 100,00 %
05.09.2016 03:48 16,2 C 91 % 1012,6 hPa 0,0 l/m 18,4 km/h (3 Bft) W 259 0 min 0,000 mm 0,0 UV-I 0 W/m 14,7 C 11,7 C 29,0 km/h (5 Bft) 100,00 %
05.09.2016 03:50 16,3 C 91 % 1012,6 hPa 0,0 l/m 14,8 km/h (3 Bft) SW 224 0 min 0,000 mm 0,0 UV-I 0 W/m 14,8 C 12,8 C 22,5 km/h (4 Bft) 97,87 %
05.09.2016 03:52 16,3 C 91 % 1012,7 hPa 0,2 l/m 16,3 km/h (3 Bft) W 259 0 min 0,000 mm 0,0 UV-I 0 W/m 14,8 C 12,4 C 20,9 km/h (4 Bft) 95,74 %
05.09.2016 03:54 16,3 C 91 % 1012,8 hPa 0,0 l/m 20,9 km/h (4 Bft) SW 227 0 min 0,000 mm 0,0 UV-I 0 W/m 14,8 C 11,2 C 30,6 km/h (5 Bft) 100,00 %
05.09.2016 03:56 16,2 C 91 % 1012,6 hPa 0,6 l/m 16,9 km/h (3 Bft) SW 236 0 min 0,000 mm 0,0 UV-I 0 W/m 14,7 C 12,1 C 25,7 km/h (4 Bft) 100,00 %
05.09.2016 03:58 16,2 C 91 % 1012,6 hPa 1,2 l/m 16,6 km/h (3 Bft) SW 230 0 min 0,000 mm 0,0 UV-I 0 W/m 14,7 C 12,2 C 29,0 km/h (5 Bft) 100,00 %
05.09.2016 04:00 16,1 C 92 % 1012,6 hPa 0,0 l/m 16,8 km/h (3 Bft) W-SW 240 0 min 0,000 mm 0,0 UV-I 0 W/m 14,8 C 12,0 C 25,7 km/h (4 Bft) 97,87 %
05.09.2016 04:02 16,1 C 92 % 1012,6 hPa 0,0 l/m 9,4 km/h (2 Bft) SW 230 0 min 0,025 mm 0,0 UV-I 0 W/m 14,8 C 14,6 C 16,1 km/h (3 Bft) 100,00 %
05.09.2016 04:04 16,0 C 92 % 1012,5 hPa 0,0 l/m 14,6 km/h (3 Bft) SW 232 0 min 0,000 mm 0,0 UV-I 0 W/m 14,7 C 12,5 C 20,9 km/h (4 Bft) 98,00 %
05.09.2016 04:06 16,0 C 92 % 1012,5 hPa 0,0 l/m 13,3 km/h (3 Bft) S-SW 210 0 min 0,000 mm 0,0 UV-I 0 W/m 14,7 C 13,0 C 22,5 km/h (4 Bft) 100,00 %
05.09.2016 04:08 16,0 C 92 % 1012,5 hPa 0,0 l/m 12,6 km/h (3 Bft) W-SW 249 0 min 0,000 mm 0,0 UV-I 0 W/m 14,7 C 13,2 C 17,7 km/h (3 Bft) 100,00 %
05.09.2016 04:10 15,9 C 92 % 1012,6 hPa 0,2 l/m 11,5 km/h (2 Bft) W-SW 258 0 min 0,000 mm 0,0 UV-I 0 W/m 14,6 C 13,5 C 17,7 km/h (3 Bft) 97,87 %
05.09.2016 04:12 16,0 C 92 % 1013,1 hPa 0,2 l/m 8,6 km/h (2 Bft) N 355 0 min 0,000 mm 0,0 UV-I 0 W/m 14,7 C 14,9 C 17,7 km/h (3 Bft) 98,00 %
05.09.2016 04:14 15,9 C 93 % 1013,3 hPa 1,2 l/m 13,5 km/h (3 Bft) W-SW 246 0 min 0,000 mm 0,0 UV-I 0 W/m 14,8 C 12,8 C 30,6 km/h (5 Bft) 97,87 %
05.09.2016 04:16 15,7 C 91 % 1013,2 hPa 1,0 l/m 17,4 km/h (3 Bft) NW 317 0 min 0,000 mm 0,0 UV-I 0 W/m 14,2 C 11,3 C 27,4 km/h (4 Bft) 97,14 %
05.09.2016 04:18 15,4 C 90 % 1013,4 hPa 0,6 l/m 28,1 km/h (4 Bft) W-SW 246 0 min 0,000 mm 0,0 UV-I 0 W/m 13,8 C 8,6 C 51,5 km/h (7 Bft) 98,00 %
05.09.2016 04:20 15,2 C 89 % 1013,4 hPa 0,4 l/m 11,0 km/h (2 Bft) W 266 0 min 0,000 mm 0,0 UV-I 0 W/m 13,4 C 12,9 C 20,9 km/h (4 Bft) 96,00 %
05.09.2016 04:22 14,9 C 90 % 1013,2 hPa 1,0 l/m 11,5 km/h (2 Bft) NW 319 0 min 0,000 mm 0,0 UV-I 0 W/m 13,3 C 12,4 C 19,3 km/h (3 Bft) 97,87 %
05.09.2016 04:24 14,8 C 90 % 1013,2 hPa 0,4 l/m 14,2 km/h (3 Bft) W 266 0 min 0,000 mm 0,0 UV-I 0 W/m 13,2 C 11,2 C 30,6 km/h (5 Bft) 97,44 %
05.09.2016 04:26 14,7 C 90 % 1013,3 hPa 0,2 l/m 13,2 km/h (3 Bft) W-SW 243 0 min 0,000 mm 0,0 UV-I 0 W/m 13,1 C 11,5 C 22,5 km/h (4 Bft) 98,00 %
05.09.2016 04:28 14,6 C 91 % 1013,3 hPa 0,0 l/m 15,3 km/h (3 Bft) W 259 0 min 0,000 mm 0,0 UV-I 0 W/m 13,1 C 10,6 C 27,4 km/h (4 Bft) 97,87 %
05.09.2016 04:30 14,5 C 91 % 1013,3 hPa 0,0 l/m 17,8 km/h (3 Bft) W 268 0 min 0,000 mm 0,0 UV-I 0 W/m 13,0 C 9,7 C 30,6 km/h (5 Bft) 97,87 %
05.09.2016 04:32 14,4 C 91 % 1013,4 hPa 0,2 l/m 18,0 km/h (3 Bft) W 261 0 min 0,000 mm 0,0 UV-I 0 W/m 12,9 C 9,5 C 29,0 km/h (5 Bft) 97,87 %
05.09.2016 04:34 14,4 C 91 % 1013,3 hPa 0,2 l/m 16,6 km/h (3 Bft) W-SW 247 0 min 0,000 mm 0,0 UV-I 0 W/m 12,9 C 9,9 C 30,6 km/h (5 Bft) 97,87 %
05.09.2016 04:36 14,3 C 90 % 1013,3 hPa 0,4 l/m 19,6 km/h (3 Bft) W-SW 251 0 min 0,000 mm 0,0 UV-I 0 W/m 12,7 C 8,9 C 32,2 km/h (5 Bft) 97,87 %
05.09.2016 04:38 14,2 C 91 % 1013,2 hPa 0,2 l/m 18,9 km/h (3 Bft) W-SW 254 0 min 0,000 mm 0,0 UV-I 0 W/m 12,8 C 9,0 C 24,1 km/h (4 Bft) 96,00 %
05.09.2016 04:40 14,2 C 91 % 1013,2 hPa 0,0 l/m 21,1 km/h (4 Bft) W-SW 255 0 min 0,000 mm 0,0 UV-I 0 W/m 12,8 C 8,4 C 29,0 km/h (5 Bft) 98,11 %
05.09.2016 04:42 14,1 C 91 % 1013,2 hPa 0,0 l/m 19,8 km/h (3 Bft) W 279 0 min 0,000 mm 0,0 UV-I 0 W/m 12,7 C 8,6 C 27,4 km/h (4 Bft) 97,87 %
05.09.2016 04:44 14,0 C 91 % 1013,1 hPa 0,2 l/m 18,8 km/h (3 Bft) W 259 0 min 0,000 mm 0,0 UV-I 0 W/m 12,6 C 8,8 C 27,4 km/h (4 Bft) 100,00 %
05.09.2016 04:46 13,9 C 91 % 1013,1 hPa 0,0 l/m 18,9 km/h (3 Bft) W-SW 257 0 min 0,000 mm 0,0 UV-I 0 W/m 12,5 C 8,6 C 30,6 km/h (5 Bft) 100,00 %
05.09.2016 04:48 13,9 C 90 % 1013,2 hPa 0,0 l/m 24,6 km/h (4 Bft) W-SW 252 0 min 0,000 mm 0,0 UV-I 0 W/m 12,3 C 7,2 C 35,4 km/h (5 Bft) 100,00 %
05.09.2016 04:50 13,9 C 90 % 1013,3 hPa 0,2 l/m 20,4 km/h (4 Bft) SW 227 0 min 0,000 mm 0,0 UV-I 0 W/m 12,3 C 8,2 C 30,6 km/h (5 Bft) 97,87 %
05.09.2016 04:52 13,8 C 90 % 1013,4 hPa 0,0 l/m 24,2 km/h (4 Bft) W 270 0 min 0,000 mm 0,0 UV-I 0 W/m 12,2 C 7,2 C 40,2 km/h (6 Bft) 100,00 %
05.09.2016 04:54 13,8 C 90 % 1013,4 hPa 0,0 l/m 20,6 km/h (4 Bft) W 259 0 min 0,000 mm 0,0 UV-I 0 W/m 12,2 C 8,0 C 35,4 km/h (5 Bft) 97,87 %
05.09.2016 04:56 13,8 C 91 % 1013,4 hPa 0,0 l/m 19,0 km/h (3 Bft) W-SW 240 0 min 0,000 mm 0,0 UV-I 0 W/m 12,4 C 8,5 C 30,6 km/h (5 Bft) 100,00 %
05.09.2016 04:58 13,7 C 91 % 1013,4 hPa 0,0 l/m 19,5 km/h (3 Bft) W-SW 247 0 min 0,000 mm 0,0 UV-I 0 W/m 12,3 C 8,2 C 27,4 km/h (4 Bft) 98,00 %
05.09.2016 05:00 13,7 C 91 % 1013,5 hPa 0,0 l/m 15,6 km/h (3 Bft) W-SW 255 0 min 0,025 mm 0,0 UV-I 0 W/m 12,3 C 9,4 C 30,6 km/h (5 Bft) 100,00 %
05.09.2016 05:02 13,7 C 92 % 1013,5 hPa 0,0 l/m 17,0 km/h (3 Bft) SW 217 0 min 0,000 mm 0,0 UV-I 0 W/m 12,4 C 8,9 C 22,5 km/h (4 Bft) 97,87 %
05.09.2016 05:04 13,7 C 92 % 1013,4 hPa 0,2 l/m 13,6 km/h (3 Bft) W-SW 251 0 min 0,000 mm 0,0 UV-I 0 W/m 12,4 C 10,1 C 20,9 km/h (4 Bft) 97,92 %
05.09.2016 05:06 13,6 C 92 % 1013,4 hPa 0,0 l/m 11,8 km/h (2 Bft) S-SW 207 0 min 0,000 mm 0,0 UV-I 0 W/m 12,3 C 10,7 C 17,7 km/h (3 Bft) 100,00 %
05.09.2016 05:08 13,6 C 92 % 1013,5 hPa 0,0 l/m 13,9 km/h (3 Bft) W-SW 240 0 min 0,000 mm 0,0 UV-I 0 W/m 12,3 C 9,9 C 20,9 km/h (4 Bft) 98,00 %
05.09.2016 05:10 13,6 C 93 % 1013,5 hPa 0,0 l/m 14,7 km/h (3 Bft) W-SW 238 0 min 0,000 mm 0,0 UV-I 0 W/m 12,5 C 9,6 C 22,5 km/h (4 Bft) 100,00 %
05.09.2016 05:12 13,6 C 93 % 1013,5 hPa 0,0 l/m 12,0 km/h (2 Bft) SW 215 0 min 0,000 mm 0,0 UV-I 0 W/m 12,5 C 10,7 C 17,7 km/h (3 Bft) 98,00 %
05.09.2016 05:14 13,6 C 93 % 1013,4 hPa 0,0 l/m 12,0 km/h (2 Bft) W-SW 251 0 min 0,000 mm 0,0 UV-I 0 W/m 12,5 C 10,7 C 17,7 km/h (3 Bft) 100,00 %
05.09.2016 05:16 13,6 C 93 % 1013,5 hPa 0,0 l/m 13,3 km/h (3 Bft) SW 218 0 min 0,000 mm 0,0 UV-I 0 W/m 12,5 C 10,1 C 19,3 km/h (3 Bft) 100,00 %
05.09.2016 05:18 13,6 C 93 % 1013,5 hPa 0,0 l/m 12,5 km/h (3 Bft) W 261 0 min 0,000 mm 0,0 UV-I 0 W/m 12,5 C 10,5 C 17,7 km/h (3 Bft) 97,87 %
05.09.2016 05:20 13,6 C 93 % 1013,4 hPa 0,0 l/m 11,7 km/h (2 Bft) SW 225 0 min 0,000 mm 0,0 UV-I 0 W/m 12,5 C 10,8 C 17,7 km/h (3 Bft) 97,87 %
05.09.2016 05:22 13,6 C 93 % 1013,4 hPa 0,0 l/m 12,6 km/h (3 Bft) SW 231 0 min 0,000 mm 0,0 UV-I 0 W/m 12,5 C 10,4 C 17,7 km/h (3 Bft) 100,00 %
05.09.2016 05:24 13,6 C 93 % 1013,4 hPa 0,0 l/m 10,4 km/h (2 Bft) SW 225 0 min 0,000 mm 0,0 UV-I 0 W/m 12,5 C 11,4 C 16,1 km/h (3 Bft) 100,00 %
05.09.2016 05:26 13,6 C 93 % 1013,2 hPa 0,0 l/m 8,4 km/h (2 Bft) SW 216 0 min 0,000 mm 0,0 UV-I 0 W/m 12,5 C 12,4 C 16,1 km/h (3 Bft) 100,00 %
05.09.2016 05:28 13,6 C 93 % 1013,1 hPa 0,0 l/m 7,7 km/h (2 Bft) S-SW 211 0 min 0,000 mm 0,0 UV-I 0 W/m 12,5 C 12,8 C 12,9 km/h (3 Bft) 97,87 %
05.09.2016 05:30 13,6 C 93 % 1013,1 hPa 0,0 l/m 9,1 km/h (2 Bft) S-SW 196 0 min 0,000 mm 0,0 UV-I 0 W/m 12,5 C 12,0 C 14,5 km/h (3 Bft) 97,87 %
05.09.2016 05:32 13,6 C 93 % 1013,2 hPa 0,0 l/m 10,8 km/h (2 Bft) SW 217 0 min 0,000 mm 0,0 UV-I 0 W/m 12,5 C 11,2 C 17,7 km/h (3 Bft) 100,00 %
05.09.2016 05:34 13,6 C 93 % 1013,3 hPa 0,0 l/m 13,0 km/h (3 Bft) S-SW 211 0 min 0,000 mm 0,0 UV-I 0 W/m 12,5 C 10,2 C 17,7 km/h (3 Bft) 100,00 %
05.09.2016 05:36 13,7 C 93 % 1013,3 hPa 0,0 l/m 14,3 km/h (3 Bft) S-SW 202 0 min 0,000 mm 0,0 UV-I 0 W/m 12,6 C 9,9 C 20,9 km/h (4 Bft) 100,00 %
05.09.2016 05:38 13,7 C 92 % 1013,3 hPa 0,0 l/m 14,2 km/h (3 Bft) S-SW 212 0 min 0,000 mm 0,0 UV-I 0 W/m 12,4 C 9,9 C 19,3 km/h (3 Bft) 100,00 %
05.09.2016 05:40 13,7 C 92 % 1013,3 hPa 0,0 l/m 14,7 km/h (3 Bft) S-SW 197 0 min 0,000 mm 0,0 UV-I 0 W/m 12,4 C 9,7 C 20,9 km/h (4 Bft) 100,00 %
05.09.2016 05:42 13,8 C 92 % 1013,4 hPa 0,0 l/m 15,4 km/h (3 Bft) SW 225 0 min 0,000 mm 0,0 UV-I 0 W/m 12,5 C 9,6 C 22,5 km/h (4 Bft) 100,00 %
05.09.2016 05:44 13,8 C 92 % 1013,4 hPa 0,0 l/m 9,9 km/h (2 Bft) SO 138 0 min 0,000 mm 0,0 UV-I 0 W/m 12,5 C 11,8 C 14,5 km/h (3 Bft) 100,00 %
05.09.2016 05:46 13,8 C 91 % 1013,5 hPa 0,0 l/m 12,5 km/h (3 Bft) SW 223 0 min 0,000 mm 0,0 UV-I 0 W/m 12,4 C 10,7 C 19,3 km/h (3 Bft) 100,00 %
05.09.2016 05:48 13,8 C 91 % 1013,5 hPa 0,0 l/m 10,9 km/h (2 Bft) S-SW 209 0 min 0,000 mm 0,0 UV-I 0 W/m 12,4 C 11,4 C 20,9 km/h (4 Bft) 100,00 %
05.09.2016 05:50 13,8 C 91 % 1013,5 hPa 0,0 l/m 11,5 km/h (2 Bft) S-SW 194 0 min 0,000 mm 0,0 UV-I 0 W/m 12,4 C 11,1 C 22,5 km/h (4 Bft) 100,00 %
05.09.2016 05:52 13,8 C 91 % 1013,6 hPa 0,0 l/m 11,0 km/h (2 Bft) SW 219 0 min 0,000 mm 0,0 UV-I 0 W/m 12,4 C 11,3 C 16,1 km/h (3 Bft) 100,00 %
05.09.2016 05:54 13,9 C 90 % 1013,6 hPa 0,0 l/m 14,4 km/h (3 Bft) S-SW 208 0 min 0,000 mm 0,0 UV-I 0 W/m 12,3 C 10,1 C 22,5 km/h (4 Bft) 100,00 %
05.09.2016 05:56 13,9 C 90 % 1013,6 hPa 0,0 l/m 10,5 km/h (2 Bft) SW 234 0 min 0,000 mm 0,0 UV-I 0 W/m 12,3 C 11,7 C 16,1 km/h (3 Bft) 100,00 %
05.09.2016 05:58 13,9 C 90 % 1013,6 hPa 0,0 l/m 12,9 km/h (3 Bft) W-SW 252 0 min 0,000 mm 0,0 UV-I 0 W/m 12,3 C 10,6 C 20,9 km/h (4 Bft) 100,00 %
05.09.2016 06:00 13,9 C 90 % 1013,6 hPa 0,0 l/m 15,0 km/h (3 Bft) W-SW 238 0 min 0,026 mm 0,0 UV-I 0 W/m 12,3 C 9,9 C 24,1 km/h (4 Bft) 100,00 %
05.09.2016 06:02 13,9 C 90 % 1013,6 hPa 0,0 l/m 15,3 km/h (3 Bft) SW 222 0 min 0,000 mm 0,0 UV-I 0 W/m 12,3 C 9,8 C 22,5 km/h (4 Bft) 96,00 %
05.09.2016 06:04 13,9 C 90 % 1013,5 hPa 0,0 l/m 15,4 km/h (3 Bft) S-SW 205 0 min 0,000 mm 0,0 UV-I 0 W/m 12,3 C 9,7 C 22,5 km/h (4 Bft) 100,00 %
05.09.2016 06:06 14,0 C 90 % 1013,6 hPa 0,0 l/m 12,8 km/h (3 Bft) W-SW 240 0 min 0,000 mm 0,0 UV-I 0 W/m 12,4 C 10,8 C 20,9 km/h (4 Bft) 100,00 %
05.09.2016 06:08 13,9 C 91 % 1013,7 hPa 0,0 l/m 10,9 km/h (2 Bft) S-SW 203 0 min 0,000 mm 0,0 UV-I 0 W/m 12,5 C 11,5 C 19,3 km/h (3 Bft) 100,00 %
05.09.2016 06:10 14,0 C 91 % 1013,7 hPa 0,0 l/m 12,8 km/h (3 Bft) W-SW 248 0 min 0,000 mm 0,0 UV-I 0 W/m 12,6 C 10,8 C 22,5 km/h (4 Bft) 97,87 %
05.09.2016 06:12 14,0 C 91 % 1013,7 hPa 0,0 l/m 14,3 km/h (3 Bft) S 191 0 min 0,000 mm 0,0 UV-I 0 W/m 12,6 C 10,2 C 20,9 km/h (4 Bft) 97,87 %
05.09.2016 06:14 14,0 C 91 % 1013,7 hPa 0,0 l/m 11,3 km/h (2 Bft) S-SW 207 0 min 0,000 mm 0,0 UV-I 0 W/m 12,6 C 11,4 C 20,9 km/h (4 Bft) 97,87 %
05.09.2016 06:16 14,0 C 91 % 1013,7 hPa 0,0 l/m 12,6 km/h (3 Bft) W-SW 253 0 min 0,000 mm 0,0 UV-I 0 W/m 12,6 C 10,9 C 17,7 km/h (3 Bft) 97,87 %
05.09.2016 06:18 14,0 C 92 % 1013,7 hPa 0,0 l/m 12,2 km/h (2 Bft) S-SW 205 0 min 0,000 mm 0,0 UV-I 0 W/m 12,7 C 11,0 C 19,3 km/h (3 Bft) 97,87 %
05.09.2016 06:20 14,1 C 92 % 1013,7 hPa 0,0 l/m 9,1 km/h (2 Bft) S 187 0 min 0,000 mm 0,0 UV-I 0 W/m 12,8 C 12,6 C 14,5 km/h (3 Bft) 95,65 %
05.09.2016 06:22 14,1 C 92 % 1013,6 hPa 0,0 l/m 15,9 km/h (3 Bft) SW 233 0 min 0,000 mm 0,0 UV-I 0 W/m 12,8 C 9,8 C 24,1 km/h (4 Bft) 98,00 %
05.09.2016 06:24 14,2 C 92 % 1013,7 hPa 0,0 l/m 13,9 km/h (3 Bft) SW 217 0 min 0,000 mm 0,0 UV-I 0 W/m 12,9 C 10,6 C 22,5 km/h (4 Bft) 97,87 %
05.09.2016 06:26 14,2 C 92 % 1013,7 hPa 0,0 l/m 11,3 km/h (2 Bft) SW 223 0 min 0,000 mm 0,0 UV-I 0 W/m 12,9 C 11,6 C 17,7 km/h (3 Bft) 97,44 %
05.09.2016 06:28 14,2 C 92 % 1013,8 hPa 0,0 l/m 13,0 km/h (3 Bft) W 260 0 min 0,000 mm 0,0 UV-I 0 W/m 12,9 C 11,0 C 22,5 km/h (4 Bft) 97,87 %
05.09.2016 06:30 14,2 C 92 % 1013,7 hPa 0,0 l/m 10,5 km/h (2 Bft) SW 229 0 min 0,000 mm 0,0 UV-I 0 W/m 12,9 C 12,0 C 16,1 km/h (3 Bft) 89,36 %
05.09.2016 06:32 14,2 C 92 % 1013,7 hPa 0,0 l/m 14,4 km/h (3 Bft) W-SW 254 0 min 0,000 mm 0,0 UV-I 0 W/m 12,9 C 10,4 C 20,9 km/h (4 Bft) 97,87 %
05.09.2016 06:34 14,2 C 92 % 1013,7 hPa 0,0 l/m 13,7 km/h (3 Bft) SW 233 0 min 0,000 mm 0,0 UV-I 0 W/m 12,9 C 10,7 C 22,5 km/h (4 Bft) 97,87 %
05.09.2016 06:36 14,3 C 92 % 1013,8 hPa 0,0 l/m 12,8 km/h (3 Bft) SW 223 0 min 0,000 mm 0,0 UV-I 0 W/m 13,0 C 11,1 C 20,9 km/h (4 Bft) 93,62 %
05.09.2016 06:38 14,3 C 91 % 1014,0 hPa 0,0 l/m 13,9 km/h (3 Bft) W-SW 246 0 min 0,000 mm 0,0 UV-I 0 W/m 12,8 C 10,7 C 22,5 km/h (4 Bft) 93,62 %
05.09.2016 06:40 14,3 C 92 % 1014,0 hPa 0,0 l/m 9,4 km/h (2 Bft) W-SW 247 0 min 0,000 mm 0,0 UV-I 0 W/m 13,0 C 12,6 C 16,1 km/h (3 Bft) 95,74 %
05.09.2016 06:42 14,3 C 92 % 1014,0 hPa 0,0 l/m 12,7 km/h (3 Bft) SW 236 0 min 0,000 mm 0,0 UV-I 0 W/m 13,0 C 11,2 C 19,3 km/h (3 Bft) 98,04 %
05.09.2016 06:44 14,3 C 91 % 1014,0 hPa 0,0 l/m 16,4 km/h (3 Bft) W-SW 243 0 min 0,000 mm 0,0 UV-I 0 W/m 12,8 C 9,9 C 24,1 km/h (4 Bft) 97,87 %
05.09.2016 06:46 14,3 C 91 % 1014,1 hPa 0,0 l/m 11,9 km/h (2 Bft) SW 227 0 min 0,000 mm 0,0 UV-I 0 W/m 12,8 C 11,5 C 19,3 km/h (3 Bft) 93,62 %
05.09.2016 06:48 14,3 C 91 % 1014,1 hPa 0,0 l/m 16,5 km/h (3 Bft) SW 228 0 min 0,000 mm 0,0 UV-I 0 W/m 12,8 C 9,9 C 22,5 km/h (4 Bft) 98,00 %
05.09.2016 06:50 14,3 C 91 % 1014,1 hPa 0,0 l/m 12,2 km/h (2 Bft) S-SW 207 0 min 0,000 mm 0,0 UV-I 5 W/m 12,8 C 11,4 C 17,7 km/h (3 Bft) 97,14 %
05.09.2016 06:52 14,3 C 91 % 1014,1 hPa 0,0 l/m 15,1 km/h (3 Bft) SW 223 0 min 0,000 mm 0,0 UV-I 5 W/m 12,8 C 10,3 C 27,4 km/h (4 Bft) 100,00 %
05.09.2016 06:54 14,3 C 91 % 1014,1 hPa 0,0 l/m 15,6 km/h (3 Bft) S-SW 211 0 min 0,000 mm 0,0 UV-I 5 W/m 12,8 C 10,1 C 22,5 km/h (4 Bft) 100,00 %
05.09.2016 06:56 14,3 C 91 % 1014,2 hPa 0,0 l/m 14,6 km/h (3 Bft) W-SW 240 0 min 0,000 mm 0,0 UV-I 5 W/m 12,8 C 10,5 C 25,7 km/h (4 Bft) 97,87 %
05.09.2016 06:58 14,3 C 91 % 1014,2 hPa 0,0 l/m 17,8 km/h (3 Bft) S-SW 209 0 min 0,000 mm 0,0 UV-I 7 W/m 12,8 C 9,5 C 25,7 km/h (4 Bft) 100,00 %
05.09.2016 07:00 14,3 C 91 % 1014,3 hPa 0,0 l/m 18,3 km/h (3 Bft) W-SW 243 0 min 0,025 mm 0,0 UV-I 9 W/m 12,8 C 9,3 C 25,7 km/h (4 Bft) 100,00 %
05.09.2016 07:02 14,3 C 91 % 1014,3 hPa 0,0 l/m 16,5 km/h (3 Bft) SW 225 0 min 0,000 mm 0,0 UV-I 10 W/m 12,8 C 9,9 C 24,1 km/h (4 Bft) 97,92 %
05.09.2016 07:04 14,3 C 91 % 1014,3 hPa 0,0 l/m 15,6 km/h (3 Bft) SW 221 0 min 0,000 mm 0,0 UV-I 8 W/m 12,8 C 10,1 C 22,5 km/h (4 Bft) 100,00 %
05.09.2016 07:06 14,3 C 91 % 1014,4 hPa 0,0 l/m 17,0 km/h (3 Bft) W-SW 246 0 min 0,000 mm 0,0 UV-I 7 W/m 12,8 C 9,7 C 22,5 km/h (4 Bft) 100,00 %
05.09.2016 07:08 14,3 C 91 % 1014,5 hPa 0,0 l/m 21,5 km/h (4 Bft) SW 215 0 min 0,000 mm 0,0 UV-I 7 W/m 12,8 C 8,5 C 32,2 km/h (5 Bft) 100,00 %
05.09.2016 07:10 14,3 C 91 % 1014,4 hPa 0,0 l/m 19,7 km/h (3 Bft) W-SW 257 0 min 0,000 mm 0,0 UV-I 9 W/m 12,8 C 8,9 C 27,4 km/h (4 Bft) 100,00 %
05.09.2016 07:12 14,4 C 91 % 1014,4 hPa 0,0 l/m 16,9 km/h (3 Bft) W 263 0 min 0,000 mm 0,0 UV-I 13 W/m 12,9 C 9,9 C 25,7 km/h (4 Bft) 97,87 %
05.09.2016 07:14 14,4 C 91 % 1014,5 hPa 0,0 l/m 18,8 km/h (3 Bft) W-SW 238 0 min 0,000 mm 0,0 UV-I 12 W/m 12,9 C 9,3 C 29,0 km/h (5 Bft) 100,00 %
05.09.2016 07:16 14,4 C 91 % 1014,5 hPa 0,0 l/m 20,2 km/h (4 Bft) S-SW 209 0 min 0,000 mm 0,0 UV-I 10 W/m 12,9 C 8,9 C 27,4 km/h (4 Bft) 100,00 %
05.09.2016 07:18 14,4 C 91 % 1014,6 hPa 0,0 l/m 18,9 km/h (3 Bft) SW 225 0 min 0,000 mm 0,0 UV-I 11 W/m 12,9 C 9,3 C 25,7 km/h (4 Bft) 97,87 %
05.09.2016 07:20 14,4 C 91 % 1014,5 hPa 0,0 l/m 17,9 km/h (3 Bft) W-SW 237 0 min 0,000 mm 0,0 UV-I 12 W/m 12,9 C 9,6 C 24,1 km/h (4 Bft) 100,00 %
05.09.2016 07:22 14,4 C 90 % 1014,5 hPa 0,0 l/m 21,3 km/h (4 Bft) W-SW 240 0 min 0,000 mm 0,0 UV-I 12 W/m 12,8 C 8,6 C 32,2 km/h (5 Bft) 100,00 %
05.09.2016 07:24 14,5 C 90 % 1014,5 hPa 0,0 l/m 19,9 km/h (4 Bft) W 281 0 min 0,000 mm 0,0 UV-I 15 W/m 12,9 C 9,1 C 33,8 km/h (5 Bft) 100,00 %
05.09.2016 07:26 14,5 C 90 % 1014,6 hPa 0,0 l/m 18,1 km/h (3 Bft) SW 219 0 min 0,000 mm 0,0 UV-I 17 W/m 12,9 C 9,6 C 29,0 km/h (5 Bft) 100,00 %
05.09.2016 07:28 14,6 C 90 % 1014,7 hPa 0,0 l/m 19,2 km/h (3 Bft) W-SW 242 0 min 0,000 mm 0,0 UV-I 22 W/m 13,0 C 9,4 C 32,2 km/h (5 Bft) 97,87 %
05.09.2016 07:30 14,6 C 90 % 1014,5 hPa 0,0 l/m 20,8 km/h (4 Bft) S-SW 198 0 min 0,000 mm 0,0 UV-I 29 W/m 13,0 C 9,0 C 32,2 km/h (5 Bft) 97,87 %
05.09.2016 07:32 14,6 C 90 % 1014,5 hPa 0,0 l/m 23,3 km/h (4 Bft) S 181 0 min 0,000 mm 0,0 UV-I 32 W/m 13,0 C 8,4 C 35,4 km/h (5 Bft) 100,00 %
05.09.2016 07:34 14,6 C 89 % 1014,6 hPa 0,0 l/m 20,7 km/h (4 Bft) SW 228 0 min 0,000 mm 0,0 UV-I 27 W/m 12,8 C 9,1 C 27,4 km/h (4 Bft) 100,00 %
05.09.2016 07:36 14,6 C 90 % 1014,6 hPa 0,0 l/m 16,4 km/h (3 Bft) W 266 0 min 0,000 mm 0,0 UV-I 26 W/m 13,0 C 10,3 C 24,1 km/h (4 Bft) 100,00 %
05.09.2016 07:38 14,6 C 90 % 1014,7 hPa 0,0 l/m 18,9 km/h (3 Bft) W-SW 240 0 min 0,000 mm 0,0 UV-I 28 W/m 13,0 C 9,5 C 25,7 km/h (4 Bft) 100,00 %
05.09.2016 07:40 14,6 C 90 % 1014,7 hPa 0,0 l/m 19,7 km/h (3 Bft) W-SW 254 0 min 0,000 mm 0,0 UV-I 24 W/m 13,0 C 9,3 C 27,4 km/h (4 Bft) 100,00 %
05.09.2016 07:42 14,6 C 90 % 1014,8 hPa 0,0 l/m 21,1 km/h (4 Bft) SW 224 0 min 0,000 mm 0,0 UV-I 25 W/m 13,0 C 9,0 C 32,2 km/h (5 Bft) 100,00 %
05.09.2016 07:44 14,6 C 89 % 1014,8 hPa 0,0 l/m 16,4 km/h (3 Bft) W-SW 252 0 min 0,000 mm 0,0 UV-I 24 W/m 12,8 C 10,3 C 25,7 km/h (4 Bft) 100,00 %
05.09.2016 07:46 14,6 C 90 % 1014,8 hPa 0,0 l/m 18,4 km/h (3 Bft) W-SW 242 0 min 0,000 mm 0,0 UV-I 30 W/m 13,0 C 9,7 C 29,0 km/h (5 Bft) 97,92 %
05.09.2016 07:48 14,6 C 89 % 1014,7 hPa 0,0 l/m 16,8 km/h (3 Bft) SW 217 0 min 0,000 mm 0,0 UV-I 35 W/m 12,8 C 10,1 C 29,0 km/h (5 Bft) 100,00 %
05.09.2016 07:50 14,6 C 89 % 1014,7 hPa 0,0 l/m 18,9 km/h (3 Bft) S-SW 202 0 min 0,000 mm 0,0 UV-I 43 W/m 12,8 C 9,5 C 32,2 km/h (5 Bft) 100,00 %
05.09.2016 07:52 14,6 C 89 % 1014,7 hPa 0,0 l/m 18,0 km/h (3 Bft) SW 224 0 min 0,000 mm 0,0 UV-I 54 W/m 12,8 C 9,8 C 29,0 km/h (5 Bft) 98,00 %
05.09.2016 07:54 14,6 C 89 % 1014,8 hPa 0,0 l/m 17,0 km/h (3 Bft) SW 221 0 min 0,000 mm 0,0 UV-I 60 W/m 12,8 C 10,1 C 32,2 km/h (5 Bft) 100,00 %
05.09.2016 07:56 14,7 C 89 % 1014,8 hPa 0,0 l/m 16,3 km/h (3 Bft) W-SW 243 0 min 0,000 mm 0,0 UV-I 63 W/m 12,9 C 10,4 C 32,2 km/h (5 Bft) 100,00 %
05.09.2016 07:58 14,7 C 89 % 1014,8 hPa 0,0 l/m 13,7 km/h (3 Bft) SW 236 0 min 0,000 mm 0,0 UV-I 72 W/m 12,9 C 11,3 C 22,5 km/h (4 Bft) 98,00 %
05.09.2016 08:00 14,7 C 89 % 1014,8 hPa 0,0 l/m 19,7 km/h (3 Bft) SW 223 0 min 0,026 mm 0,0 UV-I 73 W/m 12,9 C 9,4 C 25,7 km/h (4 Bft) 100,00 %
05.09.2016 08:02 14,8 C 88 % 1014,9 hPa 0,0 l/m 19,8 km/h (3 Bft) W-SW 247 0 min 0,000 mm 0,0 UV-I 83 W/m 12,8 C 9,5 C 30,6 km/h (5 Bft) 100,00 %
05.09.2016 08:04 14,8 C 88 % 1014,8 hPa 0,0 l/m 18,9 km/h (3 Bft) S-SW 211 0 min 0,000 mm 0,0 UV-I 96 W/m 12,8 C 9,8 C 25,7 km/h (4 Bft) 100,00 %
05.09.2016 08:06 14,8 C 88 % 1014,8 hPa 0,0 l/m 19,3 km/h (3 Bft) W-SW 242 0 min 0,000 mm 0,0 UV-I 125 W/m 12,8 C 9,7 C 29,0 km/h (5 Bft) 100,00 %
05.09.2016 08:08 14,8 C 89 % 1014,7 hPa 0,0 l/m 20,8 km/h (4 Bft) W-SW 252 0 min 0,000 mm 0,0 UV-I 140 W/m 13,0 C 9,3 C 29,0 km/h (5 Bft) 100,00 %
05.09.2016 08:10 14,8 C 89 % 1014,8 hPa 0,0 l/m 18,6 km/h (3 Bft) SW 227 0 min 0,000 mm 0,0 UV-I 135 W/m 13,0 C 9,9 C 25,7 km/h (4 Bft) 100,00 %
05.09.2016 08:12 14,8 C 88 % 1014,7 hPa 0,0 l/m 19,0 km/h (3 Bft) SW 233 0 min 0,000 mm 0,0 UV-I 96 W/m 12,8 C 9,8 C 29,0 km/h (5 Bft) 100,00 %
05.09.2016 08:14 14,8 C 88 % 1014,8 hPa 0,0 l/m 15,7 km/h (3 Bft) W-SW 256 0 min 0,000 mm 0,0 UV-I 99 W/m 12,8 C 10,7 C 29,0 km/h (5 Bft) 100,00 %
05.09.2016 08:16 14,8 C 88 % 1015,0 hPa 0,0 l/m 21,4 km/h (4 Bft) W 261 0 min 0,000 mm 0,0 UV-I 105 W/m 12,8 C 9,1 C 29,0 km/h (5 Bft) 100,00 %
05.09.2016 08:18 14,8 C 88 % 1014,9 hPa 0,0 l/m 16,2 km/h (3 Bft) SW 235 0 min 0,000 mm 0,0 UV-I 160 W/m 12,8 C 10,6 C 27,4 km/h (4 Bft) 97,87 %
05.09.2016 08:20 14,9 C 89 % 1014,9 hPa 0,0 l/m 16,3 km/h (3 Bft) W-SW 240 0 min 0,000 mm 0,0 UV-I 147 W/m 13,1 C 10,7 C 30,6 km/h (5 Bft) 97,22 %
05.09.2016 08:22 14,9 C 88 % 1014,9 hPa 0,0 l/m 20,5 km/h (4 Bft) SW 232 0 min 0,000 mm 0,0 UV-I 140 W/m 12,9 C 9,5 C 29,0 km/h (5 Bft) 96,77 %
05.09.2016 08:24 14,9 C 88 % 1015,0 hPa 0,0 l/m 21,5 km/h (4 Bft) SW 228 0 min 0,000 mm 0,0 UV-I 105 W/m 12,9 C 9,2 C 29,0 km/h (5 Bft) 97,87 %
05.09.2016 08:26 14,9 C 88 % 1014,9 hPa 0,0 l/m 17,5 km/h (3 Bft) S-SW 204 0 min 0,000 mm 0,0 UV-I 93 W/m 12,9 C 10,3 C 25,7 km/h (4 Bft) 97,87 %
05.09.2016 08:28 14,9 C 88 % 1014,8 hPa 0,0 l/m 18,5 km/h (3 Bft) SW 223 0 min 0,000 mm 0,0 UV-I 81 W/m 12,9 C 10,0 C 30,6 km/h (5 Bft) 97,87 %
05.09.2016 08:30 14,9 C 88 % 1014,9 hPa 0,0 l/m 18,4 km/h (3 Bft) W-NW 282 0 min 0,000 mm 0,0 UV-I 79 W/m 12,9 C 10,0 C 25,7 km/h (4 Bft) 95,74 %
05.09.2016 08:32 14,9 C 88 % 1015,1 hPa 0,0 l/m 19,2 km/h (3 Bft) SW 216 0 min 0,000 mm 0,0 UV-I 117 W/m 12,9 C 9,8 C 30,6 km/h (5 Bft) 93,62 %
05.09.2016 08:34 14,9 C 88 % 1015,0 hPa 0,0 l/m 17,9 km/h (3 Bft) W-SW 254 0 min 0,000 mm 0,2 UV-I 134 W/m 12,9 C 10,2 C 25,7 km/h (4 Bft) 97,87 %
05.09.2016 08:36 14,9 C 88 % 1014,8 hPa 0,0 l/m 17,0 km/h (3 Bft) W-SW 250 0 min 0,000 mm 0,5 UV-I 159 W/m 12,9 C 10,4 C 24,1 km/h (4 Bft) 97,37 %
05.09.2016 08:38 15,0 C 88 % 1014,9 hPa 0,0 l/m 16,1 km/h (3 Bft) W-SW 250 0 min 0,000 mm 0,0 UV-I 139 W/m 13,0 C 10,8 C 24,1 km/h (4 Bft) 95,74 %
05.09.2016 08:40 15,0 C 88 % 1014,8 hPa 0,0 l/m 17,4 km/h (3 Bft) W-SW 248 0 min 0,000 mm 0,0 UV-I 102 W/m 13,0 C 10,5 C 27,4 km/h (4 Bft) 93,62 %
05.09.2016 08:42 15,0 C 88 % 1014,9 hPa 0,0 l/m 17,5 km/h (3 Bft) SW 227 0 min 0,000 mm 0,0 UV-I 95 W/m 13,0 C 10,4 C 27,4 km/h (4 Bft) 91,49 %
05.09.2016 08:44 15,0 C 88 % 1014,8 hPa 0,0 l/m 15,1 km/h (3 Bft) W-SW 244 0 min 0,000 mm 0,5 UV-I 82 W/m 13,0 C 11,2 C 24,1 km/h (4 Bft) 95,74 %
05.09.2016 08:46 15,0 C 88 % 1014,8 hPa 0,0 l/m 19,2 km/h (3 Bft) W-SW 238 0 min 0,000 mm 0,6 UV-I 111 W/m 13,0 C 10,0 C 30,6 km/h (5 Bft) 93,62 %
05.09.2016 08:48 15,0 C 88 % 1014,8 hPa 0,0 l/m 16,1 km/h (3 Bft) W-SW 242 0 min 0,000 mm 0,6 UV-I 167 W/m 13,0 C 10,8 C 24,1 km/h (4 Bft) 97,87 %
05.09.2016 08:50 15,1 C 88 % 1014,8 hPa 0,0 l/m 15,9 km/h (3 Bft) W-SW 238 0 min 0,000 mm 0,5 UV-I 139 W/m 13,1 C 11,0 C 22,5 km/h (4 Bft) 97,87 %
05.09.2016 08:52 15,1 C 88 % 1014,9 hPa 0,0 l/m 14,4 km/h (3 Bft) S-SW 212 0 min 0,000 mm 0,6 UV-I 134 W/m 13,1 C 11,5 C 22,5 km/h (4 Bft) 97,87 %
05.09.2016 08:54 15,2 C 88 % 1015,0 hPa 0,0 l/m 19,0 km/h (3 Bft) S-SW 209 0 min 0,000 mm 0,7 UV-I 160 W/m 13,2 C 10,3 C 29,0 km/h (5 Bft) 100,00 %
05.09.2016 08:56 15,2 C 88 % 1014,9 hPa 0,0 l/m 18,1 km/h (3 Bft) W-SW 250 0 min 0,000 mm 0,7 UV-I 188 W/m 13,2 C 10,5 C 25,7 km/h (4 Bft) 97,87 %
05.09.2016 08:58 15,3 C 87 % 1014,8 hPa 0,0 l/m 18,9 km/h (3 Bft) SW 228 0 min 0,000 mm 0,7 UV-I 152 W/m 13,1 C 10,4 C 27,4 km/h (4 Bft) 100,00 %
05.09.2016 09:00 15,3 C 87 % 1014,8 hPa 0,0 l/m 15,3 km/h (3 Bft) S-SW 203 0 min 0,101 mm 0,6 UV-I 138 W/m 13,1 C 11,5 C 22,5 km/h (4 Bft) 96,00 %
05.09.2016 09:02 15,3 C 88 % 1014,9 hPa 0,0 l/m 13,7 km/h (3 Bft) SW 225 0 min 0,000 mm 0,6 UV-I 128 W/m 13,3 C 12,0 C 22,5 km/h (4 Bft) 100,00 %
05.09.2016 09:04 15,4 C 87 % 1014,8 hPa 0,0 l/m 18,7 km/h (3 Bft) W 263 0 min 0,000 mm 0,6 UV-I 134 W/m 13,2 C 10,6 C 25,7 km/h (4 Bft) 100,00 %
05.09.2016 09:06 15,4 C 87 % 1014,9 hPa 0,0 l/m 14,0 km/h (3 Bft) W-SW 238 0 min 0,000 mm 0,6 UV-I 136 W/m 13,2 C 12,0 C 24,1 km/h (4 Bft) 97,87 %
05.09.2016 09:08 15,4 C 87 % 1014,9 hPa 0,0 l/m 17,4 km/h (3 Bft) W 264 0 min 0,000 mm 0,7 UV-I 153 W/m 13,2 C 11,0 C 25,7 km/h (4 Bft) 97,87 %
05.09.2016 09:10 15,4 C 87 % 1014,8 hPa 0,0 l/m 13,9 km/h (3 Bft) W-SW 241 0 min 0,000 mm 0,8 UV-I 186 W/m 13,2 C 12,0 C 24,1 km/h (4 Bft) 100,00 %
05.09.2016 09:12 15,5 C 87 % 1014,8 hPa 0,0 l/m 17,1 km/h (3 Bft) S-SW 209 0 min 0,000 mm 0,7 UV-I 178 W/m 13,3 C 11,2 C 24,1 km/h (4 Bft) 97,87 %
05.09.2016 09:14 15,6 C 87 % 1014,9 hPa 0,0 l/m 19,0 km/h (3 Bft) SW 227 0 min 0,000 mm 0,7 UV-I 150 W/m 13,4 C 10,8 C 29,0 km/h (5 Bft) 100,00 %
05.09.2016 09:16 15,6 C 86 % 1014,8 hPa 0,0 l/m 20,0 km/h (4 Bft) SW 234 0 min 0,000 mm 0,7 UV-I 142 W/m 13,3 C 10,5 C 25,7 km/h (4 Bft) 97,37 %
05.09.2016 09:18 15,6 C 86 % 1014,9 hPa 0,0 l/m 18,4 km/h (3 Bft) W-SW 240 0 min 0,000 mm 0,7 UV-I 145 W/m 13,3 C 10,9 C 27,4 km/h (4 Bft) 100,00 %
05.09.2016 09:20 15,6 C 87 % 1014,9 hPa 0,0 l/m 14,0 km/h (3 Bft) SW 215 0 min 0,000 mm 0,5 UV-I 126 W/m 13,4 C 12,2 C 20,9 km/h (4 Bft) 100,00 %
05.09.2016 09:22 15,6 C 87 % 1014,9 hPa 0,0 l/m 13,1 km/h (3 Bft) W-SW 243 0 min 0,000 mm 0,5 UV-I 105 W/m 13,4 C 12,6 C 20,9 km/h (4 Bft) 97,87 %
05.09.2016 09:24 15,6 C 87 % 1015,0 hPa 0,0 l/m 14,0 km/h (3 Bft) SW 218 0 min 0,000 mm 0,6 UV-I 138 W/m 13,4 C 12,2 C 22,5 km/h (4 Bft) 100,00 %
05.09.2016 09:26 15,6 C 87 % 1015,0 hPa 0,0 l/m 14,2 km/h (3 Bft) S-SW 196 0 min 0,000 mm 0,8 UV-I 194 W/m 13,4 C 12,2 C 20,9 km/h (4 Bft) 95,74 %
05.09.2016 09:28 15,6 C 87 % 1015,0 hPa 0,0 l/m 13,7 km/h (3 Bft) W-SW 240 0 min 0,000 mm 0,8 UV-I 197 W/m 13,4 C 12,3 C 24,1 km/h (4 Bft) 97,87 %
05.09.2016 09:30 15,7 C 87 % 1015,0 hPa 0,0 l/m 12,4 km/h (3 Bft) SW 236 0 min 0,000 mm 0,7 UV-I 183 W/m 13,5 C 12,9 C 19,3 km/h (3 Bft) 93,62 %
05.09.2016 09:32 15,7 C 87 % 1015,0 hPa 0,0 l/m 13,0 km/h (3 Bft) SW 236 0 min 0,000 mm 0,7 UV-I 169 W/m 13,5 C 12,7 C 20,9 km/h (4 Bft) 100,00 %
05.09.2016 09:34 15,7 C 87 % 1014,9 hPa 0,0 l/m 14,5 km/h (3 Bft) S 171 0 min 0,000 mm 0,6 UV-I 153 W/m 13,5 C 12,2 C 25,7 km/h (4 Bft) 97,87 %
05.09.2016 09:36 15,7 C 86 % 1015,0 hPa 0,0 l/m 17,1 km/h (3 Bft) W-SW 244 0 min 0,000 mm 0,6 UV-I 147 W/m 13,4 C 11,4 C 25,7 km/h (4 Bft) 95,74 %
05.09.2016 09:38 15,7 C 87 % 1014,9 hPa 0,0 l/m 15,3 km/h (3 Bft) S-SW 213 0 min 0,000 mm 0,6 UV-I 154 W/m 13,5 C 11,9 C 25,7 km/h (4 Bft) 97,87 %
05.09.2016 09:40 15,7 C 86 % 1015,0 hPa 0,0 l/m 14,6 km/h (3 Bft) W-SW 256 0 min 0,000 mm 0,8 UV-I 194 W/m 13,4 C 12,2 C 22,5 km/h (4 Bft) 97,92 %
05.09.2016 09:42 15,8 C 86 % 1015,1 hPa 0,0 l/m 17,1 km/h (3 Bft) W-SW 240 0 min 0,000 mm 0,6 UV-I 157 W/m 13,5 C 11,5 C 24,1 km/h (4 Bft) 100,00 %
05.09.2016 09:44 15,7 C 86 % 1015,0 hPa 0,0 l/m 14,4 km/h (3 Bft) SW 236 0 min 0,000 mm 0,5 UV-I 114 W/m 13,4 C 12,2 C 27,4 km/h (4 Bft) 100,00 %
05.09.2016 09:46 15,7 C 86 % 1015,0 hPa 0,0 l/m 17,3 km/h (3 Bft) SW 219 0 min 0,000 mm 0,5 UV-I 108 W/m 13,4 C 11,4 C 25,7 km/h (4 Bft) 96,00 %
05.09.2016 09:48 15,7 C 86 % 1015,0 hPa 0,0 l/m 18,7 km/h (3 Bft) W-SW 254 0 min 0,000 mm 0,6 UV-I 126 W/m 13,4 C 11,0 C 29,0 km/h (5 Bft) 100,00 %
05.09.2016 09:50 15,7 C 86 % 1015,1 hPa 0,0 l/m 15,5 km/h (3 Bft) W-SW 246 0 min 0,000 mm 0,6 UV-I 138 W/m 13,4 C 11,9 C 24,1 km/h (4 Bft) 97,87 %
05.09.2016 09:52 15,6 C 86 % 1015,1 hPa 0,0 l/m 15,9 km/h (3 Bft) W-SW 253 0 min 0,000 mm 0,7 UV-I 132 W/m 13,3 C 11,6 C 24,1 km/h (4 Bft) 97,87 %
05.09.2016 09:54 15,6 C 86 % 1015,1 hPa 0,0 l/m 15,1 km/h (3 Bft) SW 235 0 min 0,000 mm 0,6 UV-I 126 W/m 13,3 C 11,9 C 25,7 km/h (4 Bft) 100,00 %
05.09.2016 09:56 15,6 C 86 % 1015,1 hPa 0,0 l/m 10,7 km/h (2 Bft) SW 224 0 min 0,000 mm 0,6 UV-I 128 W/m 13,3 C 13,5 C 17,7 km/h (3 Bft) 100,00 %
05.09.2016 09:58 15,6 C 87 % 1015,0 hPa 0,0 l/m 13,3 km/h (3 Bft) W-SW 257 0 min 0,000 mm 0,7 UV-I 137 W/m 13,4 C 12,5 C 20,9 km/h (4 Bft) 100,00 %
05.09.2016 10:00 15,7 C 86 % 1015,0 hPa 0,0 l/m 17,4 km/h (3 Bft) W-SW 249 0 min 0,000 mm 0,9 UV-I 165 W/m 13,4 C 11,3 C 24,1 km/h (4 Bft) 100,00 %
05.09.2016 10:02 15,7 C 86 % 1015,1 hPa 0,0 l/m 16,2 km/h (3 Bft) W-SW 244 0 min 0,102 mm 1,0 UV-I 192 W/m 13,4 C 11,7 C 22,5 km/h (4 Bft) 100,00 %
05.09.2016 10:04 15,7 C 86 % 1015,1 hPa 0,0 l/m 13,7 km/h (3 Bft) W-SW 248 0 min 0,000 mm 1,1 UV-I 212 W/m 13,4 C 12,5 C 20,9 km/h (4 Bft) 95,74 %
05.09.2016 10:06 15,8 C 87 % 1015,1 hPa 0,0 l/m 10,5 km/h (2 Bft) W 272 0 min 0,000 mm 1,3 UV-I 234 W/m 13,6 C 13,8 C 16,1 km/h (3 Bft) 95,74 %
05.09.2016 10:08 15,9 C 87 % 1015,0 hPa 0,0 l/m 9,9 km/h (2 Bft) W 261 0 min 0,000 mm 1,3 UV-I 243 W/m 13,7 C 14,2 C 16,1 km/h (3 Bft) 97,14 %
05.09.2016 10:10 16,0 C 87 % 1015,1 hPa 0,0 l/m 9,5 km/h (2 Bft) SW 236 0 min 0,000 mm 1,1 UV-I 217 W/m 13,8 C 14,4 C 16,1 km/h (3 Bft) 100,00 %
05.09.2016 10:12 16,1 C 86 % 1015,1 hPa 0,0 l/m 11,4 km/h (2 Bft) W-SW 246 0 min 0,000 mm 1,0 UV-I 193 W/m 13,8 C 13,8 C 19,3 km/h (3 Bft) 100,00 %
05.09.2016 10:14 16,1 C 86 % 1015,0 hPa 0,0 l/m 12,0 km/h (2 Bft) SW 236 0 min 0,000 mm 1,0 UV-I 182 W/m 13,8 C 13,5 C 17,7 km/h (3 Bft) 97,92 %
05.09.2016 10:16 16,1 C 86 % 1015,1 hPa 0,0 l/m 8,6 km/h (2 Bft) W 263 0 min 0,000 mm 0,9 UV-I 162 W/m 13,8 C 15,0 C 12,9 km/h (3 Bft) 97,87 %
05.09.2016 10:18 16,1 C 86 % 1015,1 hPa 0,0 l/m 10,0 km/h (2 Bft) W-SW 238 0 min 0,000 mm 0,8 UV-I 152 W/m 13,8 C 14,3 C 16,1 km/h (3 Bft) 97,96 %
05.09.2016 10:20 16,1 C 86 % 1015,1 hPa 0,0 l/m 10,5 km/h (2 Bft) W-SW 242 0 min 0,000 mm 0,6 UV-I 126 W/m 13,8 C 14,1 C 17,7 km/h (3 Bft) 97,87 %
05.09.2016 10:22 16,1 C 85 % 1015,1 hPa 0,0 l/m 10,9 km/h (2 Bft) W-NW 301 0 min 0,000 mm 0,6 UV-I 128 W/m 13,6 C 14,0 C 16,1 km/h (3 Bft) 97,87 %
05.09.2016 10:24 16,1 C 85 % 1015,2 hPa 0,0 l/m 11,3 km/h (2 Bft) SW 236 0 min 0,000 mm 0,6 UV-I 120 W/m 13,6 C 13,8 C 19,3 km/h (3 Bft) 95,74 %
05.09.2016 10:26 16,1 C 85 % 1015,1 hPa 0,0 l/m 13,4 km/h (3 Bft) W-SW 241 0 min 0,000 mm 1,0 UV-I 190 W/m 13,6 C 13,0 C 19,3 km/h (3 Bft) 95,74 %
05.09.2016 10:28 16,1 C 83 % 1015,2 hPa 0,0 l/m 12,0 km/h (2 Bft) W-SW 248 0 min 0,000 mm 1,0 UV-I 193 W/m 13,2 C 13,5 C 16,1 km/h (3 Bft) 97,87 %
05.09.2016 10:30 16,2 C 84 % 1015,1 hPa 0,0 l/m 8,3 km/h (2 Bft) W-SW 248 0 min 0,000 mm 1,3 UV-I 239 W/m 13,5 C 15,2 C 14,5 km/h (3 Bft) 98,00 %
05.09.2016 10:32 16,2 C 83 % 1015,0 hPa 0,0 l/m 13,1 km/h (3 Bft) W 265 0 min 0,000 mm 1,2 UV-I 234 W/m 13,3 C 13,3 C 24,1 km/h (4 Bft) 97,87 %
05.09.2016 10:34 16,3 C 83 % 1015,1 hPa 0,0 l/m 10,5 km/h (2 Bft) W-SW 247 0 min 0,000 mm 1,1 UV-I 208 W/m 13,4 C 14,3 C 16,1 km/h (3 Bft) 95,74 %
05.09.2016 10:36 16,3 C 82 % 1015,1 hPa 0,0 l/m 17,6 km/h (3 Bft) W-SW 255 0 min 0,000 mm 1,5 UV-I 262 W/m 13,2 C 12,0 C 27,4 km/h (4 Bft) 97,87 %
05.09.2016 10:38 16,4 C 83 % 1015,1 hPa 0,0 l/m 10,7 km/h (2 Bft) W-SW 253 0 min 0,000 mm 1,7 UV-I 329 W/m 13,5 C 14,4 C 20,9 km/h (4 Bft) 97,87 %
05.09.2016 10:40 16,6 C 83 % 1015,0 hPa 0,0 l/m 15,4 km/h (3 Bft) W-SW 255 2 min 0,000 mm 1,9 UV-I 344 W/m 13,7 C 13,0 C 25,7 km/h (4 Bft) 95,74 %
05.09.2016 10:42 16,6 C 81 % 1015,2 hPa 0,0 l/m 21,2 km/h (4 Bft) W-SW 237 2 min 0,000 mm 2,0 UV-I 351 W/m 13,3 C 11,5 C 27,4 km/h (4 Bft) 97,87 %
05.09.2016 10:44 16,7 C 81 % 1015,2 hPa 0,0 l/m 16,0 km/h (3 Bft) W 265 2 min 0,000 mm 2,3 UV-I 406 W/m 13,4 C 13,0 C 24,1 km/h (4 Bft) 95,74 %
05.09.2016 10:46 16,9 C 82 % 1015,1 hPa 0,0 l/m 16,9 km/h (3 Bft) W 271 2 min 0,000 mm 2,2 UV-I 422 W/m 13,8 C 13,0 C 24,1 km/h (4 Bft) 95,92 %
05.09.2016 10:48 17,0 C 80 % 1015,2 hPa 0,0 l/m 14,6 km/h (3 Bft) W 266 2 min 0,000 mm 2,1 UV-I 400 W/m 13,5 C 13,7 C 22,5 km/h (4 Bft) 97,87 %
05.09.2016 10:50 17,1 C 81 % 1015,2 hPa 0,0 l/m 12,7 km/h (3 Bft) W 281 2 min 0,000 mm 1,9 UV-I 352 W/m 13,8 C 14,5 C 19,3 km/h (3 Bft) 100,00 %
05.09.2016 10:52 17,1 C 80 % 1015,2 hPa 0,0 l/m 12,7 km/h (3 Bft) W 267 0 min 0,000 mm 1,7 UV-I 305 W/m 13,6 C 14,5 C 20,9 km/h (4 Bft) 93,62 %
05.09.2016 10:54 17,1 C 79 % 1015,2 hPa 0,0 l/m 13,3 km/h (3 Bft) W 271 0 min 0,000 mm 1,2 UV-I 213 W/m 13,4 C 14,3 C 20,9 km/h (4 Bft) 100,00 %
05.09.2016 10:56 17,0 C 80 % 1015,2 hPa 0,0 l/m 10,8 km/h (2 Bft) W-SW 257 0 min 0,000 mm 1,4 UV-I 220 W/m 13,5 C 15,0 C 20,9 km/h (4 Bft) 100,00 %
05.09.2016 10:58 16,9 C 81 % 1015,3 hPa 0,0 l/m 12,1 km/h (2 Bft) W 264 0 min 0,000 mm 1,6 UV-I 265 W/m 13,6 C 14,4 C 17,7 km/h (3 Bft) 97,87 %
05.09.2016 11:00 16,9 C 80 % 1015,3 hPa 0,0 l/m 12,7 km/h (3 Bft) W 276 0 min 0,152 mm 1,7 UV-I 285 W/m 13,4 C 14,2 C 20,9 km/h (4 Bft) 98,00 %
05.09.2016 11:02 16,9 C 80 % 1015,3 hPa 0,0 l/m 15,2 km/h (3 Bft) SW 226 0 min 0,000 mm 1,7 UV-I 278 W/m 13,4 C 13,4 C 25,7 km/h (4 Bft) 100,00 %
05.09.2016 11:04 16,9 C 80 % 1015,2 hPa 0,0 l/m 14,4 km/h (3 Bft) SW 221 0 min 0,000 mm 1,7 UV-I 282 W/m 13,4 C 13,7 C 20,9 km/h (4 Bft) 100,00 %
05.09.2016 11:06 16,9 C 80 % 1015,3 hPa 0,0 l/m 15,0 km/h (3 Bft) W-SW 247 0 min 0,000 mm 1,8 UV-I 289 W/m 13,4 C 13,5 C 27,4 km/h (4 Bft) 97,87 %
05.09.2016 11:08 16,9 C 80 % 1015,3 hPa 0,0 l/m 14,6 km/h (3 Bft) W-NW 284 0 min 0,000 mm 1,7 UV-I 272 W/m 13,4 C 13,6 C 25,7 km/h (4 Bft) 95,74 %
05.09.2016 11:10 16,9 C 79 % 1015,3 hPa 0,0 l/m 12,1 km/h (2 Bft) W 259 0 min 0,000 mm 1,8 UV-I 287 W/m 13,2 C 14,4 C 20,9 km/h (4 Bft) 97,87 %
05.09.2016 11:12 16,9 C 79 % 1015,4 hPa 0,0 l/m 12,2 km/h (2 Bft) W 267 0 min 0,000 mm 1,9 UV-I 310 W/m 13,2 C 14,4 C 22,5 km/h (4 Bft) 100,00 %
05.09.2016 11:14 17,0 C 80 % 1015,4 hPa 0,0 l/m 10,4 km/h (2 Bft) W 262 0 min 0,000 mm 2,0 UV-I 316 W/m 13,5 C 15,2 C 20,9 km/h (4 Bft) 100,00 %
05.09.2016 11:16 17,0 C 79 % 1015,4 hPa 0,0 l/m 18,5 km/h (3 Bft) W-SW 257 0 min 0,000 mm 1,9 UV-I 302 W/m 13,3 C 12,7 C 30,6 km/h (5 Bft) 95,74 %
05.09.2016 11:18 17,0 C 78 % 1015,4 hPa 0,0 l/m 20,6 km/h (4 Bft) W-SW 253 0 min 0,000 mm 2,0 UV-I 310 W/m 13,1 C 12,2 C 29,0 km/h (5 Bft) 100,00 %
05.09.2016 11:20 16,9 C 78 % 1015,4 hPa 0,0 l/m 13,7 km/h (3 Bft) W-SW 252 0 min 0,000 mm 2,1 UV-I 327 W/m 13,0 C 13,9 C 24,1 km/h (4 Bft) 100,00 %
05.09.2016 11:22 16,9 C 79 % 1015,4 hPa 0,0 l/m 15,4 km/h (3 Bft) SW 217 0 min 0,000 mm 2,1 UV-I 336 W/m 13,2 C 13,4 C 20,9 km/h (4 Bft) 100,00 %
05.09.2016 11:24 17,0 C 79 % 1015,5 hPa 0,0 l/m 19,2 km/h (3 Bft) S-SW 202 0 min 0,000 mm 2,1 UV-I 333 W/m 13,3 C 12,5 C 27,4 km/h (4 Bft) 100,00 %
05.09.2016 11:26 17,1 C 79 % 1015,4 hPa 0,0 l/m 14,7 km/h (3 Bft) W-SW 255 0 min 0,000 mm 2,1 UV-I 317 W/m 13,4 C 13,8 C 24,1 km/h (4 Bft) 100,00 %
05.09.2016 11:28 17,1 C 80 % 1015,4 hPa 0,0 l/m 14,6 km/h (3 Bft) S 184 0 min 0,000 mm 2,2 UV-I 307 W/m 13,6 C 13,9 C 25,7 km/h (4 Bft) 100,00 %
05.09.2016 11:30 17,2 C 78 % 1015,4 hPa 0,0 l/m 15,9 km/h (3 Bft) W 269 0 min 0,000 mm 2,3 UV-I 325 W/m 13,3 C 13,6 C 24,1 km/h (4 Bft) 100,00 %
05.09.2016 11:32 17,2 C 79 % 1015,3 hPa 0,0 l/m 14,2 km/h (3 Bft) W-SW 244 0 min 0,000 mm 2,5 UV-I 366 W/m 13,5 C 14,1 C 22,5 km/h (4 Bft) 100,00 %
05.09.2016 11:34 17,2 C 77 % 1015,4 hPa 0,0 l/m 14,8 km/h (3 Bft) W 265 0 min 0,000 mm 2,4 UV-I 369 W/m 13,1 C 13,9 C 24,1 km/h (4 Bft) 100,00 %
05.09.2016 11:36 17,2 C 78 % 1015,3 hPa 0,0 l/m 11,6 km/h (2 Bft) SW 229 0 min 0,000 mm 2,2 UV-I 341 W/m 13,3 C 14,9 C 20,9 km/h (4 Bft) 100,00 %
05.09.2016 11:38 17,3 C 78 % 1015,4 hPa 0,0 l/m 17,1 km/h (3 Bft) SW 234 0 min 0,000 mm 1,9 UV-I 300 W/m 13,4 C 13,4 C 24,1 km/h (4 Bft) 95,74 %
05.09.2016 11:40 17,2 C 78 % 1015,3 hPa 0,0 l/m 9,4 km/h (2 Bft) S-SW 194 0 min 0,000 mm 1,4 UV-I 220 W/m 13,3 C 15,8 C 16,1 km/h (3 Bft) 97,92 %
05.09.2016 11:42 17,2 C 78 % 1015,3 hPa 0,0 l/m 11,7 km/h (2 Bft) W 260 0 min 0,000 mm 1,2 UV-I 197 W/m 13,3 C 14,9 C 22,5 km/h (4 Bft) 97,87 %
05.09.2016 11:44 17,2 C 78 % 1015,3 hPa 0,0 l/m 11,1 km/h (2 Bft) W 263 0 min 0,000 mm 1,0 UV-I 156 W/m 13,3 C 15,1 C 19,3 km/h (3 Bft) 94,74 %
05.09.2016 11:46 17,2 C 78 % 1015,3 hPa 0,0 l/m 12,7 km/h (3 Bft) S-SW 200 0 min 0,000 mm 0,9 UV-I 139 W/m 13,3 C 14,6 C 24,1 km/h (4 Bft) 100,00 %
05.09.2016 11:48 17,1 C 78 % 1015,4 hPa 0,0 l/m 14,7 km/h (3 Bft) W-SW 246 0 min 0,000 mm 0,8 UV-I 111 W/m 13,2 C 13,8 C 20,9 km/h (4 Bft) 100,00 %
05.09.2016 11:50 17,0 C 78 % 1015,3 hPa 0,0 l/m 16,2 km/h (3 Bft) W-SW 238 0 min 0,000 mm 0,7 UV-I 106 W/m 13,1 C 13,3 C 22,5 km/h (4 Bft) 95,74 %
05.09.2016 11:52 16,9 C 78 % 1015,3 hPa 0,0 l/m 11,6 km/h (2 Bft) W-SW 240 0 min 0,000 mm 1,0 UV-I 137 W/m 13,0 C 14,6 C 17,7 km/h (3 Bft) 97,87 %
05.09.2016 11:54 16,9 C 78 % 1015,4 hPa 0,0 l/m 16,6 km/h (3 Bft) W-SW 258 0 min 0,000 mm 1,5 UV-I 190 W/m 13,0 C 13,0 C 24,1 km/h (4 Bft) 100,00 %
05.09.2016 11:56 17,0 C 78 % 1015,3 hPa 0,0 l/m 14,5 km/h (3 Bft) W-SW 244 0 min 0,000 mm 1,5 UV-I 218 W/m 13,1 C 13,8 C 22,5 km/h (4 Bft) 97,14 %
05.09.2016 11:58 17,1 C 77 % 1015,4 hPa 0,0 l/m 14,7 km/h (3 Bft) W-SW 250 0 min 0,000 mm 1,3 UV-I 194 W/m 13,0 C 13,8 C 22,5 km/h (4 Bft) 100,00 %
05.09.2016 12:00 17,1 C 77 % 1015,3 hPa 0,0 l/m 19,0 km/h (3 Bft) W-SW 257 0 min 0,178 mm 1,2 UV-I 176 W/m 13,0 C 12,7 C 25,7 km/h (4 Bft) 97,37 %
05.09.2016 12:02 17,1 C 76 % 1015,4 hPa 0,0 l/m 20,1 km/h (4 Bft) W-SW 244 0 min 0,000 mm 1,0 UV-I 152 W/m 12,8 C 12,4 C 32,2 km/h (5 Bft) 100,00 %
05.09.2016 12:04 17,2 C 76 % 1015,3 hPa 0,0 l/m 20,2 km/h (4 Bft) W 262 0 min 0,000 mm 1,2 UV-I 175 W/m 12,9 C 12,5 C 27,4 km/h (4 Bft) 100,00 %
05.09.2016 12:06 17,2 C 75 % 1015,3 hPa 0,0 l/m 21,4 km/h (4 Bft) W-SW 246 0 min 0,000 mm 1,1 UV-I 159 W/m 12,7 C 12,3 C 30,6 km/h (5 Bft) 100,00 %
05.09.2016 12:08 17,2 C 76 % 1015,3 hPa 0,0 l/m 15,3 km/h (3 Bft) S-SW 205 0 min 0,000 mm 1,1 UV-I 166 W/m 12,9 C 13,8 C 27,4 km/h (4 Bft) 100,00 %
05.09.2016 12:10 17,1 C 76 % 1015,4 hPa 0,0 l/m 21,9 km/h (4 Bft) W-SW 240 0 min 0,000 mm 1,0 UV-I 141 W/m 12,8 C 12,1 C 29,0 km/h (5 Bft) 100,00 %
05.09.2016 12:12 17,0 C 77 % 1015,3 hPa 0,0 l/m 19,8 km/h (3 Bft) W 263 0 min 0,000 mm 0,8 UV-I 114 W/m 12,9 C 12,4 C 37,0 km/h (5 Bft) 97,87 %
05.09.2016 12:14 16,9 C 77 % 1015,4 hPa 0,0 l/m 20,5 km/h (4 Bft) SW 233 0 min 0,000 mm 0,8 UV-I 118 W/m 12,8 C 12,1 C 27,4 km/h (4 Bft) 97,44 %
05.09.2016 12:16 16,8 C 77 % 1015,3 hPa 0,0 l/m 20,7 km/h (4 Bft) W 273 0 min 0,000 mm 1,2 UV-I 163 W/m 12,7 C 11,9 C 32,2 km/h (5 Bft) 97,87 %
05.09.2016 12:18 16,8 C 78 % 1015,3 hPa 0,0 l/m 16,9 km/h (3 Bft) W 272 0 min 0,000 mm 1,6 UV-I 222 W/m 12,9 C 12,8 C 24,1 km/h (4 Bft) 97,87 %
05.09.2016 12:20 16,8 C 78 % 1015,4 hPa 0,0 l/m 8,5 km/h (2 Bft) W 275 0 min 0,000 mm 1,9 UV-I 258 W/m 12,9 C 15,8 C 14,5 km/h (3 Bft) 98,11 %
05.09.2016 12:22 16,8 C 79 % 1015,4 hPa 0,0 l/m 10,0 km/h (2 Bft) SW 217 0 min 0,000 mm 2,0 UV-I 277 W/m 13,1 C 15,1 C 19,3 km/h (3 Bft) 97,87 %
05.09.2016 12:24 16,9 C 78 % 1015,5 hPa 0,0 l/m 12,1 km/h (2 Bft) W-SW 251 0 min 0,000 mm 2,1 UV-I 312 W/m 13,0 C 14,4 C 19,3 km/h (3 Bft) 95,74 %
05.09.2016 12:26 17,1 C 77 % 1015,4 hPa 0,0 l/m 9,2 km/h (2 Bft) W 263 0 min 0,000 mm 2,2 UV-I 322 W/m 13,0 C 15,8 C 20,9 km/h (4 Bft) 97,87 %
05.09.2016 12:28 17,2 C 77 % 1015,4 hPa 0,0 l/m 11,0 km/h (2 Bft) W-SW 242 0 min 0,000 mm 2,1 UV-I 305 W/m 13,1 C 15,2 C 17,7 km/h (3 Bft) 98,00 %
05.09.2016 12:30 17,3 C 77 % 1015,3 hPa 0,0 l/m 10,5 km/h (2 Bft) W-NW 286 0 min 0,000 mm 1,9 UV-I 262 W/m 13,2 C 15,5 C 24,1 km/h (4 Bft) 97,87 %
05.09.2016 12:32 17,4 C 75 % 1015,4 hPa 0,0 l/m 16,9 km/h (3 Bft) W-SW 240 0 min 0,000 mm 1,7 UV-I 237 W/m 12,9 C 13,6 C 30,6 km/h (5 Bft) 97,87 %
05.09.2016 12:34 17,4 C 75 % 1015,3 hPa 0,0 l/m 17,5 km/h (3 Bft) W 259 0 min 0,000 mm 1,5 UV-I 202 W/m 12,9 C 13,4 C 29,0 km/h (5 Bft) 97,87 %
05.09.2016 12:36 17,4 C 75 % 1015,3 hPa 0,0 l/m 12,0 km/h (2 Bft) W-SW 239 0 min 0,000 mm 1,1 UV-I 156 W/m 12,9 C 15,0 C 17,7 km/h (3 Bft) 95,74 %
05.09.2016 12:38 17,4 C 75 % 1015,2 hPa 0,0 l/m 12,9 km/h (3 Bft) W 267 0 min 0,000 mm 0,9 UV-I 133 W/m 12,9 C 14,7 C 22,5 km/h (4 Bft) 97,87 %
05.09.2016 12:40 17,3 C 77 % 1015,2 hPa 0,0 l/m 11,3 km/h (2 Bft) W-SW 242 0 min 0,000 mm 0,7 UV-I 101 W/m 13,2 C 15,2 C 19,3 km/h (3 Bft) 93,62 %
05.09.2016 12:42 17,3 C 75 % 1015,1 hPa 0,0 l/m 15,4 km/h (3 Bft) W-SW 242 0 min 0,000 mm 0,6 UV-I 88 W/m 12,8 C 13,9 C 22,5 km/h (4 Bft) 100,00 %
05.09.2016 12:44 17,3 C 76 % 1015,2 hPa 0,0 l/m 13,7 km/h (3 Bft) W 264 0 min 0,000 mm 0,8 UV-I 117 W/m 13,0 C 14,4 C 22,5 km/h (4 Bft) 95,74 %
05.09.2016 12:46 17,3 C 76 % 1015,2 hPa 0,0 l/m 13,6 km/h (3 Bft) W-SW 242 0 min 0,000 mm 1,2 UV-I 167 W/m 13,0 C 14,4 C 35,4 km/h (5 Bft) 100,00 %
05.09.2016 12:48 17,3 C 74 % 1015,1 hPa 0,0 l/m 16,6 km/h (3 Bft) SW 225 0 min 0,000 mm 1,6 UV-I 235 W/m 12,6 C 13,5 C 32,2 km/h (5 Bft) 100,00 %
05.09.2016 12:50 17,3 C 74 % 1015,2 hPa 0,0 l/m 14,4 km/h (3 Bft) W 266 0 min 0,000 mm 1,6 UV-I 240 W/m 12,6 C 14,2 C 22,5 km/h (4 Bft) 100,00 %
05.09.2016 12:52 17,4 C 75 % 1015,2 hPa 0,0 l/m 10,9 km/h (2 Bft) NW 308 0 min 0,000 mm 1,3 UV-I 189 W/m 12,9 C 15,4 C 22,5 km/h (4 Bft) 100,00 %
05.09.2016 12:54 17,3 C 74 % 1015,3 hPa 0,0 l/m 14,8 km/h (3 Bft) SW 226 0 min 0,000 mm 1,2 UV-I 162 W/m 12,6 C 14,0 C 25,7 km/h (4 Bft) 100,00 %
05.09.2016 12:56 17,3 C 75 % 1015,2 hPa 0,0 l/m 12,4 km/h (3 Bft) W-SW 248 0 min 0,000 mm 1,2 UV-I 171 W/m 12,8 C 14,8 C 22,5 km/h (4 Bft) 100,00 %
05.09.2016 12:58 17,3 C 75 % 1015,2 hPa 0,0 l/m 11,6 km/h (2 Bft) W-SW 244 0 min 0,000 mm 1,3 UV-I 176 W/m 12,8 C 15,1 C 22,5 km/h (4 Bft) 100,00 %
05.09.2016 13:00 17,3 C 74 % 1015,2 hPa 0,0 l/m 11,4 km/h (2 Bft) W-SW 254 0 min 0,000 mm 1,2 UV-I 168 W/m 12,6 C 15,1 C 17,7 km/h (3 Bft) 100,00 %
05.09.2016 13:02 17,2 C 76 % 1015,2 hPa 0,0 l/m 9,9 km/h (2 Bft) W-SW 246 0 min 0,152 mm 1,0 UV-I 143 W/m 12,9 C 15,6 C 17,7 km/h (3 Bft) 100,00 %
05.09.2016 13:04 17,1 C 77 % 1015,3 hPa 0,0 l/m 7,7 km/h (2 Bft) W 277 0 min 0,000 mm 0,7 UV-I 105 W/m 13,0 C 16,5 C 16,1 km/h (3 Bft) 100,00 %
05.09.2016 13:06 16,9 C 79 % 1015,3 hPa 0,2 l/m 11,9 km/h (2 Bft) N-NO 19 0 min 0,000 mm 0,6 UV-I 83 W/m 13,2 C 14,5 C 20,9 km/h (4 Bft) 100,00 %
05.09.2016 13:08 16,8 C 80 % 1015,2 hPa 0,0 l/m 8,0 km/h (2 Bft) W-NW 286 0 min 0,000 mm 0,8 UV-I 103 W/m 13,3 C 16,0 C 14,5 km/h (3 Bft) 100,00 %
05.09.2016 13:10 16,6 C 82 % 1015,2 hPa 0,0 l/m 4,0 km/h (1 Bft) W 273 0 min 0,000 mm 0,9 UV-I 119 W/m 13,5 C 16,6 C 12,9 km/h (3 Bft) 100,00 %
05.09.2016 13:12 16,4 C 82 % 1015,2 hPa 0,0 l/m 4,4 km/h (1 Bft) NW 315 0 min 0,000 mm 1,0 UV-I 133 W/m 13,3 C 16,4 C 8,0 km/h (2 Bft) 100,00 %
05.09.2016 13:14 16,4 C 82 % 1015,2 hPa 0,0 l/m 2,3 km/h (1 Bft) W 265 0 min 0,000 mm 0,8 UV-I 109 W/m 13,3 C 16,4 C 4,8 km/h (1 Bft) 97,87 %
05.09.2016 13:16 16,3 C 83 % 1015,2 hPa 0,0 l/m 2,0 km/h (1 Bft) W-SW 252 0 min 0,000 mm 0,6 UV-I 93 W/m 13,4 C 16,3 C 4,8 km/h (1 Bft) 100,00 %
05.09.2016 13:18 16,3 C 84 % 1015,2 hPa 0,0 l/m 1,8 km/h (1 Bft) S-SW 197 0 min 0,000 mm 0,7 UV-I 106 W/m 13,6 C 16,3 C 4,8 km/h (1 Bft) 100,00 %
05.09.2016 13:20 16,3 C 85 % 1015,2 hPa 0,0 l/m 6,0 km/h (2 Bft) W-SW 240 0 min 0,000 mm 0,3 UV-I 71 W/m 13,8 C 16,3 C 8,0 km/h (2 Bft) 97,87 %
05.09.2016 13:22 16,3 C 85 % 1015,2 hPa 0,0 l/m 5,7 km/h (1 Bft) W-SW 248 0 min 0,000 mm 0,9 UV-I 134 W/m 13,8 C 16,3 C 9,7 km/h (2 Bft) 100,00 %
05.09.2016 13:24 16,4 C 85 % 1015,2 hPa 0,0 l/m 4,8 km/h (1 Bft) W 267 0 min 0,000 mm 1,1 UV-I 152 W/m 13,9 C 16,4 C 6,4 km/h (2 Bft) 95,74 %
05.09.2016 13:26 16,4 C 86 % 1015,3 hPa 0,0 l/m 5,2 km/h (1 Bft) W 259 0 min 0,000 mm 1,1 UV-I 165 W/m 14,1 C 16,4 C 11,3 km/h (2 Bft) 100,00 %
05.09.2016 13:28 16,5 C 85 % 1015,2 hPa 0,0 l/m 5,9 km/h (2 Bft) SW 230 0 min 0,000 mm 1,7 UV-I 233 W/m 14,0 C 16,5 C 9,7 km/h (2 Bft) 98,00 %
05.09.2016 13:30 16,6 C 85 % 1015,1 hPa 0,0 l/m 7,2 km/h (2 Bft) S-SW 209 0 min 0,000 mm 2,0 UV-I 272 W/m 14,1 C 16,2 C 11,3 km/h (2 Bft) 100,00 %
05.09.2016 13:32 16,8 C 84 % 1015,1 hPa 0,0 l/m 9,4 km/h (2 Bft) S 173 0 min 0,000 mm 2,4 UV-I 358 W/m 14,1 C 15,4 C 14,5 km/h (3 Bft) 98,04 %
05.09.2016 13:34 17,1 C 82 % 1015,1 hPa 0,0 l/m 12,6 km/h (3 Bft) W-SW 251 2 min 0,000 mm 2,8 UV-I 410 W/m 14,0 C 14,5 C 19,3 km/h (3 Bft) 100,00 %
05.09.2016 13:36 17,4 C 80 % 1015,1 hPa 0,0 l/m 12,5 km/h (3 Bft) W-SW 246 2 min 0,000 mm 3,0 UV-I 546 W/m 13,9 C 14,9 C 24,1 km/h (4 Bft) 100,00 %
05.09.2016 13:38 17,7 C 80 % 1015,1 hPa 0,0 l/m 5,2 km/h (1 Bft) W-NW 291 2 min 0,000 mm 2,2 UV-I 710 W/m 14,2 C 17,7 C 11,3 km/h (2 Bft) 97,87 %
05.09.2016 13:40 17,8 C 82 % 1015,0 hPa 0,0 l/m 3,0 km/h (1 Bft) N-NW 331 0 min 0,000 mm 1,5 UV-I 302 W/m 14,7 C 17,8 C 9,7 km/h (2 Bft) 100,00 %
05.09.2016 13:42 17,6 C 81 % 1015,1 hPa 0,0 l/m 6,5 km/h (2 Bft) N-NW 329 0 min 0,000 mm 1,2 UV-I 179 W/m 14,3 C 17,6 C 12,9 km/h (3 Bft) 100,00 %
05.09.2016 13:44 17,3 C 82 % 1015,0 hPa 0,0 l/m 4,7 km/h (1 Bft) NW 323 0 min 0,000 mm 0,6 UV-I 105 W/m 14,2 C 17,3 C 12,9 km/h (3 Bft) 100,00 %
05.09.2016 13:46 17,2 C 82 % 1015,2 hPa 0,0 l/m 5,3 km/h (1 Bft) W-NW 290 0 min 0,000 mm 0,1 UV-I 57 W/m 14,1 C 17,2 C 12,9 km/h (3 Bft) 100,00 %
05.09.2016 13:48 17,0 C 83 % 1015,4 hPa 0,4 l/m 6,7 km/h (2 Bft) W 266 0 min 0,000 mm 0,0 UV-I 38 W/m 14,1 C 16,9 C 16,1 km/h (3 Bft) 100,00 %
05.09.2016 13:50 16,7 C 84 % 1015,5 hPa 1,6 l/m 10,5 km/h (2 Bft) SW 232 0 min 0,000 mm 0,0 UV-I 39 W/m 14,0 C 14,8 C 27,4 km/h (4 Bft) 100,00 %
05.09.2016 13:52 16,2 C 85 % 1015,6 hPa 0,4 l/m 11,5 km/h (2 Bft) W 263 0 min 0,000 mm 0,0 UV-I 42 W/m 13,7 C 13,8 C 19,3 km/h (3 Bft) 100,00 %
05.09.2016 13:54 15,8 C 86 % 1015,6 hPa 0,2 l/m 12,6 km/h (3 Bft) SW 232 0 min 0,000 mm 0,0 UV-I 40 W/m 13,5 C 13,0 C 25,7 km/h (4 Bft) 100,00 %
05.09.2016 13:56 15,6 C 88 % 1015,6 hPa 0,2 l/m 13,2 km/h (3 Bft) W 261 0 min 0,000 mm 0,0 UV-I 31 W/m 13,6 C 12,5 C 19,3 km/h (3 Bft) 100,00 %
05.09.2016 13:58 15,3 C 88 % 1015,5 hPa 0,0 l/m 13,7 km/h (3 Bft) S-SW 195 0 min 0,000 mm 0,0 UV-I 47 W/m 13,3 C 12,0 C 20,9 km/h (4 Bft) 100,00 %
05.09.2016 14:00 15,2 C 88 % 1015,5 hPa 0,0 l/m 9,5 km/h (2 Bft) W 262 0 min 0,000 mm 0,7 UV-I 89 W/m 13,2 C 13,6 C 19,3 km/h (3 Bft) 100,00 %
05.09.2016 14:02 15,1 C 89 % 1015,5 hPa 0,0 l/m 10,3 km/h (2 Bft) W-SW 252 0 min 0,102 mm 0,8 UV-I 108 W/m 13,3 C 13,1 C 16,1 km/h (3 Bft) 100,00 %
05.09.2016 14:04 15,1 C 90 % 1015,5 hPa 0,0 l/m 8,5 km/h (2 Bft) W-SW 248 0 min 0,000 mm 1,0 UV-I 131 W/m 13,5 C 13,9 C 16,1 km/h (3 Bft) 98,21 %
05.09.2016 14:06 15,1 C 91 % 1015,5 hPa 0,0 l/m 7,3 km/h (2 Bft) W 261 0 min 0,000 mm 1,4 UV-I 186 W/m 13,6 C 14,6 C 11,3 km/h (2 Bft) 100,00 %
05.09.2016 14:08 15,1 C 92 % 1015,5 hPa 0,0 l/m 9,0 km/h (2 Bft) W-SW 244 0 min 0,000 mm 2,1 UV-I 266 W/m 13,8 C 13,7 C 19,3 km/h (3 Bft) 95,74 %
05.09.2016 14:10 15,2 C 91 % 1015,5 hPa 0,0 l/m 7,0 km/h (2 Bft) W-SW 237 0 min 0,000 mm 2,0 UV-I 280 W/m 13,7 C 14,9 C 11,3 km/h (2 Bft) 97,44 %
05.09.2016 14:12 15,3 C 91 % 1015,5 hPa 0,0 l/m 7,3 km/h (2 Bft) W 273 0 min 0,000 mm 2,0 UV-I 275 W/m 13,8 C 14,8 C 16,1 km/h (3 Bft) 97,87 %
05.09.2016 14:14 15,4 C 91 % 1015,4 hPa 0,0 l/m 6,8 km/h (2 Bft) W-SW 255 0 min 0,000 mm 2,0 UV-I 288 W/m 13,9 C 15,2 C 11,3 km/h (2 Bft) 97,87 %
05.09.2016 14:16 15,5 C 91 % 1015,4 hPa 0,0 l/m 8,9 km/h (2 Bft) W 279 0 min 0,000 mm 1,9 UV-I 271 W/m 14,0 C 14,2 C 12,9 km/h (3 Bft) 97,96 %
05.09.2016 14:18 15,6 C 91 % 1015,4 hPa 0,0 l/m 7,2 km/h (2 Bft) W 267 0 min 0,000 mm 1,4 UV-I 206 W/m 14,1 C 15,2 C 14,5 km/h (3 Bft) 98,00 %
05.09.2016 14:20 15,7 C 91 % 1015,4 hPa 0,0 l/m 7,0 km/h (2 Bft) W-SW 244 0 min 0,000 mm 1,2 UV-I 168 W/m 14,2 C 15,4 C 14,5 km/h (3 Bft) 97,87 %
05.09.2016 14:22 15,7 C 91 % 1015,5 hPa 0,0 l/m 6,5 km/h (2 Bft) W 267 0 min 0,000 mm 1,3 UV-I 186 W/m 14,2 C 15,7 C 12,9 km/h (3 Bft) 95,74 %
05.09.2016 14:24 15,8 C 90 % 1015,5 hPa 0,0 l/m 4,9 km/h (1 Bft) W 263 0 min 0,000 mm 1,9 UV-I 241 W/m 14,2 C 15,8 C 12,9 km/h (3 Bft) 95,74 %
05.09.2016 14:26 15,9 C 91 % 1015,5 hPa 0,0 l/m 6,4 km/h (2 Bft) W 260 0 min 0,000 mm 2,7 UV-I 298 W/m 14,4 C 15,9 C 12,9 km/h (3 Bft) 97,87 %
05.09.2016 14:28 16,2 C 91 % 1015,5 hPa 0,0 l/m 8,7 km/h (2 Bft) W-NW 282 2 min 0,000 mm 4,0 UV-I 659 W/m 14,7 C 15,0 C 16,1 km/h (3 Bft) 97,87 %
05.09.2016 14:30 16,7 C 90 % 1015,5 hPa 0,0 l/m 3,3 km/h (1 Bft) W-NW 286 2 min 0,000 mm 3,9 UV-I 863 W/m 15,0 C 16,7 C 6,4 km/h (2 Bft) 97,50 %
05.09.2016 14:32 16,9 C 88 % 1015,5 hPa 0,0 l/m 6,1 km/h (2 Bft) W-NW 290 2 min 0,000 mm 2,9 UV-I 841 W/m 14,9 C 16,9 C 14,5 km/h (3 Bft) 95,92 %
05.09.2016 14:34 17,1 C 87 % 1015,5 hPa 0,0 l/m 6,6 km/h (2 Bft) W 275 0 min 0,000 mm 3,2 UV-I 362 W/m 14,9 C 17,0 C 19,3 km/h (3 Bft) 95,74 %
05.09.2016 14:36 17,1 C 87 % 1015,5 hPa 0,0 l/m 6,2 km/h (2 Bft) SW 234 0 min 0,000 mm 3,4 UV-I 362 W/m 14,9 C 17,1 C 16,1 km/h (3 Bft) 95,74 %
05.09.2016 14:38 17,4 C 89 % 1015,5 hPa 0,0 l/m 5,1 km/h (1 Bft) W-NW 298 2 min 0,000 mm 3,9 UV-I 710 W/m 15,6 C 17,4 C 12,9 km/h (3 Bft) 95,74 %
05.09.2016 14:40 17,7 C 85 % 1015,5 hPa 0,0 l/m 11,7 km/h (2 Bft) W 270 2 min 0,000 mm 3,7 UV-I 736 W/m 15,1 C 15,5 C 19,3 km/h (3 Bft) 95,92 %
05.09.2016 14:42 17,7 C 85 % 1015,5 hPa 0,0 l/m 7,6 km/h (2 Bft) O-NO 72 2 min 0,000 mm 3,1 UV-I 772 W/m 15,1 C 17,1 C 11,3 km/h (2 Bft) 93,62 %
05.09.2016 14:44 17,6 C 85 % 1015,5 hPa 0,0 l/m 8,2 km/h (2 Bft) W-SW 250 0 min 0,000 mm 2,5 UV-I 348 W/m 15,0 C 16,7 C 14,5 km/h (3 Bft) 97,87 %
05.09.2016 14:46 17,5 C 84 % 1015,6 hPa 0,0 l/m 6,7 km/h (2 Bft) W 269 0 min 0,000 mm 2,6 UV-I 312 W/m 14,8 C 17,4 C 16,1 km/h (3 Bft) 97,87 %
05.09.2016 14:48 17,3 C 84 % 1015,6 hPa 0,0 l/m 9,8 km/h (2 Bft) SW 231 0 min 0,000 mm 2,3 UV-I 262 W/m 14,6 C 15,7 C 17,7 km/h (3 Bft) 97,87 %
05.09.2016 14:50 17,3 C 85 % 1015,6 hPa 0,0 l/m 10,1 km/h (2 Bft) W-SW 250 0 min 0,000 mm 2,3 UV-I 257 W/m 14,8 C 15,6 C 19,3 km/h (3 Bft) 97,87 %
05.09.2016 14:52 17,2 C 83 % 1015,6 hPa 0,0 l/m 10,6 km/h (2 Bft) W 259 0 min 0,000 mm 2,4 UV-I 256 W/m 14,3 C 15,3 C 19,3 km/h (3 Bft) 100,00 %
05.09.2016 14:54 17,2 C 82 % 1015,6 hPa 0,0 l/m 11,4 km/h (2 Bft) W-NW 287 0 min 0,000 mm 2,3 UV-I 257 W/m 14,1 C 15,0 C 19,3 km/h (3 Bft) 100,00 %
05.09.2016 14:56 17,2 C 81 % 1015,6 hPa 0,0 l/m 12,0 km/h (2 Bft) W 270 0 min 0,000 mm 2,6 UV-I 308 W/m 13,9 C 14,8 C 20,9 km/h (4 Bft) 100,00 %
05.09.2016 14:58 17,3 C 81 % 1015,6 hPa 0,0 l/m 10,5 km/h (2 Bft) W 281 2 min 0,000 mm 2,8 UV-I 378 W/m 14,0 C 15,5 C 17,7 km/h (3 Bft) 100,00 %
05.09.2016 15:00 17,4 C 81 % 1015,6 hPa 0,0 l/m 9,8 km/h (2 Bft) S-SW 203 2 min 0,000 mm 2,8 UV-I 468 W/m 14,1 C 15,8 C 17,7 km/h (3 Bft) 100,00 %
05.09.2016 15:02 17,6 C 82 % 1015,6 hPa 0,0 l/m 11,0 km/h (2 Bft) W-NW 301 2 min 0,229 mm 2,9 UV-I 550 W/m 14,5 C 15,6 C 27,4 km/h (4 Bft) 100,00 %
05.09.2016 15:04 17,8 C 78 % 1015,5 hPa 0,0 l/m 11,5 km/h (2 Bft) W 273 2 min 0,000 mm 3,1 UV-I 550 W/m 13,9 C 15,7 C 20,9 km/h (4 Bft) 95,74 %
05.09.2016 15:06 18,1 C 79 % 1015,6 hPa 0,0 l/m 16,3 km/h (3 Bft) W 276 2 min 0,000 mm 3,3 UV-I 616 W/m 14,4 C 14,6 C 29,0 km/h (5 Bft) 100,00 %
05.09.2016 15:08 18,1 C 76 % 1015,6 hPa 0,0 l/m 14,1 km/h (3 Bft) W 263 2 min 0,000 mm 2,1 UV-I 459 W/m 13,8 C 15,2 C 30,6 km/h (5 Bft) 100,00 %
05.09.2016 15:10 17,9 C 75 % 1015,5 hPa 0,0 l/m 10,5 km/h (2 Bft) SW 232 0 min 0,000 mm 1,7 UV-I 159 W/m 13,4 C 16,1 C 17,7 km/h (3 Bft) 100,00 %
05.09.2016 15:12 17,8 C 76 % 1015,5 hPa 0,0 l/m 12,6 km/h (3 Bft) W 259 0 min 0,000 mm 1,5 UV-I 134 W/m 13,5 C 15,3 C 20,9 km/h (4 Bft) 97,87 %
05.09.2016 15:14 17,7 C 78 % 1015,6 hPa 0,0 l/m 11,9 km/h (2 Bft) W-NW 285 0 min 0,000 mm 1,5 UV-I 167 W/m 13,8 C 15,4 C 19,3 km/h (3 Bft) 100,00 %
05.09.2016 15:16 17,6 C 78 % 1015,5 hPa 0,0 l/m 5,1 km/h (1 Bft) W-NW 296 0 min 0,000 mm 1,5 UV-I 198 W/m 13,7 C 17,6 C 12,9 km/h (3 Bft) 100,00 %
05.09.2016 15:18 17,6 C 79 % 1015,6 hPa 0,0 l/m 10,7 km/h (2 Bft) SW 225 0 min 0,000 mm 1,3 UV-I 155 W/m 13,9 C 15,7 C 16,1 km/h (3 Bft) 100,00 %
05.09.2016 15:20 17,6 C 79 % 1015,5 hPa 0,0 l/m 5,8 km/h (2 Bft) W 281 0 min 0,000 mm 1,2 UV-I 151 W/m 13,9 C 17,6 C 12,9 km/h (3 Bft) 100,00 %
05.09.2016 15:22 17,6 C 80 % 1015,6 hPa 0,0 l/m 6,8 km/h (2 Bft) NW 317 0 min 0,000 mm 1,3 UV-I 173 W/m 14,1 C 17,4 C 20,9 km/h (4 Bft) 100,00 %
05.09.2016 15:24 17,6 C 79 % 1015,5 hPa 0,0 l/m 9,0 km/h (2 Bft) W 263 0 min 0,000 mm 1,5 UV-I 181 W/m 13,9 C 16,4 C 16,1 km/h (3 Bft) 100,00 %
05.09.2016 15:26 17,7 C 77 % 1015,5 hPa 0,0 l/m 9,3 km/h (2 Bft) W 265 0 min 0,000 mm 1,6 UV-I 182 W/m 13,6 C 16,4 C 22,5 km/h (4 Bft) 100,00 %
05.09.2016 15:28 17,7 C 79 % 1015,6 hPa 0,0 l/m 4,9 km/h (1 Bft) N-NW 327 0 min 0,000 mm 1,6 UV-I 187 W/m 14,0 C 17,7 C 14,5 km/h (3 Bft) 100,00 %
05.09.2016 15:30 17,7 C 78 % 1015,5 hPa 0,0 l/m 8,0 km/h (2 Bft) W 277 0 min 0,000 mm 1,6 UV-I 166 W/m 13,8 C 16,9 C 19,3 km/h (3 Bft) 97,87 %
05.09.2016 15:32 17,8 C 77 % 1015,5 hPa 0,0 l/m 9,9 km/h (2 Bft) SW 229 0 min 0,000 mm 1,6 UV-I 144 W/m 13,7 C 16,2 C 17,7 km/h (3 Bft) 100,00 %
05.09.2016 15:34 17,8 C 75 % 1015,5 hPa 0,0 l/m 14,5 km/h (3 Bft) W 281 0 min 0,000 mm 1,6 UV-I 172 W/m 13,3 C 14,7 C 24,1 km/h (4 Bft) 100,00 %
05.09.2016 15:36 17,9 C 75 % 1015,6 hPa 0,0 l/m 11,4 km/h (2 Bft) W 270 0 min 0,000 mm 1,6 UV-I 198 W/m 13,4 C 15,8 C 22,5 km/h (4 Bft) 97,87 %
05.09.2016 15:38 17,9 C 74 % 1015,5 hPa 0,0 l/m 12,7 km/h (3 Bft) W-NW 301 0 min 0,000 mm 1,5 UV-I 183 W/m 13,2 C 15,4 C 25,7 km/h (4 Bft) 100,00 %
05.09.2016 15:40 18,0 C 74 % 1015,5 hPa 0,0 l/m 8,9 km/h (2 Bft) W 275 0 min 0,000 mm 1,5 UV-I 195 W/m 13,3 C 16,9 C 14,5 km/h (3 Bft) 100,00 %
05.09.2016 15:42 18,1 C 75 % 1015,6 hPa 0,0 l/m 6,4 km/h (2 Bft) W-SW 237 0 min 0,000 mm 1,6 UV-I 239 W/m 13,6 C 18,1 C 14,5 km/h (3 Bft) 95,74 %
05.09.2016 15:44 18,2 C 75 % 1015,6 hPa 0,0 l/m 9,3 km/h (2 Bft) S-SW 194 0 min 0,000 mm 1,6 UV-I 282 W/m 13,7 C 16,9 C 17,7 km/h (3 Bft) 100,00 %
05.09.2016 15:46 18,2 C 73 % 1015,6 hPa 0,0 l/m 11,9 km/h (2 Bft) W-SW 246 0 min 0,000 mm 1,4 UV-I 232 W/m 13,3 C 16,0 C 27,4 km/h (4 Bft) 100,00 %
05.09.2016 15:48 18,2 C 74 % 1015,6 hPa 0,0 l/m 9,4 km/h (2 Bft) W-SW 248 0 min 0,000 mm 1,4 UV-I 225 W/m 13,5 C 16,9 C 27,4 km/h (4 Bft) 97,87 %
05.09.2016 15:50 18,3 C 73 % 1015,6 hPa 0,0 l/m 11,2 km/h (2 Bft) W-SW 255 0 min 0,000 mm 1,2 UV-I 203 W/m 13,4 C 16,3 C 20,9 km/h (4 Bft) 97,87 %
05.09.2016 15:52 18,3 C 73 % 1015,7 hPa 0,0 l/m 15,0 km/h (3 Bft) W-SW 258 0 min 0,000 mm 0,9 UV-I 163 W/m 13,4 C 15,2 C 25,7 km/h (4 Bft) 100,00 %
05.09.2016 15:54 18,3 C 72 % 1015,6 hPa 0,0 l/m 9,5 km/h (2 Bft) W-NW 296 0 min 0,000 mm 0,8 UV-I 154 W/m 13,2 C 17,0 C 16,1 km/h (3 Bft) 100,00 %
05.09.2016 15:56 18,2 C 73 % 1015,7 hPa 0,0 l/m 6,4 km/h (2 Bft) NW 309 0 min 0,000 mm 0,9 UV-I 173 W/m 13,3 C 18,2 C 17,7 km/h (3 Bft) 100,00 %
05.09.2016 15:58 18,2 C 73 % 1015,8 hPa 0,0 l/m 10,4 km/h (2 Bft) W-SW 245 0 min 0,000 mm 1,0 UV-I 195 W/m 13,3 C 16,5 C 27,4 km/h (4 Bft) 97,87 %
05.09.2016 16:00 18,3 C 73 % 1015,8 hPa 0,0 l/m 12,3 km/h (3 Bft) W 268 0 min 0,000 mm 1,4 UV-I 289 W/m 13,4 C 16,0 C 20,9 km/h (4 Bft) 100,00 %
05.09.2016 16:02 18,4 C 72 % 1015,7 hPa 0,0 l/m 11,3 km/h (2 Bft) W-SW 240 2 min 0,152 mm 1,6 UV-I 396 W/m 13,3 C 16,4 C 22,5 km/h (4 Bft) 100,00 %
05.09.2016 16:04 18,5 C 72 % 1015,6 hPa 0,0 l/m 10,4 km/h (2 Bft) W 277 0 min 0,000 mm 1,3 UV-I 265 W/m 13,4 C 16,8 C 16,1 km/h (3 Bft) 100,00 %
05.09.2016 16:06 18,5 C 71 % 1015,6 hPa 0,0 l/m 10,2 km/h (2 Bft) W-NW 297 0 min 0,000 mm 1,2 UV-I 200 W/m 13,1 C 16,9 C 17,7 km/h (3 Bft) 100,00 %
05.09.2016 16:08 18,4 C 70 % 1015,5 hPa 0,0 l/m 7,4 km/h (2 Bft) W-SW 244 0 min 0,000 mm 1,0 UV-I 181 W/m 12,8 C 17,9 C 14,5 km/h (3 Bft) 97,56 %
05.09.2016 16:10 18,4 C 71 % 1015,5 hPa 0,0 l/m 6,8 km/h (2 Bft) W-SW 245 0 min 0,000 mm 1,0 UV-I 180 W/m 13,0 C 18,2 C 14,5 km/h (3 Bft) 95,83 %
05.09.2016 16:12 18,3 C 73 % 1015,5 hPa 0,0 l/m 8,1 km/h (2 Bft) W-SW 251 0 min 0,000 mm 1,0 UV-I 185 W/m 13,4 C 17,5 C 11,3 km/h (2 Bft) 95,74 %
05.09.2016 16:14 18,3 C 72 % 1015,5 hPa 0,0 l/m 14,1 km/h (3 Bft) W-SW 252 0 min 0,000 mm 0,9 UV-I 171 W/m 13,2 C 15,4 C 30,6 km/h (5 Bft) 97,87 %
05.09.2016 16:16 18,3 C 71 % 1015,6 hPa 0,0 l/m 15,6 km/h (3 Bft) W-SW 257 0 min 0,000 mm 0,8 UV-I 157 W/m 12,9 C 15,0 C 24,1 km/h (4 Bft) 97,87 %
05.09.2016 16:18 18,2 C 69 % 1015,5 hPa 0,0 l/m 19,1 km/h (3 Bft) W 270 0 min 0,000 mm 0,8 UV-I 157 W/m 12,4 C 14,1 C 27,4 km/h (4 Bft) 97,87 %
05.09.2016 16:20 18,2 C 68 % 1015,6 hPa 0,0 l/m 20,4 km/h (4 Bft) W 260 0 min 0,000 mm 0,9 UV-I 171 W/m 12,2 C 13,8 C 38,6 km/h (5 Bft) 95,74 %
05.09.2016 16:22 18,2 C 67 % 1015,6 hPa 0,0 l/m 17,2 km/h (3 Bft) W 275 0 min 0,000 mm 0,9 UV-I 169 W/m 12,0 C 14,5 C 30,6 km/h (5 Bft) 96,00 %
05.09.2016 16:24 18,1 C 66 % 1015,8 hPa 0,0 l/m 16,8 km/h (3 Bft) W 272 0 min 0,000 mm 0,8 UV-I 158 W/m 11,6 C 14,5 C 24,1 km/h (4 Bft) 97,37 %
05.09.2016 16:26 18,1 C 67 % 1015,7 hPa 0,0 l/m 9,8 km/h (2 Bft) W-SW 249 0 min 0,000 mm 0,8 UV-I 154 W/m 11,9 C 16,6 C 20,9 km/h (4 Bft) 98,00 %
05.09.2016 16:28 18,0 C 67 % 1015,8 hPa 0,0 l/m 13,7 km/h (3 Bft) W 270 0 min 0,000 mm 0,8 UV-I 159 W/m 11,8 C 15,2 C 27,4 km/h (4 Bft) 95,74 %
05.09.2016 16:30 17,9 C 68 % 1015,7 hPa 0,0 l/m 10,4 km/h (2 Bft) W 262 0 min 0,000 mm 0,8 UV-I 166 W/m 11,9 C 16,2 C 17,7 km/h (3 Bft) 95,74 %
05.09.2016 16:32 17,9 C 69 % 1015,9 hPa 0,0 l/m 11,3 km/h (2 Bft) W-SW 246 0 min 0,000 mm 0,8 UV-I 167 W/m 12,1 C 15,8 C 19,3 km/h (3 Bft) 96,00 %
05.09.2016 16:34 17,9 C 69 % 1015,8 hPa 0,0 l/m 14,8 km/h (3 Bft) W-SW 243 0 min 0,000 mm 0,8 UV-I 162 W/m 12,1 C 14,8 C 20,9 km/h (4 Bft) 94,29 %
05.09.2016 16:36 17,8 C 69 % 1015,9 hPa 0,0 l/m 13,2 km/h (3 Bft) W-SW 238 0 min 0,000 mm 0,8 UV-I 156 W/m 12,0 C 15,1 C 19,3 km/h (3 Bft) 98,08 %
05.09.2016 16:38 17,9 C 70 % 1015,9 hPa 0,0 l/m 7,7 km/h (2 Bft) NW 308 0 min 0,000 mm 0,7 UV-I 152 W/m 12,3 C 17,3 C 16,1 km/h (3 Bft) 94,00 %
05.09.2016 16:40 17,9 C 69 % 1015,9 hPa 0,0 l/m 13,0 km/h (3 Bft) W 265 0 min 0,000 mm 0,7 UV-I 146 W/m 12,1 C 15,3 C 25,7 km/h (4 Bft) 97,87 %
05.09.2016 16:42 17,9 C 71 % 1015,9 hPa 0,0 l/m 12,8 km/h (3 Bft) W 274 0 min 0,000 mm 0,7 UV-I 144 W/m 12,6 C 15,4 C 20,9 km/h (4 Bft) 97,87 %
05.09.2016 16:44 17,9 C 69 % 1016,0 hPa 0,0 l/m 13,9 km/h (3 Bft) W 273 0 min 0,000 mm 0,7 UV-I 145 W/m 12,1 C 15,0 C 22,5 km/h (4 Bft) 100,00 %
05.09.2016 16:46 17,9 C 69 % 1016,0 hPa 0,0 l/m 15,1 km/h (3 Bft) W-SW 242 0 min 0,000 mm 0,7 UV-I 149 W/m 12,1 C 14,7 C 22,5 km/h (4 Bft) 100,00 %
05.09.2016 16:48 17,9 C 70 % 1016,0 hPa 0,0 l/m 13,1 km/h (3 Bft) SW 215 0 min 0,000 mm 0,7 UV-I 155 W/m 12,3 C 15,3 C 22,5 km/h (4 Bft) 100,00 %
05.09.2016 16:50 17,9 C 70 % 1016,0 hPa 0,0 l/m 10,6 km/h (2 Bft) W 267 0 min 0,000 mm 0,7 UV-I 160 W/m 12,3 C 16,1 C 17,7 km/h (3 Bft) 97,92 %
05.09.2016 16:52 18,0 C 71 % 1016,1 hPa 0,0 l/m 10,4 km/h (2 Bft) SW 214 0 min 0,000 mm 0,7 UV-I 167 W/m 12,7 C 16,3 C 17,7 km/h (3 Bft) 98,00 %
05.09.2016 16:54 18,0 C 70 % 1016,1 hPa 0,0 l/m 7,8 km/h (2 Bft) W-SW 240 0 min 0,000 mm 0,7 UV-I 166 W/m 12,4 C 17,3 C 14,5 km/h (3 Bft) 100,00 %
05.09.2016 16:56 18,0 C 71 % 1016,0 hPa 0,0 l/m 10,2 km/h (2 Bft) W-SW 247 0 min 0,000 mm 0,7 UV-I 169 W/m 12,7 C 16,4 C 16,1 km/h (3 Bft) 97,87 %
05.09.2016 16:58 18,1 C 71 % 1016,1 hPa 0,0 l/m 13,1 km/h (3 Bft) W-SW 240 0 min 0,000 mm 0,7 UV-I 158 W/m 12,8 C 15,5 C 22,5 km/h (4 Bft) 97,87 %
05.09.2016 17:00 18,1 C 72 % 1016,0 hPa 0,0 l/m 6,6 km/h (2 Bft) W 261 0 min 0,152 mm 0,7 UV-I 148 W/m 13,0 C 18,0 C 12,9 km/h (3 Bft) 100,00 %
05.09.2016 17:02 18,1 C 71 % 1016,1 hPa 0,0 l/m 7,9 km/h (2 Bft) W 266 0 min 0,000 mm 0,7 UV-I 146 W/m 12,8 C 17,4 C 16,1 km/h (3 Bft) 100,00 %
05.09.2016 17:04 18,1 C 72 % 1016,1 hPa 0,0 l/m 11,0 km/h (2 Bft) SW 229 0 min 0,000 mm 0,7 UV-I 149 W/m 13,0 C 16,2 C 24,1 km/h (4 Bft) 100,00 %
05.09.2016 17:06 18,1 C 70 % 1016,1 hPa 0,0 l/m 17,1 km/h (3 Bft) W 259 0 min 0,000 mm 0,7 UV-I 150 W/m 12,5 C 14,4 C 25,7 km/h (4 Bft) 98,00 %
05.09.2016 17:08 18,2 C 70 % 1016,1 hPa 0,0 l/m 9,9 km/h (2 Bft) SW 235 0 min 0,000 mm 0,7 UV-I 141 W/m 12,6 C 16,7 C 17,7 km/h (3 Bft) 100,00 %
05.09.2016 17:10 18,2 C 71 % 1016,1 hPa 0,0 l/m 13,8 km/h (3 Bft) W-NW 296 0 min 0,000 mm 0,7 UV-I 126 W/m 12,9 C 15,4 C 25,7 km/h (4 Bft) 100,00 %
05.09.2016 17:12 18,2 C 70 % 1016,1 hPa 0,0 l/m 11,2 km/h (2 Bft) W-SW 249 0 min 0,000 mm 0,7 UV-I 121 W/m 12,6 C 16,2 C 19,3 km/h (3 Bft) 100,00 %
05.09.2016 17:14 18,2 C 70 % 1016,2 hPa 0,0 l/m 11,7 km/h (2 Bft) W 273 0 min 0,000 mm 0,6 UV-I 112 W/m 12,6 C 16,1 C 16,1 km/h (3 Bft) 97,87 %
05.09.2016 17:16 18,1 C 71 % 1016,2 hPa 0,0 l/m 9,8 km/h (2 Bft) SW 232 0 min 0,000 mm 0,6 UV-I 100 W/m 12,8 C 16,6 C 14,5 km/h (3 Bft) 100,00 %
05.09.2016 17:18 18,1 C 71 % 1016,2 hPa 0,0 l/m 12,7 km/h (3 Bft) SW 234 0 min 0,000 mm 0,5 UV-I 105 W/m 12,8 C 15,6 C 20,9 km/h (4 Bft) 97,87 %
05.09.2016 17:20 18,1 C 70 % 1016,2 hPa 0,0 l/m 10,5 km/h (2 Bft) W-SW 253 0 min 0,000 mm 0,5 UV-I 108 W/m 12,5 C 16,4 C 19,3 km/h (3 Bft) 100,00 %
05.09.2016 17:22 18,1 C 71 % 1016,2 hPa 0,0 l/m 9,1 km/h (2 Bft) W-NW 289 0 min 0,000 mm 0,5 UV-I 118 W/m 12,8 C 16,9 C 16,1 km/h (3 Bft) 98,00 %
05.09.2016 17:24 18,1 C 70 % 1016,2 hPa 0,0 l/m 11,1 km/h (2 Bft) W-SW 250 0 min 0,000 mm 0,5 UV-I 124 W/m 12,5 C 16,1 C 22,5 km/h (4 Bft) 100,00 %
05.09.2016 17:26 18,1 C 70 % 1016,2 hPa 0,0 l/m 12,0 km/h (2 Bft) W-SW 252 0 min 0,000 mm 0,4 UV-I 114 W/m 12,5 C 15,8 C 22,5 km/h (4 Bft) 97,87 %
05.09.2016 17:28 18,1 C 70 % 1016,2 hPa 0,0 l/m 6,8 km/h (2 Bft) W 273 0 min 0,000 mm 0,0 UV-I 104 W/m 12,5 C 17,9 C 14,5 km/h (3 Bft) 100,00 %
05.09.2016 17:30 18,1 C 70 % 1016,2 hPa 0,0 l/m 10,0 km/h (2 Bft) SW 232 0 min 0,000 mm 0,0 UV-I 98 W/m 12,5 C 16,5 C 22,5 km/h (4 Bft) 100,00 %
05.09.2016 17:32 18,1 C 70 % 1016,3 hPa 0,0 l/m 7,8 km/h (2 Bft) W-SW 242 0 min 0,000 mm 0,0 UV-I 90 W/m 12,5 C 17,4 C 17,7 km/h (3 Bft) 97,87 %
05.09.2016 17:34 18,1 C 71 % 1016,3 hPa 0,0 l/m 12,2 km/h (2 Bft) W 269 0 min 0,000 mm 0,0 UV-I 77 W/m 12,8 C 15,8 C 19,3 km/h (3 Bft) 98,00 %
05.09.2016 17:36 18,1 C 70 % 1016,2 hPa 0,0 l/m 12,1 km/h (2 Bft) W 277 0 min 0,000 mm 0,0 UV-I 56 W/m 12,5 C 15,8 C 19,3 km/h (3 Bft) 100,00 %
05.09.2016 17:38 18,0 C 70 % 1016,3 hPa 0,0 l/m 6,6 km/h (2 Bft) W 269 0 min 0,000 mm 0,0 UV-I 29 W/m 12,4 C 17,9 C 12,9 km/h (3 Bft) 97,87 %
05.09.2016 17:40 18,0 C 71 % 1016,4 hPa 0,0 l/m 8,6 km/h (2 Bft) W-SW 250 0 min 0,000 mm 0,0 UV-I 13 W/m 12,7 C 17,0 C 16,1 km/h (3 Bft) 97,87 %
05.09.2016 17:42 17,9 C 71 % 1016,5 hPa 0,0 l/m 11,3 km/h (2 Bft) W 266 0 min 0,000 mm 0,0 UV-I 14 W/m 12,6 C 15,8 C 17,7 km/h (3 Bft) 100,00 %
05.09.2016 17:44 17,9 C 70 % 1016,5 hPa 0,0 l/m 9,8 km/h (2 Bft) SW 223 0 min 0,000 mm 0,0 UV-I 15 W/m 12,3 C 16,4 C 20,9 km/h (4 Bft) 100,00 %
05.09.2016 17:46 17,9 C 71 % 1016,8 hPa 0,0 l/m 19,9 km/h (4 Bft) W 261 0 min 0,000 mm 0,0 UV-I 12 W/m 12,6 C 13,5 C 32,2 km/h (5 Bft) 100,00 %
05.09.2016 17:48 17,8 C 71 % 1016,8 hPa 0,0 l/m 10,8 km/h (2 Bft) W 267 0 min 0,000 mm 0,0 UV-I 16 W/m 12,5 C 15,9 C 29,0 km/h (5 Bft) 100,00 %
05.09.2016 17:50 17,5 C 73 % 1016,9 hPa 0,0 l/m 16,5 km/h (3 Bft) SW 221 0 min 0,000 mm 0,0 UV-I 21 W/m 12,6 C 13,8 C 24,1 km/h (4 Bft) 100,00 %
05.09.2016 17:52 17,2 C 72 % 1017,1 hPa 0,0 l/m 20,1 km/h (4 Bft) N 350 0 min 0,000 mm 0,0 UV-I 26 W/m 12,1 C 12,6 C 29,0 km/h (5 Bft) 100,00 %
05.09.2016 17:54 16,9 C 72 % 1017,0 hPa 0,0 l/m 14,8 km/h (3 Bft) S-SW 196 0 min 0,000 mm 0,0 UV-I 30 W/m 11,8 C 13,6 C 29,0 km/h (5 Bft) 100,00 %
05.09.2016 17:56 16,6 C 76 % 1016,9 hPa 0,0 l/m 11,5 km/h (2 Bft) W-NW 286 0 min 0,000 mm 0,0 UV-I 37 W/m 12,3 C 14,3 C 24,1 km/h (4 Bft) 98,00 %
05.09.2016 17:58 16,2 C 77 % 1016,9 hPa 0,2 l/m 13,2 km/h (3 Bft) W-SW 244 0 min 0,000 mm 0,0 UV-I 42 W/m 12,2 C 13,2 C 19,3 km/h (3 Bft) 97,87 %
05.09.2016 18:00 16,0 C 77 % 1016,9 hPa 0,0 l/m 12,2 km/h (2 Bft) W 259 0 min 0,000 mm 0,0 UV-I 42 W/m 12,0 C 13,3 C 20,9 km/h (4 Bft) 100,00 %
05.09.2016 18:02 15,9 C 78 % 1016,9 hPa 0,0 l/m 13,6 km/h (3 Bft) W-SW 249 0 min 0,102 mm 0,0 UV-I 45 W/m 12,1 C 12,7 C 20,9 km/h (4 Bft) 100,00 %
05.09.2016 18:04 15,8 C 79 % 1016,8 hPa 0,0 l/m 14,0 km/h (3 Bft) W 264 0 min 0,000 mm 0,0 UV-I 53 W/m 12,2 C 12,5 C 22,5 km/h (4 Bft) 97,87 %
05.09.2016 18:06 15,8 C 80 % 1016,8 hPa 0,0 l/m 12,3 km/h (3 Bft) W 268 0 min 0,000 mm 0,0 UV-I 58 W/m 12,4 C 13,1 C 16,1 km/h (3 Bft) 83,33 %
05.09.2016 18:08 15,8 C 79 % 1016,9 hPa 0,0 l/m 12,5 km/h (3 Bft) W-SW 245 0 min 0,000 mm 0,0 UV-I 59 W/m 12,2 C 13,0 C 17,7 km/h (3 Bft) 96,10 %
05.09.2016 18:10 15,8 C 80 % 1016,9 hPa 0,0 l/m 12,3 km/h (3 Bft) W-SW 253 0 min 0,000 mm 0,0 UV-I 61 W/m 12,4 C 13,1 C 19,3 km/h (3 Bft) 93,62 %
05.09.2016 18:12 15,8 C 80 % 1016,9 hPa 0,0 l/m 10,9 km/h (2 Bft) W-SW 245 0 min 0,000 mm 0,0 UV-I 59 W/m 12,4 C 13,6 C 16,1 km/h (3 Bft) 97,87 %
05.09.2016 18:14 15,8 C 80 % 1016,9 hPa 0,0 l/m 9,9 km/h (2 Bft) SW 220 0 min 0,000 mm 0,0 UV-I 52 W/m 12,4 C 14,0 C 12,9 km/h (3 Bft) 93,62 %
05.09.2016 18:16 15,7 C 80 % 1017,0 hPa 0,0 l/m 12,4 km/h (3 Bft) W 265 0 min 0,000 mm 0,0 UV-I 45 W/m 12,3 C 12,9 C 20,9 km/h (4 Bft) 97,96 %
05.09.2016 18:18 15,8 C 80 % 1017,0 hPa 0,0 l/m 11,3 km/h (2 Bft) W-SW 248 0 min 0,000 mm 0,0 UV-I 40 W/m 12,4 C 13,5 C 19,3 km/h (3 Bft) 94,74 %
05.09.2016 18:20 15,8 C 80 % 1017,1 hPa 0,0 l/m 12,7 km/h (3 Bft) W-SW 244 0 min 0,000 mm 0,0 UV-I 33 W/m 12,4 C 12,9 C 19,3 km/h (3 Bft) 96,00 %
05.09.2016 18:22 15,8 C 80 % 1017,1 hPa 0,0 l/m 10,2 km/h (2 Bft) W-NW 292 0 min 0,000 mm 0,0 UV-I 32 W/m 12,4 C 13,9 C 20,9 km/h (4 Bft) 97,87 %
05.09.2016 18:24 15,8 C 80 % 1017,1 hPa 0,0 l/m 13,6 km/h (3 Bft) W-SW 257 0 min 0,000 mm 0,0 UV-I 31 W/m 12,4 C 12,6 C 20,9 km/h (4 Bft) 95,74 %
05.09.2016 18:26 15,8 C 80 % 1017,1 hPa 0,0 l/m 12,9 km/h (3 Bft) W-SW 254 0 min 0,000 mm 0,0 UV-I 29 W/m 12,4 C 12,9 C 17,7 km/h (3 Bft) 93,62 %
05.09.2016 18:28 15,8 C 80 % 1017,1 hPa 0,0 l/m 9,4 km/h (2 Bft) W-SW 253 0 min 0,000 mm 0,0 UV-I 28 W/m 12,4 C 14,3 C 14,5 km/h (3 Bft) 93,62 %
05.09.2016 18:30 15,9 C 80 % 1017,2 hPa 0,0 l/m 12,1 km/h (2 Bft) W 278 0 min 0,000 mm 0,0 UV-I 26 W/m 12,5 C 13,3 C 17,7 km/h (3 Bft) 93,62 %
05.09.2016 18:32 15,9 C 80 % 1017,2 hPa 0,0 l/m 9,4 km/h (2 Bft) W-SW 245 0 min 0,000 mm 0,0 UV-I 22 W/m 12,5 C 14,4 C 19,3 km/h (3 Bft) 98,00 %
05.09.2016 18:34 15,9 C 81 % 1017,2 hPa 0,0 l/m 12,2 km/h (2 Bft) W-SW 250 0 min 0,000 mm 0,0 UV-I 20 W/m 12,6 C 13,2 C 17,7 km/h (3 Bft) 98,00 %
05.09.2016 18:36 15,9 C 81 % 1017,2 hPa 0,0 l/m 11,0 km/h (2 Bft) W 261 0 min 0,000 mm 0,0 UV-I 19 W/m 12,6 C 13,7 C 16,1 km/h (3 Bft) 97,87 %
05.09.2016 18:38 15,9 C 81 % 1017,2 hPa 0,0 l/m 14,0 km/h (3 Bft) W-SW 256 0 min 0,000 mm 0,0 UV-I 19 W/m 12,6 C 12,6 C 22,5 km/h (4 Bft) 97,87 %
05.09.2016 18:40 16,0 C 81 % 1017,2 hPa 0,0 l/m 15,6 km/h (3 Bft) W-SW 246 0 min 0,000 mm 0,0 UV-I 18 W/m 12,7 C 12,2 C 22,5 km/h (4 Bft) 100,00 %
05.09.2016 18:42 16,1 C 80 % 1017,2 hPa 0,0 l/m 11,7 km/h (2 Bft) W 259 0 min 0,000 mm 0,0 UV-I 16 W/m 12,6 C 13,7 C 20,9 km/h (4 Bft) 97,37 %
05.09.2016 18:44 16,1 C 81 % 1017,3 hPa 0,0 l/m 14,2 km/h (3 Bft) W-SW 258 0 min 0,000 mm 0,0 UV-I 14 W/m 12,8 C 12,8 C 25,7 km/h (4 Bft) 98,00 %
05.09.2016 18:46 16,1 C 81 % 1017,3 hPa 0,0 l/m 10,4 km/h (2 Bft) W 265 0 min 0,000 mm 0,0 UV-I 12 W/m 12,8 C 14,2 C 16,1 km/h (3 Bft) 100,00 %
05.09.2016 18:48 16,1 C 82 % 1017,3 hPa 0,0 l/m 10,6 km/h (2 Bft) W 273 0 min 0,000 mm 0,0 UV-I 13 W/m 13,0 C 14,1 C 14,5 km/h (3 Bft) 100,00 %
05.09.2016 18:50 16,0 C 82 % 1017,3 hPa 0,0 l/m 11,2 km/h (2 Bft) W 263 0 min 0,000 mm 0,0 UV-I 16 W/m 12,9 C 13,7 C 16,1 km/h (3 Bft) 100,00 %
05.09.2016 18:52 16,0 C 82 % 1017,3 hPa 0,0 l/m 13,3 km/h (3 Bft) W 269 0 min 0,000 mm 0,0 UV-I 16 W/m 12,9 C 13,0 C 17,7 km/h (3 Bft) 100,00 %
05.09.2016 18:54 15,9 C 82 % 1017,4 hPa 0,0 l/m 12,0 km/h (2 Bft) W-NW 286 0 min 0,000 mm 0,0 UV-I 12 W/m 12,8 C 13,3 C 19,3 km/h (3 Bft) 97,87 %
05.09.2016 18:56 15,9 C 83 % 1017,5 hPa 0,0 l/m 11,2 km/h (2 Bft) SW 235 0 min 0,000 mm 0,0 UV-I 10 W/m 13,0 C 13,6 C 17,7 km/h (3 Bft) 97,87 %
05.09.2016 18:58 15,9 C 83 % 1017,5 hPa 0,0 l/m 12,4 km/h (3 Bft) W 279 0 min 0,000 mm 0,0 UV-I 10 W/m 13,0 C 13,2 C 20,9 km/h (4 Bft) 98,00 %
05.09.2016 19:00 15,9 C 83 % 1017,5 hPa 0,0 l/m 9,6 km/h (2 Bft) W-SW 247 0 min 0,000 mm 0,0 UV-I 11 W/m 13,0 C 14,3 C 14,5 km/h (3 Bft) 100,00 %
05.09.2016 19:02 15,8 C 84 % 1017,4 hPa 0,0 l/m 10,5 km/h (2 Bft) N-NW 331 0 min 0,051 mm 0,0 UV-I 10 W/m 13,1 C 13,8 C 16,1 km/h (3 Bft) 98,00 %
05.09.2016 19:04 15,8 C 84 % 1017,5 hPa 0,0 l/m 9,1 km/h (2 Bft) W 259 0 min 0,000 mm 0,0 UV-I 9 W/m 13,1 C 14,4 C 17,7 km/h (3 Bft) 100,00 %
05.09.2016 19:06 15,7 C 85 % 1017,5 hPa 0,0 l/m 9,9 km/h (2 Bft) W 265 0 min 0,000 mm 0,0 UV-I 7 W/m 13,2 C 13,9 C 14,5 km/h (3 Bft) 97,87 %
05.09.2016 19:08 15,7 C 85 % 1017,6 hPa 0,0 l/m 8,4 km/h (2 Bft) W-SW 248 0 min 0,000 mm 0,0 UV-I 7 W/m 13,2 C 14,6 C 16,1 km/h (3 Bft) 100,00 %
05.09.2016 19:10 15,7 C 85 % 1017,7 hPa 0,0 l/m 8,9 km/h (2 Bft) W 267 0 min 0,000 mm 0,0 UV-I 7 W/m 13,2 C 14,4 C 14,5 km/h (3 Bft) 100,00 %
05.09.2016 19:12 15,7 C 85 % 1017,7 hPa 0,0 l/m 7,2 km/h (2 Bft) W-SW 240 0 min 0,000 mm 0,0 UV-I 6 W/m 13,2 C 15,3 C 12,9 km/h (3 Bft) 97,87 %
05.09.2016 19:14 15,7 C 85 % 1017,7 hPa 0,0 l/m 7,2 km/h (2 Bft) W-SW 247 0 min 0,000 mm 0,0 UV-I 5 W/m 13,2 C 15,3 C 16,1 km/h (3 Bft) 97,87 %
05.09.2016 19:16 15,7 C 85 % 1017,7 hPa 0,0 l/m 8,7 km/h (2 Bft) W 267 0 min 0,000 mm 0,0 UV-I 5 W/m 13,2 C 14,5 C 12,9 km/h (3 Bft) 100,00 %
05.09.2016 19:18 15,7 C 86 % 1017,8 hPa 0,0 l/m 7,8 km/h (2 Bft) W-SW 238 0 min 0,000 mm 0,0 UV-I 1 W/m 13,4 C 14,9 C 14,5 km/h (3 Bft) 98,00 %
05.09.2016 19:20 15,7 C 86 % 1017,8 hPa 0,0 l/m 6,2 km/h (2 Bft) W-SW 248 0 min 0,000 mm 0,0 UV-I 0 W/m 13,4 C 15,7 C 11,3 km/h (2 Bft) 100,00 %
05.09.2016 19:22 15,7 C 86 % 1017,8 hPa 0,2 l/m 8,5 km/h (2 Bft) W 263 0 min 0,000 mm 0,0 UV-I 0 W/m 13,4 C 14,6 C 12,9 km/h (3 Bft) 100,00 %
05.09.2016 19:24 15,6 C 86 % 1017,8 hPa 0,0 l/m 5,7 km/h (1 Bft) W 269 0 min 0,000 mm 0,0 UV-I 0 W/m 13,3 C 15,6 C 11,3 km/h (2 Bft) 95,83 %
05.09.2016 19:26 15,6 C 86 % 1017,8 hPa 0,0 l/m 8,9 km/h (2 Bft) SW 217 0 min 0,000 mm 0,0 UV-I 0 W/m 13,3 C 14,3 C 16,1 km/h (3 Bft) 100,00 %
05.09.2016 19:28 15,6 C 87 % 1017,9 hPa 0,0 l/m 11,2 km/h (2 Bft) W 267 0 min 0,000 mm 0,0 UV-I 0 W/m 13,4 C 13,3 C 19,3 km/h (3 Bft) 97,87 %
05.09.2016 19:30 15,6 C 86 % 1017,8 hPa 0,0 l/m 12,4 km/h (3 Bft) W 269 0 min 0,000 mm 0,0 UV-I 0 W/m 13,3 C 12,8 C 20,9 km/h (4 Bft) 96,00 %
05.09.2016 19:32 15,6 C 86 % 1017,9 hPa 0,0 l/m 9,6 km/h (2 Bft) W-NW 282 0 min 0,000 mm 0,0 UV-I 0 W/m 13,3 C 14,0 C 14,5 km/h (3 Bft) 97,87 %
05.09.2016 19:34 15,6 C 87 % 1017,9 hPa 0,0 l/m 8,3 km/h (2 Bft) W-SW 243 0 min 0,000 mm 0,0 UV-I 0 W/m 13,4 C 14,6 C 12,9 km/h (3 Bft) 100,00 %
05.09.2016 19:36 15,6 C 86 % 1017,9 hPa 0,0 l/m 9,9 km/h (2 Bft) W 263 0 min 0,000 mm 0,0 UV-I 0 W/m 13,3 C 13,8 C 16,1 km/h (3 Bft) 100,00 %
05.09.2016 19:38 15,6 C 87 % 1017,9 hPa 0,0 l/m 8,4 km/h (2 Bft) W-SW 256 0 min 0,000 mm 0,0 UV-I 0 W/m 13,4 C 14,5 C 14,5 km/h (3 Bft) 100,00 %
05.09.2016 19:40 15,6 C 86 % 1018,0 hPa 0,0 l/m 8,4 km/h (2 Bft) W-SW 251 0 min 0,000 mm 0,0 UV-I 0 W/m 13,3 C 14,5 C 14,5 km/h (3 Bft) 100,00 %
05.09.2016 19:42 15,6 C 86 % 1018,0 hPa 0,0 l/m 9,1 km/h (2 Bft) W-SW 252 0 min 0,000 mm 0,0 UV-I 0 W/m 13,3 C 14,2 C 14,5 km/h (3 Bft) 100,00 %
05.09.2016 19:44 15,6 C 87 % 1018,0 hPa 0,0 l/m 10,1 km/h (2 Bft) W-SW 255 0 min 0,000 mm 0,0 UV-I 0 W/m 13,4 C 13,7 C 19,3 km/h (3 Bft) 97,87 %
05.09.2016 19:46 15,6 C 87 % 1018,2 hPa 0,0 l/m 6,3 km/h (2 Bft) SW 225 0 min 0,000 mm 0,0 UV-I 0 W/m 13,4 C 15,6 C 12,9 km/h (3 Bft) 97,87 %
05.09.2016 19:48 15,6 C 87 % 1018,2 hPa 0,0 l/m 11,0 km/h (2 Bft) W-SW 257 0 min 0,000 mm 0,0 UV-I 0 W/m 13,4 C 13,4 C 22,5 km/h (4 Bft) 100,00 %
05.09.2016 19:50 15,6 C 86 % 1018,3 hPa 0,0 l/m 13,4 km/h (3 Bft) W-SW 250 0 min 0,000 mm 0,0 UV-I 0 W/m 13,3 C 12,5 C 20,9 km/h (4 Bft) 100,00 %
05.09.2016 19:52 15,6 C 86 % 1018,4 hPa 0,0 l/m 15,8 km/h (3 Bft) W-SW 258 0 min 0,000 mm 0,0 UV-I 0 W/m 13,3 C 11,7 C 30,6 km/h (5 Bft) 97,87 %
05.09.2016 19:54 15,6 C 87 % 1018,4 hPa 0,0 l/m 14,9 km/h (3 Bft) W-NW 290 0 min 0,000 mm 0,0 UV-I 0 W/m 13,4 C 12,0 C 29,0 km/h (5 Bft) 100,00 %
05.09.2016 19:56 15,4 C 87 % 1018,4 hPa 0,2 l/m 17,2 km/h (3 Bft) W-SW 246 0 min 0,000 mm 0,0 UV-I 0 W/m 13,2 C 11,0 C 24,1 km/h (4 Bft) 100,00 %
05.09.2016 19:58 15,3 C 87 % 1018,4 hPa 0,0 l/m 17,9 km/h (3 Bft) SW 229 0 min 0,000 mm 0,0 UV-I 0 W/m 13,1 C 10,7 C 27,4 km/h (4 Bft) 97,87 %
05.09.2016 20:00 15,3 C 87 % 1018,4 hPa 0,0 l/m 16,6 km/h (3 Bft) W 264 0 min 0,000 mm 0,0 UV-I 0 W/m 13,1 C 11,1 C 24,1 km/h (4 Bft) 100,00 %
05.09.2016 20:02 15,2 C 88 % 1018,3 hPa 0,0 l/m 14,2 km/h (3 Bft) SW 234 0 min 0,025 mm 0,0 UV-I 0 W/m 13,2 C 11,7 C 22,5 km/h (4 Bft) 100,00 %
05.09.2016 20:04 15,1 C 88 % 1018,3 hPa 0,0 l/m 13,7 km/h (3 Bft) W 265 0 min 0,000 mm 0,0 UV-I 0 W/m 13,1 C 11,8 C 29,0 km/h (5 Bft) 97,87 %
05.09.2016 20:06 14,9 C 89 % 1018,4 hPa 0,0 l/m 10,9 km/h (2 Bft) W 273 0 min 0,000 mm 0,0 UV-I 0 W/m 13,1 C 12,6 C 16,1 km/h (3 Bft) 97,87 %
05.09.2016 20:08 14,9 C 89 % 1018,3 hPa 0,0 l/m 11,9 km/h (2 Bft) W 261 0 min 0,000 mm 0,0 UV-I 0 W/m 13,1 C 12,2 C 16,1 km/h (3 Bft) 95,83 %
05.09.2016 20:10 14,8 C 90 % 1018,4 hPa 0,0 l/m 11,9 km/h (2 Bft) SW 234 0 min 0,000 mm 0,0 UV-I 0 W/m 13,2 C 12,1 C 19,3 km/h (3 Bft) 95,74 %
05.09.2016 20:12 14,7 C 90 % 1018,4 hPa 0,0 l/m 11,3 km/h (2 Bft) W 273 0 min 0,000 mm 0,0 UV-I 0 W/m 13,1 C 12,2 C 19,3 km/h (3 Bft) 95,74 %
05.09.2016 20:14 14,7 C 91 % 1018,4 hPa 0,0 l/m 13,5 km/h (3 Bft) W 264 0 min 0,000 mm 0,0 UV-I 0 W/m 13,2 C 11,4 C 19,3 km/h (3 Bft) 97,37 %
05.09.2016 20:16 14,7 C 91 % 1018,5 hPa 0,0 l/m 16,4 km/h (3 Bft) W-SW 243 0 min 0,000 mm 0,0 UV-I 0 W/m 13,2 C 10,4 C 20,9 km/h (4 Bft) 96,00 %
05.09.2016 20:18 14,7 C 91 % 1018,5 hPa 0,0 l/m 13,9 km/h (3 Bft) W-NW 282 0 min 0,000 mm 0,0 UV-I 0 W/m 13,2 C 11,2 C 19,3 km/h (3 Bft) 97,87 %
05.09.2016 20:20 14,7 C 91 % 1018,4 hPa 0,0 l/m 13,1 km/h (3 Bft) W-SW 252 0 min 0,000 mm 0,0 UV-I 0 W/m 13,2 C 11,5 C 20,9 km/h (4 Bft) 97,87 %
05.09.2016 20:22 14,7 C 91 % 1018,5 hPa 0,0 l/m 14,7 km/h (3 Bft) W-SW 246 0 min 0,000 mm 0,0 UV-I 0 W/m 13,2 C 10,9 C 20,9 km/h (4 Bft) 95,74 %
05.09.2016 20:24 14,7 C 91 % 1018,5 hPa 0,0 l/m 15,0 km/h (3 Bft) W-SW 243 0 min 0,000 mm 0,0 UV-I 0 W/m 13,2 C 10,8 C 24,1 km/h (4 Bft) 97,87 %
05.09.2016 20:26 14,7 C 91 % 1018,5 hPa 0,0 l/m 17,9 km/h (3 Bft) W 268 0 min 0,000 mm 0,0 UV-I 0 W/m 13,2 C 9,9 C 22,5 km/h (4 Bft) 97,87 %
05.09.2016 20:28 14,7 C 91 % 1018,6 hPa 0,0 l/m 12,5 km/h (3 Bft) W 261 0 min 0,000 mm 0,0 UV-I 0 W/m 13,2 C 11,7 C 19,3 km/h (3 Bft) 95,74 %
05.09.2016 20:30 14,7 C 92 % 1018,6 hPa 0,0 l/m 15,4 km/h (3 Bft) W-SW 246 0 min 0,000 mm 0,0 UV-I 0 W/m 13,4 C 10,7 C 25,7 km/h (4 Bft) 93,62 %
05.09.2016 20:32 14,7 C 91 % 1018,7 hPa 0,0 l/m 13,0 km/h (3 Bft) W 259 0 min 0,000 mm 0,0 UV-I 0 W/m 13,2 C 11,5 C 19,3 km/h (3 Bft) 97,87 %
05.09.2016 20:34 14,7 C 91 % 1018,6 hPa 0,0 l/m 15,7 km/h (3 Bft) W-SW 252 0 min 0,000 mm 0,0 UV-I 0 W/m 13,2 C 10,6 C 27,4 km/h (4 Bft) 97,87 %
05.09.2016 20:36 14,7 C 91 % 1018,7 hPa 0,0 l/m 14,5 km/h (3 Bft) W-SW 258 0 min 0,000 mm 0,0 UV-I 0 W/m 13,2 C 11,0 C 20,9 km/h (4 Bft) 97,87 %
05.09.2016 20:38 14,7 C 91 % 1018,7 hPa 0,0 l/m 13,2 km/h (3 Bft) W-SW 246 0 min 0,000 mm 0,0 UV-I 0 W/m 13,2 C 11,5 C 17,7 km/h (3 Bft) 97,87 %
05.09.2016 20:40 14,7 C 91 % 1018,7 hPa 0,0 l/m 12,9 km/h (3 Bft) W-SW 237 0 min 0,000 mm 0,0 UV-I 0 W/m 13,2 C 11,6 C 20,9 km/h (4 Bft) 100,00 %
05.09.2016 20:42 14,7 C 91 % 1018,8 hPa 0,0 l/m 16,7 km/h (3 Bft) W 265 0 min 0,000 mm 0,0 UV-I 0 W/m 13,2 C 10,3 C 22,5 km/h (4 Bft) 100,00 %
05.09.2016 20:44 14,7 C 91 % 1018,8 hPa 0,0 l/m 15,8 km/h (3 Bft) W 260 0 min 0,000 mm 0,0 UV-I 0 W/m 13,2 C 10,6 C 22,5 km/h (4 Bft) 100,00 %
05.09.2016 20:46 14,7 C 91 % 1018,8 hPa 0,0 l/m 8,9 km/h (2 Bft) W 280 0 min 0,000 mm 0,0 UV-I 0 W/m 13,2 C 13,3 C 14,5 km/h (3 Bft) 100,00 %
05.09.2016 20:48 14,7 C 91 % 1018,9 hPa 0,0 l/m 11,0 km/h (2 Bft) SW 228 0 min 0,000 mm 0,0 UV-I 0 W/m 13,2 C 12,3 C 17,7 km/h (3 Bft) 100,00 %
05.09.2016 20:50 14,7 C 91 % 1019,0 hPa 0,0 l/m 10,9 km/h (2 Bft) W 259 0 min 0,000 mm 0,0 UV-I 0 W/m 13,2 C 12,4 C 17,7 km/h (3 Bft) 100,00 %
05.09.2016 20:52 14,7 C 91 % 1019,0 hPa 0,0 l/m 12,9 km/h (3 Bft) W-SW 240 0 min 0,000 mm 0,0 UV-I 0 W/m 13,2 C 11,6 C 17,7 km/h (3 Bft) 100,00 %
05.09.2016 20:54 14,7 C 91 % 1019,0 hPa 0,0 l/m 12,3 km/h (3 Bft) S-SW 210 0 min 0,000 mm 0,0 UV-I 0 W/m 13,2 C 11,8 C 19,3 km/h (3 Bft) 100,00 %
05.09.2016 20:56 14,7 C 92 % 1019,0 hPa 0,0 l/m 13,8 km/h (3 Bft) SW 234 0 min 0,000 mm 0,0 UV-I 0 W/m 13,4 C 11,2 C 20,9 km/h (4 Bft) 100,00 %
05.09.2016 20:58 14,7 C 92 % 1019,0 hPa 0,0 l/m 8,1 km/h (2 Bft) SW 218 0 min 0,000 mm 0,0 UV-I 0 W/m 13,4 C 13,7 C 11,3 km/h (2 Bft) 100,00 %
05.09.2016 21:00 14,7 C 92 % 1019,0 hPa 0,0 l/m 9,9 km/h (2 Bft) W-SW 249 0 min 0,000 mm 0,0 UV-I 0 W/m 13,4 C 12,8 C 16,1 km/h (3 Bft) 100,00 %
05.09.2016 21:02 14,6 C 92 % 1019,0 hPa 0,0 l/m 11,1 km/h (2 Bft) SW 224 0 min 0,026 mm 0,0 UV-I 0 W/m 13,3 C 12,2 C 19,3 km/h (3 Bft) 100,00 %
05.09.2016 21:04 14,6 C 92 % 1019,0 hPa 0,0 l/m 9,9 km/h (2 Bft) SW 232 0 min 0,000 mm 0,0 UV-I 0 W/m 13,3 C 12,7 C 14,5 km/h (3 Bft) 100,00 %
05.09.2016 21:06 14,6 C 92 % 1019,0 hPa 0,0 l/m 10,6 km/h (2 Bft) W-SW 238 0 min 0,000 mm 0,0 UV-I 0 W/m 13,3 C 12,4 C 19,3 km/h (3 Bft) 100,00 %
05.09.2016 21:08 14,6 C 92 % 1019,0 hPa 0,0 l/m 10,9 km/h (2 Bft) SW 233 0 min 0,000 mm 0,0 UV-I 0 W/m 13,3 C 12,3 C 17,7 km/h (3 Bft) 98,00 %
05.09.2016 21:10 14,6 C 92 % 1019,0 hPa 0,0 l/m 10,1 km/h (2 Bft) SW 224 0 min 0,000 mm 0,0 UV-I 0 W/m 13,3 C 12,6 C 16,1 km/h (3 Bft) 100,00 %
05.09.2016 21:12 14,6 C 92 % 1019,1 hPa 0,0 l/m 10,3 km/h (2 Bft) SW 226 0 min 0,000 mm 0,0 UV-I 0 W/m 13,3 C 12,5 C 16,1 km/h (3 Bft) 100,00 %
05.09.2016 21:14 14,6 C 92 % 1019,1 hPa 0,0 l/m 10,8 km/h (2 Bft) SW 230 0 min 0,000 mm 0,0 UV-I 0 W/m 13,3 C 12,3 C 20,9 km/h (4 Bft) 100,00 %
05.09.2016 21:16 14,6 C 92 % 1019,1 hPa 0,0 l/m 9,5 km/h (2 Bft) SW 222 0 min 0,000 mm 0,0 UV-I 0 W/m 13,3 C 12,9 C 16,1 km/h (3 Bft) 100,00 %
05.09.2016 21:18 14,6 C 92 % 1019,1 hPa 0,0 l/m 8,3 km/h (2 Bft) W-SW 237 0 min 0,000 mm 0,0 UV-I 0 W/m 13,3 C 13,5 C 14,5 km/h (3 Bft) 100,00 %
05.09.2016 21:20 14,6 C 92 % 1019,1 hPa 0,0 l/m 11,1 km/h (2 Bft) SW 234 0 min 0,000 mm 0,0 UV-I 0 W/m 13,3 C 12,2 C 19,3 km/h (3 Bft) 100,00 %
05.09.2016 21:22 14,6 C 92 % 1019,2 hPa 0,0 l/m 10,4 km/h (2 Bft) W-SW 242 0 min 0,000 mm 0,0 UV-I 0 W/m 13,3 C 12,5 C 14,5 km/h (3 Bft) 100,00 %
05.09.2016 21:24 14,7 C 92 % 1019,3 hPa 0,0 l/m 12,4 km/h (3 Bft) W-SW 257 0 min 0,000 mm 0,0 UV-I 0 W/m 13,4 C 11,8 C 19,3 km/h (3 Bft) 100,00 %
05.09.2016 21:26 14,7 C 92 % 1019,3 hPa 0,0 l/m 12,1 km/h (2 Bft) W-SW 248 0 min 0,000 mm 0,0 UV-I 0 W/m 13,4 C 11,9 C 20,9 km/h (4 Bft) 100,00 %
05.09.2016 21:28 14,7 C 92 % 1019,3 hPa 0,0 l/m 11,2 km/h (2 Bft) W-SW 255 0 min 0,000 mm 0,0 UV-I 0 W/m 13,4 C 12,3 C 14,5 km/h (3 Bft) 98,00 %
05.09.2016 21:30 14,7 C 91 % 1019,3 hPa 0,0 l/m 11,8 km/h (2 Bft) W-SW 254 0 min 0,000 mm 0,0 UV-I 0 W/m 13,2 C 12,0 C 19,3 km/h (3 Bft) 100,00 %
05.09.2016 21:32 14,7 C 91 % 1019,3 hPa 0,0 l/m 12,8 km/h (3 Bft) SW 232 0 min 0,000 mm 0,0 UV-I 0 W/m 13,2 C 11,6 C 19,3 km/h (3 Bft) 100,00 %
05.09.2016 21:34 14,7 C 91 % 1019,2 hPa 0,0 l/m 12,0 km/h (2 Bft) W 261 0 min 0,000 mm 0,0 UV-I 0 W/m 13,2 C 11,9 C 19,3 km/h (3 Bft) 100,00 %
05.09.2016 21:36 14,8 C 91 % 1019,2 hPa 0,0 l/m 10,2 km/h (2 Bft) SW 229 0 min 0,000 mm 0,0 UV-I 0 W/m 13,3 C 12,8 C 16,1 km/h (3 Bft) 100,00 %
05.09.2016 21:38 14,8 C 91 % 1019,2 hPa 0,0 l/m 12,2 km/h (2 Bft) W-SW 253 0 min 0,000 mm 0,0 UV-I 0 W/m 13,3 C 12,0 C 17,7 km/h (3 Bft) 97,87 %
05.09.2016 21:40 14,7 C 91 % 1019,2 hPa 0,0 l/m 14,0 km/h (3 Bft) W-SW 238 0 min 0,000 mm 0,0 UV-I 0 W/m 13,2 C 11,2 C 20,9 km/h (4 Bft) 95,74 %
05.09.2016 21:42 14,8 C 91 % 1019,2 hPa 0,0 l/m 12,9 km/h (3 Bft) SW 221 0 min 0,000 mm 0,0 UV-I 0 W/m 13,3 C 11,7 C 19,3 km/h (3 Bft) 97,87 %
05.09.2016 21:44 14,7 C 91 % 1019,3 hPa 0,0 l/m 10,4 km/h (2 Bft) W-SW 246 0 min 0,000 mm 0,0 UV-I 0 W/m 13,2 C 12,6 C 16,1 km/h (3 Bft) 100,00 %
05.09.2016 21:46 14,7 C 91 % 1019,2 hPa 0,0 l/m 9,9 km/h (2 Bft) SW 215 0 min 0,000 mm 0,0 UV-I 0 W/m 13,2 C 12,8 C 14,5 km/h (3 Bft) 100,00 %
05.09.2016 21:48 14,7 C 91 % 1019,2 hPa 0,0 l/m 9,0 km/h (2 Bft) SW 219 0 min 0,000 mm 0,0 UV-I 0 W/m 13,2 C 13,3 C 16,1 km/h (3 Bft) 95,74 %
05.09.2016 21:50 14,7 C 91 % 1019,2 hPa 0,0 l/m 9,0 km/h (2 Bft) SW 232 0 min 0,000 mm 0,0 UV-I 0 W/m 13,2 C 13,3 C 17,7 km/h (3 Bft) 100,00 %
05.09.2016 21:52 14,7 C 91 % 1019,1 hPa 0,0 l/m 11,9 km/h (2 Bft) SW 236 0 min 0,000 mm 0,0 UV-I 0 W/m 13,2 C 12,0 C 20,9 km/h (4 Bft) 98,00 %
05.09.2016 21:54 14,7 C 91 % 1019,2 hPa 0,0 l/m 11,7 km/h (2 Bft) S-SW 209 0 min 0,000 mm 0,0 UV-I 0 W/m 13,2 C 12,0 C 20,9 km/h (4 Bft) 97,87 %
05.09.2016 21:56 14,6 C 92 % 1019,1 hPa 0,0 l/m 10,2 km/h (2 Bft) SW 226 0 min 0,000 mm 0,0 UV-I 0 W/m 13,3 C 12,6 C 16,1 km/h (3 Bft) 97,87 %
05.09.2016 21:58 14,6 C 92 % 1019,2 hPa 0,0 l/m 10,1 km/h (2 Bft) SW 224 0 min 0,000 mm 0,0 UV-I 0 W/m 13,3 C 12,6 C 16,1 km/h (3 Bft) 100,00 %
05.09.2016 22:00 14,6 C 92 % 1019,2 hPa 0,0 l/m 9,4 km/h (2 Bft) S-SW 200 0 min 0,000 mm 0,0 UV-I 0 W/m 13,3 C 13,0 C 17,7 km/h (3 Bft) 100,00 %
05.09.2016 22:02 14,6 C 92 % 1019,2 hPa 0,0 l/m 9,1 km/h (2 Bft) S-SW 213 0 min 0,025 mm 0,0 UV-I 0 W/m 13,3 C 13,1 C 17,7 km/h (3 Bft) 100,00 %
05.09.2016 22:04 14,6 C 92 % 1019,2 hPa 0,0 l/m 9,3 km/h (2 Bft) S 191 0 min 0,000 mm 0,0 UV-I 0 W/m 13,3 C 13,0 C 16,1 km/h (3 Bft) 97,87 %
05.09.2016 22:06 14,6 C 92 % 1019,2 hPa 0,0 l/m 9,1 km/h (2 Bft) SW 223 0 min 0,000 mm 0,0 UV-I 0 W/m 13,3 C 13,1 C 17,7 km/h (3 Bft) 97,87 %
05.09.2016 22:08 14,6 C 92 % 1019,3 hPa 0,0 l/m 11,0 km/h (2 Bft) W-SW 240 0 min 0,000 mm 0,0 UV-I 0 W/m 13,3 C 12,2 C 17,7 km/h (3 Bft) 97,87 %
05.09.2016 22:10 14,6 C 92 % 1019,3 hPa 0,0 l/m 11,3 km/h (2 Bft) SW 230 0 min 0,000 mm 0,0 UV-I 0 W/m 13,3 C 12,1 C 16,1 km/h (3 Bft) 96,00 %
05.09.2016 22:12 14,6 C 92 % 1019,3 hPa 0,0 l/m 10,5 km/h (2 Bft) W-SW 245 0 min 0,000 mm 0,0 UV-I 0 W/m 13,3 C 12,4 C 16,1 km/h (3 Bft) 96,00 %
05.09.2016 22:14 14,6 C 92 % 1019,3 hPa 0,0 l/m 9,9 km/h (2 Bft) S-SO 168 0 min 0,000 mm 0,0 UV-I 0 W/m 13,3 C 12,7 C 16,1 km/h (3 Bft) 97,87 %
05.09.2016 22:16 14,6 C 92 % 1019,3 hPa 0,0 l/m 9,5 km/h (2 Bft) SW 235 0 min 0,000 mm 0,0 UV-I 0 W/m 13,3 C 12,9 C 16,1 km/h (3 Bft) 95,74 %
05.09.2016 22:18 14,6 C 92 % 1019,3 hPa 0,0 l/m 9,8 km/h (2 Bft) W-SW 246 0 min 0,000 mm 0,0 UV-I 0 W/m 13,3 C 12,8 C 16,1 km/h (3 Bft) 95,12 %
05.09.2016 22:20 14,7 C 92 % 1019,4 hPa 0,0 l/m 8,7 km/h (2 Bft) SW 221 0 min 0,000 mm 0,0 UV-I 0 W/m 13,4 C 13,4 C 12,9 km/h (3 Bft) 95,74 %
05.09.2016 22:22 14,7 C 92 % 1019,4 hPa 0,0 l/m 11,3 km/h (2 Bft) S-SW 211 0 min 0,000 mm 0,0 UV-I 0 W/m 13,4 C 12,2 C 14,5 km/h (3 Bft) 97,87 %
05.09.2016 22:24 14,7 C 91 % 1019,4 hPa 0,0 l/m 9,2 km/h (2 Bft) SW 225 0 min 0,000 mm 0,0 UV-I 0 W/m 13,2 C 13,2 C 16,1 km/h (3 Bft) 96,00 %
05.09.2016 22:26 14,7 C 91 % 1019,4 hPa 0,0 l/m 7,8 km/h (2 Bft) SW 232 0 min 0,000 mm 0,0 UV-I 0 W/m 13,2 C 13,9 C 12,9 km/h (3 Bft) 97,87 %
05.09.2016 22:28 14,7 C 91 % 1019,4 hPa 0,0 l/m 7,5 km/h (2 Bft) W-SW 239 0 min 0,000 mm 0,0 UV-I 0 W/m 13,2 C 14,1 C 16,1 km/h (3 Bft) 94,74 %
05.09.2016 22:30 14,7 C 91 % 1019,4 hPa 0,0 l/m 6,7 km/h (2 Bft) W-SW 246 0 min 0,000 mm 0,0 UV-I 0 W/m 13,2 C 14,5 C 11,3 km/h (2 Bft) 96,23 %
05.09.2016 22:32 14,7 C 91 % 1019,4 hPa 0,0 l/m 8,3 km/h (2 Bft) SW 229 0 min 0,000 mm 0,0 UV-I 0 W/m 13,2 C 13,6 C 12,9 km/h (3 Bft) 95,74 %
05.09.2016 22:34 14,7 C 91 % 1019,4 hPa 0,0 l/m 10,3 km/h (2 Bft) SW 229 0 min 0,000 mm 0,0 UV-I 0 W/m 13,2 C 12,6 C 16,1 km/h (3 Bft) 97,87 %
05.09.2016 22:36 14,7 C 91 % 1019,4 hPa 0,2 l/m 8,3 km/h (2 Bft) W-SW 254 0 min 0,000 mm 0,0 UV-I 0 W/m 13,2 C 13,6 C 12,9 km/h (3 Bft) 98,00 %
05.09.2016 22:38 14,7 C 92 % 1019,6 hPa 0,0 l/m 9,4 km/h (2 Bft) SW 232 0 min 0,000 mm 0,0 UV-I 0 W/m 13,4 C 13,1 C 14,5 km/h (3 Bft) 97,44 %
05.09.2016 22:40 14,7 C 92 % 1019,5 hPa 0,0 l/m 8,3 km/h (2 Bft) SW 236 0 min 0,000 mm 0,0 UV-I 0 W/m 13,4 C 13,6 C 12,9 km/h (3 Bft) 98,00 %
05.09.2016 22:42 14,7 C 92 % 1019,5 hPa 0,0 l/m 8,1 km/h (2 Bft) SW 234 0 min 0,000 mm 0,0 UV-I 0 W/m 13,4 C 13,7 C 12,9 km/h (3 Bft) 95,74 %
05.09.2016 22:44 14,7 C 92 % 1019,5 hPa 0,0 l/m 10,5 km/h (2 Bft) SW 230 0 min 0,000 mm 0,0 UV-I 0 W/m 13,4 C 12,6 C 19,3 km/h (3 Bft) 100,00 %
05.09.2016 22:46 14,6 C 92 % 1019,5 hPa 0,0 l/m 9,9 km/h (2 Bft) W-SW 240 0 min 0,000 mm 0,0 UV-I 0 W/m 13,3 C 12,7 C 16,1 km/h (3 Bft) 100,00 %
05.09.2016 22:48 14,6 C 92 % 1019,5 hPa 0,0 l/m 9,4 km/h (2 Bft) W-SW 238 0 min 0,000 mm 0,0 UV-I 0 W/m 13,3 C 13,0 C 16,1 km/h (3 Bft) 98,00 %
05.09.2016 22:50 14,6 C 93 % 1019,6 hPa 0,0 l/m 10,1 km/h (2 Bft) SW 232 0 min 0,000 mm 0,0 UV-I 0 W/m 13,5 C 12,6 C 14,5 km/h (3 Bft) 97,87 %
05.09.2016 22:52 14,6 C 92 % 1019,6 hPa 0,0 l/m 11,4 km/h (2 Bft) SW 227 0 min 0,000 mm 0,0 UV-I 0 W/m 13,3 C 12,1 C 16,1 km/h (3 Bft) 100,00 %
05.09.2016 22:54 14,6 C 93 % 1019,6 hPa 0,0 l/m 11,5 km/h (2 Bft) S-SW 208 0 min 0,000 mm 0,0 UV-I 0 W/m 13,5 C 12,0 C 17,7 km/h (3 Bft) 100,00 %
05.09.2016 22:56 14,6 C 93 % 1019,6 hPa 0,0 l/m 12,2 km/h (2 Bft) SW 226 0 min 0,000 mm 0,0 UV-I 0 W/m 13,5 C 11,7 C 19,3 km/h (3 Bft) 100,00 %
05.09.2016 22:58 14,6 C 93 % 1019,6 hPa 0,0 l/m 9,0 km/h (2 Bft) S-SW 205 0 min 0,000 mm 0,0 UV-I 0 W/m 13,5 C 13,2 C 12,9 km/h (3 Bft) 98,11 %
05.09.2016 23:00 14,6 C 93 % 1019,5 hPa 0,0 l/m 11,9 km/h (2 Bft) SW 232 0 min 0,000 mm 0,0 UV-I 0 W/m 13,5 C 11,9 C 16,1 km/h (3 Bft) 100,00 %
05.09.2016 23:02 14,6 C 93 % 1019,5 hPa 0,0 l/m 12,9 km/h (3 Bft) SW 218 0 min 0,000 mm 0,0 UV-I 0 W/m 13,5 C 11,5 C 20,9 km/h (4 Bft) 100,00 %
05.09.2016 23:04 14,6 C 93 % 1019,5 hPa 0,0 l/m 12,9 km/h (3 Bft) W 262 0 min 0,000 mm 0,0 UV-I 0 W/m 13,5 C 11,5 C 20,9 km/h (4 Bft) 100,00 %
05.09.2016 23:06 14,6 C 93 % 1019,6 hPa 0,0 l/m 11,2 km/h (2 Bft) W 263 0 min 0,000 mm 0,0 UV-I 0 W/m 13,5 C 12,1 C 19,3 km/h (3 Bft) 100,00 %
05.09.2016 23:08 14,6 C 93 % 1019,6 hPa 0,0 l/m 12,5 km/h (3 Bft) SW 223 0 min 0,000 mm 0,0 UV-I 0 W/m 13,5 C 11,6 C 17,7 km/h (3 Bft) 100,00 %
05.09.2016 23:10 14,6 C 93 % 1019,6 hPa 0,0 l/m 10,4 km/h (2 Bft) SW 234 0 min 0,000 mm 0,0 UV-I 0 W/m 13,5 C 12,5 C 19,3 km/h (3 Bft) 100,00 %
05.09.2016 23:12 14,6 C 93 % 1019,6 hPa 0,0 l/m 9,2 km/h (2 Bft) W 261 0 min 0,000 mm 0,0 UV-I 0 W/m 13,5 C 13,1 C 14,5 km/h (3 Bft) 100,00 %
05.09.2016 23:14 14,6 C 93 % 1019,6 hPa 0,2 l/m 9,4 km/h (2 Bft) W-SW 250 0 min 0,000 mm 0,0 UV-I 0 W/m 13,5 C 13,0 C 14,5 km/h (3 Bft) 98,00 %
05.09.2016 23:16 14,7 C 93 % 1019,5 hPa 0,0 l/m 9,4 km/h (2 Bft) SW 235 0 min 0,000 mm 0,0 UV-I 0 W/m 13,6 C 13,1 C 14,5 km/h (3 Bft) 100,00 %
05.09.2016 23:18 14,7 C 93 % 1019,6 hPa 0,0 l/m 9,2 km/h (2 Bft) W 259 0 min 0,000 mm 0,0 UV-I 0 W/m 13,6 C 13,2 C 16,1 km/h (3 Bft) 100,00 %
05.09.2016 23:20 14,7 C 93 % 1019,6 hPa 0,0 l/m 9,7 km/h (2 Bft) W-SW 245 0 min 0,000 mm 0,0 UV-I 0 W/m 13,6 C 12,9 C 16,1 km/h (3 Bft) 100,00 %
05.09.2016 23:22 14,7 C 93 % 1019,6 hPa 0,0 l/m 8,9 km/h (2 Bft) SW 227 0 min 0,000 mm 0,0 UV-I 0 W/m 13,6 C 13,3 C 16,1 km/h (3 Bft) 100,00 %
05.09.2016 23:24 14,7 C 93 % 1019,6 hPa 0,0 l/m 8,3 km/h (2 Bft) W-SW 244 0 min 0,000 mm 0,0 UV-I 0 W/m 13,6 C 13,6 C 14,5 km/h (3 Bft) 100,00 %
05.09.2016 23:26 14,7 C 93 % 1019,7 hPa 0,0 l/m 7,4 km/h (2 Bft) S-SW 196 0 min 0,000 mm 0,0 UV-I 0 W/m 13,6 C 14,1 C 12,9 km/h (3 Bft) 100,00 %
05.09.2016 23:28 14,7 C 93 % 1019,7 hPa 0,0 l/m 8,0 km/h (2 Bft) W-SW 252 0 min 0,000 mm 0,0 UV-I 0 W/m 13,6 C 13,8 C 16,1 km/h (3 Bft) 100,00 %
05.09.2016 23:30 14,7 C 93 % 1019,7 hPa 0,0 l/m 8,8 km/h (2 Bft) W-SW 246 0 min 0,000 mm 0,0 UV-I 0 W/m 13,6 C 13,4 C 12,9 km/h (3 Bft) 100,00 %
05.09.2016 23:32 14,7 C 93 % 1019,7 hPa 0,0 l/m 6,6 km/h (2 Bft) SW 219 0 min 0,000 mm 0,0 UV-I 0 W/m 13,6 C 14,6 C 11,3 km/h (2 Bft) 100,00 %
05.09.2016 23:34 14,7 C 93 % 1019,7 hPa 0,0 l/m 8,4 km/h (2 Bft) W-SW 244 0 min 0,000 mm 0,0 UV-I 0 W/m 13,6 C 13,6 C 14,5 km/h (3 Bft) 100,00 %
05.09.2016 23:36 14,7 C 93 % 1019,8 hPa 0,0 l/m 8,1 km/h (2 Bft) W 259 0 min 0,000 mm 0,0 UV-I 0 W/m 13,6 C 13,7 C 11,3 km/h (2 Bft) 98,00 %
05.09.2016 23:38 14,7 C 93 % 1019,8 hPa 0,0 l/m 10,7 km/h (2 Bft) W-SW 248 0 min 0,000 mm 0,0 UV-I 0 W/m 13,6 C 12,5 C 17,7 km/h (3 Bft) 100,00 %
05.09.2016 23:40 14,7 C 93 % 1019,8 hPa 0,2 l/m 12,4 km/h (3 Bft) SW 232 0 min 0,000 mm 0,0 UV-I 0 W/m 13,6 C 11,8 C 22,5 km/h (4 Bft) 100,00 %
05.09.2016 23:42 14,7 C 93 % 1019,8 hPa 0,2 l/m 11,4 km/h (2 Bft) W-SW 254 0 min 0,000 mm 0,0 UV-I 0 W/m 13,6 C 12,2 C 17,7 km/h (3 Bft) 100,00 %
05.09.2016 23:44 14,7 C 93 % 1019,8 hPa 0,2 l/m 11,1 km/h (2 Bft) W-SW 256 0 min 0,000 mm 0,0 UV-I 0 W/m 13,6 C 12,3 C 16,1 km/h (3 Bft) 97,87 %
05.09.2016 23:46 14,7 C 93 % 1019,8 hPa 0,2 l/m 11,5 km/h (2 Bft) W-SW 250 0 min 0,000 mm 0,0 UV-I 0 W/m 13,6 C 12,1 C 22,5 km/h (4 Bft) 100,00 %
05.09.2016 23:48 14,6 C 93 % 1019,7 hPa 0,0 l/m 13,1 km/h (3 Bft) W-SW 256 0 min 0,000 mm 0,0 UV-I 0 W/m 13,5 C 11,4 C 20,9 km/h (4 Bft) 100,00 %
05.09.2016 23:50 14,6 C 94 % 1019,8 hPa 0,0 l/m 13,9 km/h (3 Bft) W-SW 239 0 min 0,000 mm 0,0 UV-I 0 W/m 13,6 C 11,1 C 19,3 km/h (3 Bft) 100,00 %
05.09.2016 23:52 14,6 C 94 % 1019,7 hPa 0,0 l/m 13,0 km/h (3 Bft) W 264 0 min 0,000 mm 0,0 UV-I 0 W/m 13,6 C 11,4 C 19,3 km/h (3 Bft) 98,00 %
05.09.2016 23:54 14,6 C 94 % 1019,8 hPa 0,2 l/m 15,5 km/h (3 Bft) SW 235 0 min 0,000 mm 0,0 UV-I 0 W/m 13,6 C 10,5 C 20,9 km/h (4 Bft) 100,00 %
05.09.2016 23:56 14,5 C 94 % 1019,7 hPa 0,0 l/m 16,7 km/h (3 Bft) W-SW 254 0 min 0,000 mm 0,0 UV-I 0 W/m 13,5 C 10,0 C 27,4 km/h (4 Bft) 100,00 %
05.09.2016 23:58 14,5 C 94 % 1019,8 hPa 0,0 l/m 16,2 km/h (3 Bft) W-SW 258 0 min 0,000 mm 0,0 UV-I 0 W/m 13,5 C 10,2 C 24,1 km/h (4 Bft) 100,00 %
_ Min-Zeit 05:16 00:00 00:00 - 13:18 - - - - - - 16:24 04:52 13:14 18:06
Minimum _ 13,5 C 63 % 1012,4 hPa - 1,8 km/h (1 Bft) - - - - - - 11,6 C 7,2 C 4,8 km/h (1 Bft) 83,33 %
_ Max-Zeit 00:00 23:50 23:36 13:50 04:18 - - 10:40 15:02 14:28 14:30 14:38 16:10 04:18 00:00
Maximum _ 20,8 C 94 % 1019,8 hPa 1,6 l/m 28,1 km/h
W-SW (4 Bft)
- - 2 min 0,229 mm 4,0 UV-I 863 W/m 15,6 C 18,2 C 51,5 km/h
W-SW (7 Bft)
100,00 %
Durchschnitt _ 16,0 C 85 % 1015,5 hPa #18,0 l/m 13,1 km/h (3 Bft) W-SW - #44 min. #1,778 mm 1,3 UV-I 164 W/m 13,5 C 13,1 C 21,4 km/h (4 Bft) 98,49 %